<?xml version="1.0" encoding="UTF-8"?>
<gpx version="1.1" creator="2bulu-scraper" xmlns="http://www.topografix.com/GPX/1/1">
  <metadata><name>乐山井研川山洞</name><desc>source: 2bulu.com trackId=77546817; exported 2026-09-01T15:56:18.682Z</desc>
    <bounds minlat="29.494253" minlon="104.092896" maxlat="29.513081" maxlon="104.112326"/>
    <link href="https://www.2bulu.com/track/t-6FHAR1jwJC%252Fp%252FR2KBg5Tzw%253D%253D.htm"><text>2bulu 源页面</text></link>
  </metadata>
  <wpt lat="29.513" lon="104.10963"><ele>423</ele><name></name></wpt>
  <wpt lat="29.510817" lon="104.109732"><ele>427</ele><name></name></wpt>
  <wpt lat="29.510434" lon="104.10938"><ele>418</ele><name></name></wpt>
  <wpt lat="29.509864" lon="104.109614"><ele>417</ele><name></name></wpt>
  <wpt lat="29.509032" lon="104.109559"><ele>420</ele><name></name></wpt>
  <wpt lat="29.50922" lon="104.10803"><ele>416</ele><name></name></wpt>
  <wpt lat="29.509375" lon="104.107596"><ele>413</ele><name></name></wpt>
  <wpt lat="29.509635" lon="104.105677"><ele>411</ele><name></name></wpt>
  <wpt lat="29.509372" lon="104.103225"><ele>400</ele><name></name></wpt>
  <wpt lat="29.508424" lon="104.102958"><ele>411</ele><name></name></wpt>
  <wpt lat="29.505652" lon="104.099665"><ele>408</ele><name></name></wpt>
  <wpt lat="29.507137" lon="104.098446"><ele>402</ele><name></name></wpt>
  <wpt lat="29.508975" lon="104.097311"><ele>400</ele><name></name></wpt>
  <wpt lat="29.508353" lon="104.097463"><ele>383</ele><name></name></wpt>
  <wpt lat="29.507648" lon="104.097251"><ele>390</ele><name></name></wpt>
  <wpt lat="29.507321" lon="104.097306"><ele>391</ele><name></name></wpt>
  <wpt lat="29.505893" lon="104.09632"><ele>394</ele><name></name></wpt>
  <wpt lat="29.505878" lon="104.094912"><ele>392</ele><name></name></wpt>
  <wpt lat="29.505602" lon="104.093088"><ele>385</ele><name></name></wpt>
  <wpt lat="29.504682" lon="104.0934"><ele>391</ele><name></name></wpt>
  <wpt lat="29.504623" lon="104.094009"><ele>389</ele><name></name></wpt>
  <wpt lat="29.504708" lon="104.0948"><ele>387</ele><name></name></wpt>
  <wpt lat="29.504651" lon="104.096686"><ele>390</ele><name></name></wpt>
  <wpt lat="29.50317" lon="104.097613"><ele>393</ele><name></name></wpt>
  <wpt lat="29.502064" lon="104.095919"><ele>378</ele><name></name></wpt>
  <wpt lat="29.502313" lon="104.095342"><ele>369</ele><name></name></wpt>
  <wpt lat="29.50197" lon="104.094208"><ele>378</ele><name></name></wpt>
  <wpt lat="29.500521" lon="104.094848"><ele>374</ele><name></name></wpt>
  <wpt lat="29.500105" lon="104.096607"><ele>368</ele><name></name></wpt>
  <wpt lat="29.497648" lon="104.095783"><ele>381</ele><name></name></wpt>
  <wpt lat="29.496253" lon="104.096295"><ele>381</ele><name></name></wpt>
  <wpt lat="29.496295" lon="104.097116"><ele>365</ele><name></name></wpt>
  <wpt lat="29.495493" lon="104.097132"><ele>369</ele><name></name></wpt>
  <wpt lat="29.495033" lon="104.097076"><ele>370</ele><name></name></wpt>
  <wpt lat="29.494273" lon="104.097313"><ele>386</ele><name></name></wpt>
  <wpt lat="29.494701" lon="104.097917"><ele>390</ele><name></name></wpt>
  <wpt lat="29.495503" lon="104.098073"><ele>388</ele><name></name></wpt>
  <wpt lat="29.49604" lon="104.098156"><ele>392</ele><name></name></wpt>
  <wpt lat="29.496135" lon="104.098148"><ele>394</ele><name></name></wpt>
  <wpt lat="29.496883" lon="104.098733"><ele>409</ele><name></name></wpt>
  <wpt lat="29.497376" lon="104.099482"><ele>411</ele><name></name></wpt>
  <wpt lat="29.497495" lon="104.099782"><ele>423</ele><name></name></wpt>
  <wpt lat="29.497825" lon="104.100202"><ele>424</ele><name></name></wpt>
  <wpt lat="29.498325" lon="104.100465"><ele>426</ele><name></name></wpt>
  <wpt lat="29.498261" lon="104.101294"><ele>431</ele><name></name></wpt>
  <wpt lat="29.498443" lon="104.105524"><ele>444</ele><name></name></wpt>
  <wpt lat="29.503599" lon="104.107792"><ele>446</ele><name></name></wpt>
  <wpt lat="29.511436" lon="104.112318"><ele>434</ele><name></name></wpt>
  <trk><name>乐山井研川山洞</name>
      <trkseg>
        <trkpt lat="29.513081" lon="104.109589"><ele>417.76462</ele><time>2026-01-09T21:16:28.000Z</time></trkpt>
        <trkpt lat="29.513001" lon="104.10963"><ele>422.97607</ele><time>2026-01-09T21:16:55.000Z</time></trkpt>
        <trkpt lat="29.512967" lon="104.109595"><ele>422.29428</ele><time>2026-01-09T21:17:27.000Z</time></trkpt>
        <trkpt lat="29.512951" lon="104.109541"><ele>420.7397</ele><time>2026-01-09T21:17:35.000Z</time></trkpt>
        <trkpt lat="29.512921" lon="104.109489"><ele>420.12445</ele><time>2026-01-09T21:17:43.000Z</time></trkpt>
        <trkpt lat="29.512896" lon="104.109447"><ele>419.99597</ele><time>2026-01-09T21:17:49.000Z</time></trkpt>
        <trkpt lat="29.512872" lon="104.109401"><ele>419.44803</ele><time>2026-01-09T21:17:54.000Z</time></trkpt>
        <trkpt lat="29.512849" lon="104.109347"><ele>418.78152</ele><time>2026-01-09T21:18:00.000Z</time></trkpt>
        <trkpt lat="29.512825" lon="104.109297"><ele>418.28793</ele><time>2026-01-09T21:18:06.000Z</time></trkpt>
        <trkpt lat="29.512813" lon="104.109242"><ele>417.9919</ele><time>2026-01-09T21:18:12.000Z</time></trkpt>
        <trkpt lat="29.5128" lon="104.109191"><ele>417.58945</ele><time>2026-01-09T21:18:17.000Z</time></trkpt>
        <trkpt lat="29.512798" lon="104.109141"><ele>417.5052</ele><time>2026-01-09T21:18:21.000Z</time></trkpt>
        <trkpt lat="29.512796" lon="104.109093"><ele>417.66852</ele><time>2026-01-09T21:18:24.000Z</time></trkpt>
        <trkpt lat="29.512792" lon="104.109027"><ele>418.18307</ele><time>2026-01-09T21:18:28.000Z</time></trkpt>
        <trkpt lat="29.512767" lon="104.10898"><ele>418.50467</ele><time>2026-01-09T21:18:32.000Z</time></trkpt>
        <trkpt lat="29.512722" lon="104.108984"><ele>416.60724</ele><time>2026-01-09T21:18:37.000Z</time></trkpt>
        <trkpt lat="29.512666" lon="104.109006"><ele>417.78366</ele><time>2026-01-09T21:18:47.000Z</time></trkpt>
        <trkpt lat="29.512625" lon="104.109006"><ele>418.20663</ele><time>2026-01-09T21:18:52.000Z</time></trkpt>
        <trkpt lat="29.512579" lon="104.10899"><ele>418.59595</ele><time>2026-01-09T21:18:57.000Z</time></trkpt>
        <trkpt lat="29.512529" lon="104.108966"><ele>418.45828</ele><time>2026-01-09T21:19:04.000Z</time></trkpt>
        <trkpt lat="29.512482" lon="104.108962"><ele>417.674</ele><time>2026-01-09T21:19:27.000Z</time></trkpt>
        <trkpt lat="29.512445" lon="104.108966"><ele>418.0538</ele><time>2026-01-09T21:19:34.000Z</time></trkpt>
        <trkpt lat="29.512389" lon="104.108973"><ele>418.17072</ele><time>2026-01-09T21:19:42.000Z</time></trkpt>
        <trkpt lat="29.512344" lon="104.108981"><ele>418.11377</ele><time>2026-01-09T21:19:47.000Z</time></trkpt>
        <trkpt lat="29.512298" lon="104.108984"><ele>417.9334</ele><time>2026-01-09T21:19:51.000Z</time></trkpt>
        <trkpt lat="29.512245" lon="104.108996"><ele>418.2337</ele><time>2026-01-09T21:19:55.000Z</time></trkpt>
        <trkpt lat="29.512193" lon="104.109022"><ele>418.73264</ele><time>2026-01-09T21:19:59.000Z</time></trkpt>
        <trkpt lat="29.512153" lon="104.109064"><ele>419.48404</ele><time>2026-01-09T21:20:03.000Z</time></trkpt>
        <trkpt lat="29.512109" lon="104.1091"><ele>420.27264</ele><time>2026-01-09T21:20:08.000Z</time></trkpt>
        <trkpt lat="29.512062" lon="104.109134"><ele>421.17905</ele><time>2026-01-09T21:20:14.000Z</time></trkpt>
        <trkpt lat="29.512021" lon="104.109158"><ele>421.11975</ele><time>2026-01-09T21:20:19.000Z</time></trkpt>
        <trkpt lat="29.51198" lon="104.109187"><ele>420.2091</ele><time>2026-01-09T21:20:24.000Z</time></trkpt>
        <trkpt lat="29.51193" lon="104.109218"><ele>420.14026</ele><time>2026-01-09T21:20:30.000Z</time></trkpt>
        <trkpt lat="29.511887" lon="104.109247"><ele>420.15103</ele><time>2026-01-09T21:20:35.000Z</time></trkpt>
        <trkpt lat="29.511843" lon="104.109283"><ele>420.70984</ele><time>2026-01-09T21:20:40.000Z</time></trkpt>
        <trkpt lat="29.511808" lon="104.109322"><ele>421.09818</ele><time>2026-01-09T21:20:45.000Z</time></trkpt>
        <trkpt lat="29.51177" lon="104.109348"><ele>422.0381</ele><time>2026-01-09T21:20:49.000Z</time></trkpt>
        <trkpt lat="29.511722" lon="104.109379"><ele>423.15106</ele><time>2026-01-09T21:20:54.000Z</time></trkpt>
        <trkpt lat="29.511668" lon="104.109388"><ele>423.87192</ele><time>2026-01-09T21:21:05.000Z</time></trkpt>
        <trkpt lat="29.511623" lon="104.109388"><ele>423.72134</ele><time>2026-01-09T21:21:11.000Z</time></trkpt>
        <trkpt lat="29.511582" lon="104.109403"><ele>424.1224</ele><time>2026-01-09T21:21:15.000Z</time></trkpt>
        <trkpt lat="29.51153" lon="104.109413"><ele>424.69437</ele><time>2026-01-09T21:21:19.000Z</time></trkpt>
        <trkpt lat="29.511473" lon="104.109422"><ele>425.26538</ele><time>2026-01-09T21:21:25.000Z</time></trkpt>
        <trkpt lat="29.511425" lon="104.109416"><ele>425.63565</ele><time>2026-01-09T21:21:30.000Z</time></trkpt>
        <trkpt lat="29.511368" lon="104.109392"><ele>425.64954</ele><time>2026-01-09T21:21:35.000Z</time></trkpt>
        <trkpt lat="29.511311" lon="104.109375"><ele>425.84897</ele><time>2026-01-09T21:21:40.000Z</time></trkpt>
        <trkpt lat="29.511257" lon="104.109383"><ele>425.11362</ele><time>2026-01-09T21:21:49.000Z</time></trkpt>
        <trkpt lat="29.511217" lon="104.109408"><ele>423.86786</ele><time>2026-01-09T21:21:58.000Z</time></trkpt>
        <trkpt lat="29.511176" lon="104.109437"><ele>423.5291</ele><time>2026-01-09T21:22:04.000Z</time></trkpt>
        <trkpt lat="29.511135" lon="104.109458"><ele>423.7524</ele><time>2026-01-09T21:22:09.000Z</time></trkpt>
        <trkpt lat="29.511095" lon="104.109496"><ele>424.9939</ele><time>2026-01-09T21:22:16.000Z</time></trkpt>
        <trkpt lat="29.511087" lon="104.109558"><ele>425.5679</ele><time>2026-01-09T21:22:26.000Z</time></trkpt>
        <trkpt lat="29.51106" lon="104.109593"><ele>425.5286</ele><time>2026-01-09T21:22:32.000Z</time></trkpt>
        <trkpt lat="29.51103" lon="104.109633"><ele>425.09802</ele><time>2026-01-09T21:22:38.000Z</time></trkpt>
        <trkpt lat="29.510993" lon="104.109632"><ele>425.67474</ele><time>2026-01-09T21:22:42.000Z</time></trkpt>
        <trkpt lat="29.510934" lon="104.109631"><ele>425.902</ele><time>2026-01-09T21:22:51.000Z</time></trkpt>
        <trkpt lat="29.510895" lon="104.109654"><ele>425.88873</ele><time>2026-01-09T21:22:58.000Z</time></trkpt>
        <trkpt lat="29.510839" lon="104.109685"><ele>426.58688</ele><time>2026-01-09T21:23:11.000Z</time></trkpt>
        <trkpt lat="29.510824" lon="104.109713"><ele>426.70496</ele><time>2026-01-09T21:23:13.000Z</time></trkpt>
        <trkpt lat="29.510807" lon="104.109695"><ele>426.57486</ele><time>2026-01-09T21:23:17.000Z</time></trkpt>
        <trkpt lat="29.510784" lon="104.109624"><ele>425.036</ele><time>2026-01-09T21:23:44.000Z</time></trkpt>
        <trkpt lat="29.510762" lon="104.109594"><ele>424.99887</ele><time>2026-01-09T21:23:47.000Z</time></trkpt>
        <trkpt lat="29.510705" lon="104.109573"><ele>423.47665</ele><time>2026-01-09T21:23:56.000Z</time></trkpt>
        <trkpt lat="29.510659" lon="104.109561"><ele>422.98703</ele><time>2026-01-09T21:24:01.000Z</time></trkpt>
        <trkpt lat="29.510611" lon="104.109527"><ele>420.3591</ele><time>2026-01-09T21:24:19.000Z</time></trkpt>
        <trkpt lat="29.510565" lon="104.109505"><ele>420.93597</ele><time>2026-01-09T21:24:38.000Z</time></trkpt>
        <trkpt lat="29.510517" lon="104.109499"><ele>420.4515</ele><time>2026-01-09T21:24:48.000Z</time></trkpt>
        <trkpt lat="29.510483" lon="104.109467"><ele>420.27264</ele><time>2026-01-09T21:24:53.000Z</time></trkpt>
        <trkpt lat="29.510438" lon="104.109468"><ele>418.95984</ele><time>2026-01-09T21:25:00.000Z</time></trkpt>
        <trkpt lat="29.510401" lon="104.109434"><ele>418.25238</ele><time>2026-01-09T21:25:13.000Z</time></trkpt>
        <trkpt lat="29.510428" lon="104.109385"><ele>418.33044</ele><time>2026-01-09T21:25:20.000Z</time></trkpt>
        <trkpt lat="29.510405" lon="104.109341"><ele>418.7684</ele><time>2026-01-09T21:25:27.000Z</time></trkpt>
        <trkpt lat="29.510357" lon="104.109336"><ele>418.7138</ele><time>2026-01-09T21:25:33.000Z</time></trkpt>
        <trkpt lat="29.510307" lon="104.10932"><ele>419.31726</ele><time>2026-01-09T21:25:41.000Z</time></trkpt>
        <trkpt lat="29.510261" lon="104.109325"><ele>419.08136</ele><time>2026-01-09T21:25:55.000Z</time></trkpt>
        <trkpt lat="29.510216" lon="104.109342"><ele>418.56073</ele><time>2026-01-09T21:26:09.000Z</time></trkpt>
        <trkpt lat="29.51018" lon="104.109307"><ele>418.91083</ele><time>2026-01-09T21:26:27.000Z</time></trkpt>
        <trkpt lat="29.510138" lon="104.109348"><ele>418.80862</ele><time>2026-01-09T21:26:37.000Z</time></trkpt>
        <trkpt lat="29.510086" lon="104.109374"><ele>419.3564</ele><time>2026-01-09T21:27:33.000Z</time></trkpt>
        <trkpt lat="29.510045" lon="104.109359"><ele>417.776</ele><time>2026-01-09T21:27:46.000Z</time></trkpt>
        <trkpt lat="29.510056" lon="104.109416"><ele>417.78256</ele><time>2026-01-09T21:27:55.000Z</time></trkpt>
        <trkpt lat="29.510036" lon="104.109469"><ele>417.2876</ele><time>2026-01-09T21:28:08.000Z</time></trkpt>
        <trkpt lat="29.510009" lon="104.109505"><ele>416.96518</ele><time>2026-01-09T21:28:15.000Z</time></trkpt>
        <trkpt lat="29.509959" lon="104.1095"><ele>416.76453</ele><time>2026-01-09T21:28:25.000Z</time></trkpt>
        <trkpt lat="29.509919" lon="104.109475"><ele>418.19974</ele><time>2026-01-09T21:28:30.000Z</time></trkpt>
        <trkpt lat="29.509897" lon="104.109501"><ele>418.51166</ele><time>2026-01-09T21:28:34.000Z</time></trkpt>
        <trkpt lat="29.509889" lon="104.109565"><ele>417.42197</ele><time>2026-01-09T21:28:43.000Z</time></trkpt>
        <trkpt lat="29.509865" lon="104.109614"><ele>417.44186</ele><time>2026-01-09T21:29:08.000Z</time></trkpt>
        <trkpt lat="29.509877" lon="104.109671"><ele>417.24945</ele><time>2026-01-09T21:29:48.000Z</time></trkpt>
        <trkpt lat="29.509849" lon="104.109715"><ele>418.397</ele><time>2026-01-09T21:30:08.000Z</time></trkpt>
        <trkpt lat="29.509807" lon="104.109736"><ele>418.83932</ele><time>2026-01-09T21:30:15.000Z</time></trkpt>
        <trkpt lat="29.509812" lon="104.10969"><ele>419.09335</ele><time>2026-01-09T21:30:38.000Z</time></trkpt>
        <trkpt lat="29.509794" lon="104.109741"><ele>418.80164</ele><time>2026-01-09T21:30:55.000Z</time></trkpt>
        <trkpt lat="29.509748" lon="104.109762"><ele>417.98035</ele><time>2026-01-09T21:31:46.000Z</time></trkpt>
        <trkpt lat="29.509699" lon="104.109764"><ele>418.68518</ele><time>2026-01-09T21:32:28.000Z</time></trkpt>
        <trkpt lat="29.509748" lon="104.109756"><ele>419.1469</ele><time>2026-01-09T21:32:50.000Z</time></trkpt>
        <trkpt lat="29.509722" lon="104.109712"><ele>418.2454</ele><time>2026-01-09T21:33:29.000Z</time></trkpt>
        <trkpt lat="29.509677" lon="104.109692"><ele>417.60742</ele><time>2026-01-09T21:33:48.000Z</time></trkpt>
        <trkpt lat="29.509635" lon="104.109697"><ele>417.54947</ele><time>2026-01-09T21:33:56.000Z</time></trkpt>
        <trkpt lat="29.509584" lon="104.10971"><ele>417.98453</ele><time>2026-01-09T21:34:06.000Z</time></trkpt>
        <trkpt lat="29.509539" lon="104.109701"><ele>417.28995</ele><time>2026-01-09T21:34:16.000Z</time></trkpt>
        <trkpt lat="29.509497" lon="104.109686"><ele>416.50214</ele><time>2026-01-09T21:34:22.000Z</time></trkpt>
        <trkpt lat="29.509476" lon="104.109729"><ele>418.68784</ele><time>2026-01-09T21:34:31.000Z</time></trkpt>
        <trkpt lat="29.509436" lon="104.109714"><ele>418.46246</ele><time>2026-01-09T21:35:33.000Z</time></trkpt>
        <trkpt lat="29.509404" lon="104.109689"><ele>417.86487</ele><time>2026-01-09T21:35:39.000Z</time></trkpt>
        <trkpt lat="29.509361" lon="104.10968"><ele>417.416</ele><time>2026-01-09T21:35:43.000Z</time></trkpt>
        <trkpt lat="29.509309" lon="104.109669"><ele>417.29092</ele><time>2026-01-09T21:35:48.000Z</time></trkpt>
        <trkpt lat="29.50926" lon="104.109644"><ele>418.7564</ele><time>2026-01-09T21:36:02.000Z</time></trkpt>
        <trkpt lat="29.509232" lon="104.109615"><ele>418.6152</ele><time>2026-01-09T21:36:09.000Z</time></trkpt>
        <trkpt lat="29.509188" lon="104.109601"><ele>418.66278</ele><time>2026-01-09T21:36:14.000Z</time></trkpt>
        <trkpt lat="29.50914" lon="104.109589"><ele>418.40823</ele><time>2026-01-09T21:36:19.000Z</time></trkpt>
        <trkpt lat="29.509091" lon="104.109581"><ele>418.40982</ele><time>2026-01-09T21:36:23.000Z</time></trkpt>
        <trkpt lat="29.509034" lon="104.109562"><ele>419.4269</ele><time>2026-01-09T21:36:29.000Z</time></trkpt>
        <trkpt lat="29.508982" lon="104.109553"><ele>419.8826</ele><time>2026-01-09T21:36:37.000Z</time></trkpt>
        <trkpt lat="29.508957" lon="104.109512"><ele>420.4602</ele><time>2026-01-09T21:36:42.000Z</time></trkpt>
        <trkpt lat="29.50895" lon="104.109452"><ele>422.0935</ele><time>2026-01-09T21:36:50.000Z</time></trkpt>
        <trkpt lat="29.508963" lon="104.109397"><ele>422.02252</ele><time>2026-01-09T21:36:57.000Z</time></trkpt>
        <trkpt lat="29.508971" lon="104.109341"><ele>421.8915</ele><time>2026-01-09T21:37:01.000Z</time></trkpt>
        <trkpt lat="29.508955" lon="104.109284"><ele>421.6201</ele><time>2026-01-09T21:37:05.000Z</time></trkpt>
        <trkpt lat="29.508915" lon="104.109248"><ele>421.35275</ele><time>2026-01-09T21:37:09.000Z</time></trkpt>
        <trkpt lat="29.508881" lon="104.109192"><ele>421.44952</ele><time>2026-01-09T21:37:14.000Z</time></trkpt>
        <trkpt lat="29.50886" lon="104.10913"><ele>421.25058</ele><time>2026-01-09T21:37:19.000Z</time></trkpt>
        <trkpt lat="29.508872" lon="104.109083"><ele>421.47385</ele><time>2026-01-09T21:37:23.000Z</time></trkpt>
        <trkpt lat="29.508902" lon="104.109041"><ele>421.5733</ele><time>2026-01-09T21:37:27.000Z</time></trkpt>
        <trkpt lat="29.508947" lon="104.109008"><ele>421.50217</ele><time>2026-01-09T21:37:31.000Z</time></trkpt>
        <trkpt lat="29.509002" lon="104.108977"><ele>420.48178</ele><time>2026-01-09T21:37:39.000Z</time></trkpt>
        <trkpt lat="29.509027" lon="104.108938"><ele>419.17764</ele><time>2026-01-09T21:37:47.000Z</time></trkpt>
        <trkpt lat="29.509003" lon="104.108889"><ele>418.20166</ele><time>2026-01-09T21:37:54.000Z</time></trkpt>
        <trkpt lat="29.509006" lon="104.108834"><ele>418.0722</ele><time>2026-01-09T21:38:00.000Z</time></trkpt>
        <trkpt lat="29.509036" lon="104.108785"><ele>418.51498</ele><time>2026-01-09T21:38:07.000Z</time></trkpt>
        <trkpt lat="29.509036" lon="104.108735"><ele>417.8196</ele><time>2026-01-09T21:38:13.000Z</time></trkpt>
        <trkpt lat="29.509049" lon="104.108683"><ele>416.53384</ele><time>2026-01-09T21:38:22.000Z</time></trkpt>
        <trkpt lat="29.509061" lon="104.10863"><ele>415.40527</ele><time>2026-01-09T21:38:30.000Z</time></trkpt>
        <trkpt lat="29.509076" lon="104.108575"><ele>415.61575</ele><time>2026-01-09T21:38:36.000Z</time></trkpt>
        <trkpt lat="29.509083" lon="104.108521"><ele>415.77045</ele><time>2026-01-09T21:38:41.000Z</time></trkpt>
        <trkpt lat="29.509094" lon="104.108465"><ele>415.84534</ele><time>2026-01-09T21:38:47.000Z</time></trkpt>
        <trkpt lat="29.509124" lon="104.108412"><ele>415.88065</ele><time>2026-01-09T21:38:57.000Z</time></trkpt>
        <trkpt lat="29.509146" lon="104.10837"><ele>416.53168</ele><time>2026-01-09T21:39:03.000Z</time></trkpt>
        <trkpt lat="29.509161" lon="104.108312"><ele>417.3616</ele><time>2026-01-09T21:39:10.000Z</time></trkpt>
        <trkpt lat="29.509163" lon="104.108251"><ele>417.51828</ele><time>2026-01-09T21:39:18.000Z</time></trkpt>
        <trkpt lat="29.50917" lon="104.108199"><ele>417.53317</ele><time>2026-01-09T21:39:23.000Z</time></trkpt>
        <trkpt lat="29.509186" lon="104.108141"><ele>417.9778</ele><time>2026-01-09T21:39:30.000Z</time></trkpt>
        <trkpt lat="29.509209" lon="104.108085"><ele>416.6565</ele><time>2026-01-09T21:39:42.000Z</time></trkpt>
        <trkpt lat="29.509219" lon="104.108038"><ele>416.24988</ele><time>2026-01-09T21:39:48.000Z</time></trkpt>
        <trkpt lat="29.509219" lon="104.107978"><ele>416.05203</ele><time>2026-01-09T21:39:58.000Z</time></trkpt>
        <trkpt lat="29.509211" lon="104.107923"><ele>416.1602</ele><time>2026-01-09T21:40:18.000Z</time></trkpt>
        <trkpt lat="29.509243" lon="104.107884"><ele>414.82224</ele><time>2026-01-09T21:40:36.000Z</time></trkpt>
        <trkpt lat="29.509278" lon="104.107848"><ele>413.94086</ele><time>2026-01-09T21:40:45.000Z</time></trkpt>
        <trkpt lat="29.5093" lon="104.107817"><ele>413.76135</ele><time>2026-01-09T21:40:48.000Z</time></trkpt>
        <trkpt lat="29.509322" lon="104.107762"><ele>413.7607</ele><time>2026-01-09T21:40:52.000Z</time></trkpt>
        <trkpt lat="29.509351" lon="104.107705"><ele>414.50446</ele><time>2026-01-09T21:40:56.000Z</time></trkpt>
        <trkpt lat="29.509385" lon="104.107647"><ele>413.82965</ele><time>2026-01-09T21:41:02.000Z</time></trkpt>
        <trkpt lat="29.509383" lon="104.107599"><ele>413.27185</ele><time>2026-01-09T21:41:07.000Z</time></trkpt>
        <trkpt lat="29.509377" lon="104.107539"><ele>412.97165</ele><time>2026-01-09T21:41:15.000Z</time></trkpt>
        <trkpt lat="29.509373" lon="104.107483"><ele>412.4091</ele><time>2026-01-09T21:41:23.000Z</time></trkpt>
        <trkpt lat="29.509367" lon="104.107429"><ele>412.4872</ele><time>2026-01-09T21:41:37.000Z</time></trkpt>
        <trkpt lat="29.509354" lon="104.107372"><ele>412.5061</ele><time>2026-01-09T21:41:47.000Z</time></trkpt>
        <trkpt lat="29.509385" lon="104.107333"><ele>412.9897</ele><time>2026-01-09T21:41:54.000Z</time></trkpt>
        <trkpt lat="29.509414" lon="104.107282"><ele>413.55603</ele><time>2026-01-09T21:42:02.000Z</time></trkpt>
        <trkpt lat="29.509402" lon="104.107233"><ele>413.49295</ele><time>2026-01-09T21:42:08.000Z</time></trkpt>
        <trkpt lat="29.509386" lon="104.107177"><ele>413.45853</ele><time>2026-01-09T21:42:19.000Z</time></trkpt>
        <trkpt lat="29.509421" lon="104.107132"><ele>412.6467</ele><time>2026-01-09T21:42:31.000Z</time></trkpt>
        <trkpt lat="29.509435" lon="104.107079"><ele>410.7085</ele><time>2026-01-09T21:42:45.000Z</time></trkpt>
        <trkpt lat="29.509464" lon="104.107033"><ele>410.38425</ele><time>2026-01-09T21:43:04.000Z</time></trkpt>
        <trkpt lat="29.509459" lon="104.106991"><ele>410.8008</ele><time>2026-01-09T21:43:09.000Z</time></trkpt>
        <trkpt lat="29.509451" lon="104.106937"><ele>411.14932</ele><time>2026-01-09T21:43:14.000Z</time></trkpt>
        <trkpt lat="29.509451" lon="104.106881"><ele>411.19553</ele><time>2026-01-09T21:43:19.000Z</time></trkpt>
        <trkpt lat="29.509459" lon="104.106825"><ele>411.43765</ele><time>2026-01-09T21:43:24.000Z</time></trkpt>
        <trkpt lat="29.509485" lon="104.106762"><ele>410.54074</ele><time>2026-01-09T21:43:39.000Z</time></trkpt>
        <trkpt lat="29.509503" lon="104.106718"><ele>409.5053</ele><time>2026-01-09T21:43:47.000Z</time></trkpt>
        <trkpt lat="29.50952" lon="104.106662"><ele>408.99872</ele><time>2026-01-09T21:43:55.000Z</time></trkpt>
        <trkpt lat="29.509531" lon="104.106607"><ele>408.54147</ele><time>2026-01-09T21:44:01.000Z</time></trkpt>
        <trkpt lat="29.509536" lon="104.106551"><ele>408.24844</ele><time>2026-01-09T21:44:06.000Z</time></trkpt>
        <trkpt lat="29.509527" lon="104.106499"><ele>408.67252</ele><time>2026-01-09T21:44:10.000Z</time></trkpt>
        <trkpt lat="29.509513" lon="104.10644"><ele>408.55804</ele><time>2026-01-09T21:44:15.000Z</time></trkpt>
        <trkpt lat="29.509469" lon="104.106409"><ele>408.84857</ele><time>2026-01-09T21:44:24.000Z</time></trkpt>
        <trkpt lat="29.509443" lon="104.10636"><ele>410.25833</ele><time>2026-01-09T21:44:45.000Z</time></trkpt>
        <trkpt lat="29.509488" lon="104.106377"><ele>411.73642</ele><time>2026-01-09T21:45:07.000Z</time></trkpt>
        <trkpt lat="29.509499" lon="104.10634"><ele>411.58954</ele><time>2026-01-09T21:45:10.000Z</time></trkpt>
        <trkpt lat="29.509532" lon="104.106371"><ele>412.06134</ele><time>2026-01-09T21:45:22.000Z</time></trkpt>
        <trkpt lat="29.509532" lon="104.106314"><ele>412.13626</ele><time>2026-01-09T21:45:36.000Z</time></trkpt>
        <trkpt lat="29.509561" lon="104.106297"><ele>411.7698</ele><time>2026-01-09T21:45:39.000Z</time></trkpt>
        <trkpt lat="29.509537" lon="104.10629"><ele>410.90314</ele><time>2026-01-09T21:45:50.000Z</time></trkpt>
        <trkpt lat="29.509517" lon="104.106349"><ele>411.26913</ele><time>2026-01-09T21:45:57.000Z</time></trkpt>
        <trkpt lat="29.509551" lon="104.106316"><ele>411.5103</ele><time>2026-01-09T21:46:08.000Z</time></trkpt>
        <trkpt lat="29.509558" lon="104.106257"><ele>411.67972</ele><time>2026-01-09T21:46:15.000Z</time></trkpt>
        <trkpt lat="29.509591" lon="104.10625"><ele>411.54257</ele><time>2026-01-09T21:46:20.000Z</time></trkpt>
        <trkpt lat="29.509629" lon="104.106257"><ele>411.22116</ele><time>2026-01-09T21:46:22.000Z</time></trkpt>
        <trkpt lat="29.509615" lon="104.106234"><ele>410.03763</ele><time>2026-01-09T21:46:45.000Z</time></trkpt>
        <trkpt lat="29.509648" lon="104.106204"><ele>411.02487</ele><time>2026-01-09T21:46:53.000Z</time></trkpt>
        <trkpt lat="29.509667" lon="104.106153"><ele>411.20734</ele><time>2026-01-09T21:47:00.000Z</time></trkpt>
        <trkpt lat="29.509661" lon="104.106096"><ele>411.39743</ele><time>2026-01-09T21:47:07.000Z</time></trkpt>
        <trkpt lat="29.509665" lon="104.106057"><ele>411.52026</ele><time>2026-01-09T21:47:09.000Z</time></trkpt>
        <trkpt lat="29.509685" lon="104.105988"><ele>411.34085</ele><time>2026-01-09T21:47:17.000Z</time></trkpt>
        <trkpt lat="29.509672" lon="104.10594"><ele>410.39706</ele><time>2026-01-09T21:47:26.000Z</time></trkpt>
        <trkpt lat="29.50969" lon="104.105904"><ele>411.03918</ele><time>2026-01-09T21:47:32.000Z</time></trkpt>
        <trkpt lat="29.509686" lon="104.105847"><ele>409.93103</ele><time>2026-01-09T21:47:39.000Z</time></trkpt>
        <trkpt lat="29.509663" lon="104.105793"><ele>409.7559</ele><time>2026-01-09T21:47:45.000Z</time></trkpt>
        <trkpt lat="29.509646" lon="104.10574"><ele>409.91998</ele><time>2026-01-09T21:47:50.000Z</time></trkpt>
        <trkpt lat="29.509634" lon="104.105678"><ele>410.85193</ele><time>2026-01-09T21:47:58.000Z</time></trkpt>
        <trkpt lat="29.509624" lon="104.105628"><ele>411.7806</ele><time>2026-01-09T21:48:03.000Z</time></trkpt>
        <trkpt lat="29.509614" lon="104.105571"><ele>412.8663</ele><time>2026-01-09T21:48:10.000Z</time></trkpt>
        <trkpt lat="29.509626" lon="104.105519"><ele>413.99677</ele><time>2026-01-09T21:48:20.000Z</time></trkpt>
        <trkpt lat="29.509639" lon="104.105469"><ele>412.67618</ele><time>2026-01-09T21:48:31.000Z</time></trkpt>
        <trkpt lat="29.509641" lon="104.105413"><ele>411.8432</ele><time>2026-01-09T21:48:37.000Z</time></trkpt>
        <trkpt lat="29.509637" lon="104.105349"><ele>411.616</ele><time>2026-01-09T21:48:44.000Z</time></trkpt>
        <trkpt lat="29.509603" lon="104.105306"><ele>410.7428</ele><time>2026-01-09T21:48:52.000Z</time></trkpt>
        <trkpt lat="29.509597" lon="104.105258"><ele>411.03314</ele><time>2026-01-09T21:49:00.000Z</time></trkpt>
        <trkpt lat="29.509576" lon="104.105206"><ele>412.1706</ele><time>2026-01-09T21:49:12.000Z</time></trkpt>
        <trkpt lat="29.509589" lon="104.105162"><ele>411.58844</ele><time>2026-01-09T21:49:17.000Z</time></trkpt>
        <trkpt lat="29.509602" lon="104.105108"><ele>411.22433</ele><time>2026-01-09T21:49:21.000Z</time></trkpt>
        <trkpt lat="29.509595" lon="104.105041"><ele>410.74152</ele><time>2026-01-09T21:49:34.000Z</time></trkpt>
        <trkpt lat="29.509579" lon="104.105008"><ele>410.43915</ele><time>2026-01-09T21:49:37.000Z</time></trkpt>
        <trkpt lat="29.509559" lon="104.104954"><ele>410.14517</ele><time>2026-01-09T21:49:42.000Z</time></trkpt>
        <trkpt lat="29.509536" lon="104.10489"><ele>409.60922</ele><time>2026-01-09T21:49:50.000Z</time></trkpt>
        <trkpt lat="29.509523" lon="104.104846"><ele>409.4458</ele><time>2026-01-09T21:49:54.000Z</time></trkpt>
        <trkpt lat="29.509499" lon="104.104809"><ele>409.26486</ele><time>2026-01-09T21:49:57.000Z</time></trkpt>
        <trkpt lat="29.509468" lon="104.104746"><ele>408.1345</ele><time>2026-01-09T21:50:03.000Z</time></trkpt>
        <trkpt lat="29.509478" lon="104.104695"><ele>406.9909</ele><time>2026-01-09T21:50:08.000Z</time></trkpt>
        <trkpt lat="29.509485" lon="104.104631"><ele>405.6909</ele><time>2026-01-09T21:50:20.000Z</time></trkpt>
        <trkpt lat="29.509482" lon="104.104578"><ele>406.696</ele><time>2026-01-09T21:50:25.000Z</time></trkpt>
        <trkpt lat="29.509465" lon="104.10452"><ele>406.30676</ele><time>2026-01-09T21:50:31.000Z</time></trkpt>
        <trkpt lat="29.509457" lon="104.104472"><ele>405.81387</ele><time>2026-01-09T21:50:35.000Z</time></trkpt>
        <trkpt lat="29.509452" lon="104.104411"><ele>406.05832</ele><time>2026-01-09T21:50:41.000Z</time></trkpt>
        <trkpt lat="29.509447" lon="104.104359"><ele>405.17697</ele><time>2026-01-09T21:50:47.000Z</time></trkpt>
        <trkpt lat="29.509454" lon="104.104307"><ele>404.39148</ele><time>2026-01-09T21:50:52.000Z</time></trkpt>
        <trkpt lat="29.509449" lon="104.104251"><ele>403.66003</ele><time>2026-01-09T21:50:58.000Z</time></trkpt>
        <trkpt lat="29.50944" lon="104.10418"><ele>403.03152</ele><time>2026-01-09T21:51:06.000Z</time></trkpt>
        <trkpt lat="29.509445" lon="104.10413"><ele>402.4768</ele><time>2026-01-09T21:51:11.000Z</time></trkpt>
        <trkpt lat="29.509429" lon="104.10408"><ele>402.2467</ele><time>2026-01-09T21:51:17.000Z</time></trkpt>
        <trkpt lat="29.509409" lon="104.10402"><ele>403.01285</ele><time>2026-01-09T21:51:25.000Z</time></trkpt>
        <trkpt lat="29.509386" lon="104.10397"><ele>402.506</ele><time>2026-01-09T21:51:30.000Z</time></trkpt>
        <trkpt lat="29.509374" lon="104.103915"><ele>402.81345</ele><time>2026-01-09T21:51:34.000Z</time></trkpt>
        <trkpt lat="29.50937" lon="104.103858"><ele>403.80145</ele><time>2026-01-09T21:51:38.000Z</time></trkpt>
        <trkpt lat="29.509369" lon="104.103798"><ele>404.34448</ele><time>2026-01-09T21:51:42.000Z</time></trkpt>
        <trkpt lat="29.509395" lon="104.103737"><ele>403.12225</ele><time>2026-01-09T21:52:02.000Z</time></trkpt>
        <trkpt lat="29.509389" lon="104.103698"><ele>402.38986</ele><time>2026-01-09T21:52:08.000Z</time></trkpt>
        <trkpt lat="29.509383" lon="104.103638"><ele>401.8043</ele><time>2026-01-09T21:52:13.000Z</time></trkpt>
        <trkpt lat="29.509362" lon="104.103575"><ele>401.88635</ele><time>2026-01-09T21:52:20.000Z</time></trkpt>
        <trkpt lat="29.509338" lon="104.103521"><ele>401.76138</ele><time>2026-01-09T21:52:26.000Z</time></trkpt>
        <trkpt lat="29.50933" lon="104.103462"><ele>401.4706</ele><time>2026-01-09T21:52:31.000Z</time></trkpt>
        <trkpt lat="29.509339" lon="104.103392"><ele>401.20062</ele><time>2026-01-09T21:52:42.000Z</time></trkpt>
        <trkpt lat="29.509344" lon="104.103336"><ele>401.06454</ele><time>2026-01-09T21:52:48.000Z</time></trkpt>
        <trkpt lat="29.509357" lon="104.103284"><ele>400.17267</ele><time>2026-01-09T21:52:53.000Z</time></trkpt>
        <trkpt lat="29.509372" lon="104.103223"><ele>399.547</ele><time>2026-01-09T21:53:09.000Z</time></trkpt>
        <trkpt lat="29.509353" lon="104.103177"><ele>400.07193</ele><time>2026-01-09T21:53:18.000Z</time></trkpt>
        <trkpt lat="29.509324" lon="104.103138"><ele>400.28992</ele><time>2026-01-09T21:53:23.000Z</time></trkpt>
        <trkpt lat="29.509296" lon="104.103088"><ele>400.46027</ele><time>2026-01-09T21:53:28.000Z</time></trkpt>
        <trkpt lat="29.509264" lon="104.103034"><ele>400.64038</ele><time>2026-01-09T21:53:33.000Z</time></trkpt>
        <trkpt lat="29.50925" lon="104.102976"><ele>401.1625</ele><time>2026-01-09T21:53:38.000Z</time></trkpt>
        <trkpt lat="29.509218" lon="104.102939"><ele>401.6702</ele><time>2026-01-09T21:53:43.000Z</time></trkpt>
        <trkpt lat="29.509175" lon="104.102915"><ele>402.03784</ele><time>2026-01-09T21:53:49.000Z</time></trkpt>
        <trkpt lat="29.509132" lon="104.102903"><ele>402.0608</ele><time>2026-01-09T21:53:53.000Z</time></trkpt>
        <trkpt lat="29.509093" lon="104.102862"><ele>402.5923</ele><time>2026-01-09T21:53:59.000Z</time></trkpt>
        <trkpt lat="29.509056" lon="104.102832"><ele>403.17502</ele><time>2026-01-09T21:54:04.000Z</time></trkpt>
        <trkpt lat="29.509003" lon="104.102819"><ele>404.226</ele><time>2026-01-09T21:54:13.000Z</time></trkpt>
        <trkpt lat="29.508971" lon="104.102801"><ele>404.86948</ele><time>2026-01-09T21:54:17.000Z</time></trkpt>
        <trkpt lat="29.50892" lon="104.102757"><ele>404.90378</ele><time>2026-01-09T21:54:26.000Z</time></trkpt>
        <trkpt lat="29.508884" lon="104.10272"><ele>405.13217</ele><time>2026-01-09T21:54:31.000Z</time></trkpt>
        <trkpt lat="29.508842" lon="104.102696"><ele>405.36105</ele><time>2026-01-09T21:54:35.000Z</time></trkpt>
        <trkpt lat="29.508792" lon="104.102684"><ele>406.12323</ele><time>2026-01-09T21:54:39.000Z</time></trkpt>
        <trkpt lat="29.508742" lon="104.10269"><ele>406.7472</ele><time>2026-01-09T21:54:43.000Z</time></trkpt>
        <trkpt lat="29.508681" lon="104.102712"><ele>407.83112</ele><time>2026-01-09T21:54:51.000Z</time></trkpt>
        <trkpt lat="29.508635" lon="104.102739"><ele>409.5</ele><time>2026-01-09T21:54:57.000Z</time></trkpt>
        <trkpt lat="29.508584" lon="104.102761"><ele>409.74545</ele><time>2026-01-09T21:55:03.000Z</time></trkpt>
        <trkpt lat="29.50853" lon="104.102776"><ele>409.13248</ele><time>2026-01-09T21:55:10.000Z</time></trkpt>
        <trkpt lat="29.508499" lon="104.102802"><ele>408.651</ele><time>2026-01-09T21:55:13.000Z</time></trkpt>
        <trkpt lat="29.508463" lon="104.102841"><ele>408.46542</ele><time>2026-01-09T21:55:17.000Z</time></trkpt>
        <trkpt lat="29.50842" lon="104.102883"><ele>409.8252</ele><time>2026-01-09T21:55:24.000Z</time></trkpt>
        <trkpt lat="29.508382" lon="104.102934"><ele>412.51428</ele><time>2026-01-09T21:55:46.000Z</time></trkpt>
        <trkpt lat="29.508423" lon="104.102957"><ele>410.9481</ele><time>2026-01-09T21:56:02.000Z</time></trkpt>
        <trkpt lat="29.508409" lon="104.103007"><ele>411.3224</ele><time>2026-01-09T21:56:12.000Z</time></trkpt>
        <trkpt lat="29.508377" lon="104.103064"><ele>410.34735</ele><time>2026-01-09T21:56:20.000Z</time></trkpt>
        <trkpt lat="29.508336" lon="104.103075"><ele>409.7415</ele><time>2026-01-09T21:56:23.000Z</time></trkpt>
        <trkpt lat="29.508288" lon="104.10311"><ele>409.29178</ele><time>2026-01-09T21:56:28.000Z</time></trkpt>
        <trkpt lat="29.508234" lon="104.103144"><ele>409.5408</ele><time>2026-01-09T21:56:35.000Z</time></trkpt>
        <trkpt lat="29.5082" lon="104.103184"><ele>409.68457</ele><time>2026-01-09T21:56:40.000Z</time></trkpt>
        <trkpt lat="29.508171" lon="104.103216"><ele>409.85416</ele><time>2026-01-09T21:56:43.000Z</time></trkpt>
        <trkpt lat="29.508125" lon="104.103265"><ele>410.5669</ele><time>2026-01-09T21:56:51.000Z</time></trkpt>
        <trkpt lat="29.5081" lon="104.103307"><ele>410.45932</ele><time>2026-01-09T21:56:55.000Z</time></trkpt>
        <trkpt lat="29.508045" lon="104.103336"><ele>410.40503</ele><time>2026-01-09T21:57:07.000Z</time></trkpt>
        <trkpt lat="29.508029" lon="104.103377"><ele>409.1583</ele><time>2026-01-09T21:57:13.000Z</time></trkpt>
        <trkpt lat="29.507981" lon="104.103405"><ele>408.6766</ele><time>2026-01-09T21:57:18.000Z</time></trkpt>
        <trkpt lat="29.507923" lon="104.10343"><ele>408.8189</ele><time>2026-01-09T21:57:23.000Z</time></trkpt>
        <trkpt lat="29.507879" lon="104.10347"><ele>408.8914</ele><time>2026-01-09T21:57:35.000Z</time></trkpt>
        <trkpt lat="29.507845" lon="104.103497"><ele>409.97598</ele><time>2026-01-09T21:57:44.000Z</time></trkpt>
        <trkpt lat="29.507806" lon="104.103522"><ele>409.43994</ele><time>2026-01-09T21:57:49.000Z</time></trkpt>
        <trkpt lat="29.50776" lon="104.103552"><ele>409.0846</ele><time>2026-01-09T21:57:54.000Z</time></trkpt>
        <trkpt lat="29.507713" lon="104.10355"><ele>409.05762</ele><time>2026-01-09T21:57:59.000Z</time></trkpt>
        <trkpt lat="29.507658" lon="104.103528"><ele>408.16754</ele><time>2026-01-09T21:58:14.000Z</time></trkpt>
        <trkpt lat="29.507619" lon="104.103542"><ele>408.2873</ele><time>2026-01-09T21:58:20.000Z</time></trkpt>
        <trkpt lat="29.507565" lon="104.103567"><ele>408.85962</ele><time>2026-01-09T21:58:26.000Z</time></trkpt>
        <trkpt lat="29.507508" lon="104.103576"><ele>409.38016</ele><time>2026-01-09T21:58:36.000Z</time></trkpt>
        <trkpt lat="29.507465" lon="104.103585"><ele>409.382</ele><time>2026-01-09T21:58:42.000Z</time></trkpt>
        <trkpt lat="29.507422" lon="104.10362"><ele>410.71033</ele><time>2026-01-09T21:58:55.000Z</time></trkpt>
        <trkpt lat="29.507374" lon="104.103614"><ele>411.7568</ele><time>2026-01-09T21:59:11.000Z</time></trkpt>
        <trkpt lat="29.50733" lon="104.103618"><ele>411.28662</ele><time>2026-01-09T21:59:22.000Z</time></trkpt>
        <trkpt lat="29.507284" lon="104.10362"><ele>411.74695</ele><time>2026-01-09T21:59:36.000Z</time></trkpt>
        <trkpt lat="29.507243" lon="104.103618"><ele>412.5735</ele><time>2026-01-09T21:59:43.000Z</time></trkpt>
        <trkpt lat="29.507198" lon="104.103618"><ele>413.02097</ele><time>2026-01-09T21:59:48.000Z</time></trkpt>
        <trkpt lat="29.507142" lon="104.103588"><ele>413.00708</ele><time>2026-01-09T21:59:58.000Z</time></trkpt>
        <trkpt lat="29.507113" lon="104.103555"><ele>413.75323</ele><time>2026-01-09T22:00:03.000Z</time></trkpt>
        <trkpt lat="29.507064" lon="104.10355"><ele>414.57706</ele><time>2026-01-09T22:00:16.000Z</time></trkpt>
        <trkpt lat="29.507034" lon="104.103588"><ele>416.001</ele><time>2026-01-09T22:00:22.000Z</time></trkpt>
        <trkpt lat="29.506986" lon="104.103611"><ele>416.4064</ele><time>2026-01-09T22:00:26.000Z</time></trkpt>
        <trkpt lat="29.506924" lon="104.103608"><ele>417.89938</ele><time>2026-01-09T22:00:32.000Z</time></trkpt>
        <trkpt lat="29.506908" lon="104.103583"><ele>418.14218</ele><time>2026-01-09T22:00:33.000Z</time></trkpt>
        <trkpt lat="29.506852" lon="104.103532"><ele>418.77103</ele><time>2026-01-09T22:00:43.000Z</time></trkpt>
        <trkpt lat="29.506865" lon="104.103576"><ele>418.62433</ele><time>2026-01-09T22:01:03.000Z</time></trkpt>
        <trkpt lat="29.506905" lon="104.103539"><ele>417.04535</ele><time>2026-01-09T22:01:43.000Z</time></trkpt>
        <trkpt lat="29.506863" lon="104.103517"><ele>416.33054</ele><time>2026-01-09T22:02:22.000Z</time></trkpt>
        <trkpt lat="29.506904" lon="104.103542"><ele>415.53415</ele><time>2026-01-09T22:04:18.000Z</time></trkpt>
        <trkpt lat="29.506919" lon="104.103492"><ele>414.62057</ele><time>2026-01-09T22:04:27.000Z</time></trkpt>
        <trkpt lat="29.506918" lon="104.103429"><ele>413.2632</ele><time>2026-01-09T22:04:40.000Z</time></trkpt>
        <trkpt lat="29.506899" lon="104.103381"><ele>413.45642</ele><time>2026-01-09T22:05:01.000Z</time></trkpt>
        <trkpt lat="29.506885" lon="104.103334"><ele>413.13528</ele><time>2026-01-09T22:05:10.000Z</time></trkpt>
        <trkpt lat="29.506927" lon="104.103299"><ele>412.8583</ele><time>2026-01-09T22:05:18.000Z</time></trkpt>
        <trkpt lat="29.506978" lon="104.103287"><ele>412.3475</ele><time>2026-01-09T22:05:28.000Z</time></trkpt>
        <trkpt lat="29.506946" lon="104.103255"><ele>411.70654</ele><time>2026-01-09T22:05:45.000Z</time></trkpt>
        <trkpt lat="29.506947" lon="104.103199"><ele>410.14862</ele><time>2026-01-09T22:06:01.000Z</time></trkpt>
        <trkpt lat="29.50696" lon="104.103147"><ele>409.3942</ele><time>2026-01-09T22:06:06.000Z</time></trkpt>
        <trkpt lat="29.506947" lon="104.103083"><ele>408.7606</ele><time>2026-01-09T22:06:12.000Z</time></trkpt>
        <trkpt lat="29.506918" lon="104.103035"><ele>409.12363</ele><time>2026-01-09T22:06:16.000Z</time></trkpt>
        <trkpt lat="29.506849" lon="104.103035"><ele>410.95056</ele><time>2026-01-09T22:06:26.000Z</time></trkpt>
        <trkpt lat="29.506825" lon="104.102991"><ele>411.85287</ele><time>2026-01-09T22:06:34.000Z</time></trkpt>
        <trkpt lat="29.506822" lon="104.102938"><ele>411.8837</ele><time>2026-01-09T22:06:37.000Z</time></trkpt>
        <trkpt lat="29.506806" lon="104.102873"><ele>411.69363</ele><time>2026-01-09T22:06:42.000Z</time></trkpt>
        <trkpt lat="29.506835" lon="104.102821"><ele>409.9015</ele><time>2026-01-09T22:07:02.000Z</time></trkpt>
        <trkpt lat="29.506873" lon="104.102802"><ele>410.05325</ele><time>2026-01-09T22:07:07.000Z</time></trkpt>
        <trkpt lat="29.506916" lon="104.102787"><ele>409.68344</ele><time>2026-01-09T22:07:11.000Z</time></trkpt>
        <trkpt lat="29.506965" lon="104.102776"><ele>409.12045</ele><time>2026-01-09T22:07:14.000Z</time></trkpt>
        <trkpt lat="29.507031" lon="104.102783"><ele>408.06897</ele><time>2026-01-09T22:07:29.000Z</time></trkpt>
        <trkpt lat="29.507034" lon="104.102739"><ele>407.87238</ele><time>2026-01-09T22:07:37.000Z</time></trkpt>
        <trkpt lat="29.507014" lon="104.102692"><ele>408.59686</ele><time>2026-01-09T22:07:40.000Z</time></trkpt>
        <trkpt lat="29.506984" lon="104.102625"><ele>408.50238</ele><time>2026-01-09T22:07:46.000Z</time></trkpt>
        <trkpt lat="29.506971" lon="104.102565"><ele>408.18353</ele><time>2026-01-09T22:07:51.000Z</time></trkpt>
        <trkpt lat="29.506945" lon="104.102507"><ele>407.6912</ele><time>2026-01-09T22:07:59.000Z</time></trkpt>
        <trkpt lat="29.506916" lon="104.102471"><ele>407.4695</ele><time>2026-01-09T22:08:05.000Z</time></trkpt>
        <trkpt lat="29.506886" lon="104.102433"><ele>407.26703</ele><time>2026-01-09T22:08:09.000Z</time></trkpt>
        <trkpt lat="29.506868" lon="104.102382"><ele>407.0907</ele><time>2026-01-09T22:08:14.000Z</time></trkpt>
        <trkpt lat="29.506848" lon="104.10233"><ele>407.75217</ele><time>2026-01-09T22:08:20.000Z</time></trkpt>
        <trkpt lat="29.506837" lon="104.102268"><ele>407.6654</ele><time>2026-01-09T22:08:27.000Z</time></trkpt>
        <trkpt lat="29.506836" lon="104.102211"><ele>408.44717</ele><time>2026-01-09T22:08:46.000Z</time></trkpt>
        <trkpt lat="29.506821" lon="104.102166"><ele>408.72156</ele><time>2026-01-09T22:08:55.000Z</time></trkpt>
        <trkpt lat="29.506802" lon="104.10212"><ele>407.68738</ele><time>2026-01-09T22:09:00.000Z</time></trkpt>
        <trkpt lat="29.506781" lon="104.102063"><ele>407.24597</ele><time>2026-01-09T22:09:08.000Z</time></trkpt>
        <trkpt lat="29.50676" lon="104.102014"><ele>407.5229</ele><time>2026-01-09T22:09:17.000Z</time></trkpt>
        <trkpt lat="29.506767" lon="104.101958"><ele>408.2024</ele><time>2026-01-09T22:09:25.000Z</time></trkpt>
        <trkpt lat="29.506775" lon="104.101903"><ele>408.39926</ele><time>2026-01-09T22:09:30.000Z</time></trkpt>
        <trkpt lat="29.506756" lon="104.101838"><ele>408.0418</ele><time>2026-01-09T22:09:36.000Z</time></trkpt>
        <trkpt lat="29.506739" lon="104.101779"><ele>407.10522</ele><time>2026-01-09T22:09:41.000Z</time></trkpt>
        <trkpt lat="29.506715" lon="104.101726"><ele>406.77145</ele><time>2026-01-09T22:09:47.000Z</time></trkpt>
        <trkpt lat="29.506703" lon="104.101667"><ele>406.12802</ele><time>2026-01-09T22:09:56.000Z</time></trkpt>
        <trkpt lat="29.506695" lon="104.101621"><ele>406.1357</ele><time>2026-01-09T22:10:02.000Z</time></trkpt>
        <trkpt lat="29.506676" lon="104.101568"><ele>405.28168</ele><time>2026-01-09T22:10:09.000Z</time></trkpt>
        <trkpt lat="29.506639" lon="104.101546"><ele>405.51303</ele><time>2026-01-09T22:10:13.000Z</time></trkpt>
        <trkpt lat="29.506594" lon="104.101501"><ele>404.99048</ele><time>2026-01-09T22:10:20.000Z</time></trkpt>
        <trkpt lat="29.506551" lon="104.101459"><ele>404.4092</ele><time>2026-01-09T22:10:33.000Z</time></trkpt>
        <trkpt lat="29.506552" lon="104.101411"><ele>404.63675</ele><time>2026-01-09T22:10:39.000Z</time></trkpt>
        <trkpt lat="29.50657" lon="104.101356"><ele>406.24695</ele><time>2026-01-09T22:10:45.000Z</time></trkpt>
        <trkpt lat="29.506595" lon="104.101298"><ele>406.40814</ele><time>2026-01-09T22:11:13.000Z</time></trkpt>
        <trkpt lat="29.506608" lon="104.101256"><ele>407.0981</ele><time>2026-01-09T22:11:22.000Z</time></trkpt>
        <trkpt lat="29.506616" lon="104.101192"><ele>409.1861</ele><time>2026-01-09T22:11:32.000Z</time></trkpt>
        <trkpt lat="29.506584" lon="104.101151"><ele>409.27136</ele><time>2026-01-09T22:11:43.000Z</time></trkpt>
        <trkpt lat="29.506535" lon="104.101128"><ele>407.62125</ele><time>2026-01-09T22:11:54.000Z</time></trkpt>
        <trkpt lat="29.506495" lon="104.101093"><ele>404.52203</ele><time>2026-01-09T22:12:05.000Z</time></trkpt>
        <trkpt lat="29.506462" lon="104.101056"><ele>403.42676</ele><time>2026-01-09T22:12:13.000Z</time></trkpt>
        <trkpt lat="29.506425" lon="104.101094"><ele>399.19955</ele><time>2026-01-09T22:12:39.000Z</time></trkpt>
        <trkpt lat="29.506387" lon="104.101096"><ele>399.1072</ele><time>2026-01-09T22:12:45.000Z</time></trkpt>
        <trkpt lat="29.506347" lon="104.101057"><ele>399.7177</ele><time>2026-01-09T22:12:50.000Z</time></trkpt>
        <trkpt lat="29.506289" lon="104.101026"><ele>401.20557</ele><time>2026-01-09T22:13:25.000Z</time></trkpt>
        <trkpt lat="29.506248" lon="104.101007"><ele>400.64917</ele><time>2026-01-09T22:13:37.000Z</time></trkpt>
        <trkpt lat="29.506287" lon="104.100987"><ele>401.575</ele><time>2026-01-09T22:14:12.000Z</time></trkpt>
        <trkpt lat="29.506295" lon="104.100937"><ele>403.33728</ele><time>2026-01-09T22:14:28.000Z</time></trkpt>
        <trkpt lat="29.506277" lon="104.101003"><ele>403.74057</ele><time>2026-01-09T22:14:37.000Z</time></trkpt>
        <trkpt lat="29.506266" lon="104.100968"><ele>403.19974</ele><time>2026-01-09T22:14:39.000Z</time></trkpt>
        <trkpt lat="29.506223" lon="104.100907"><ele>402.47644</ele><time>2026-01-09T22:14:48.000Z</time></trkpt>
        <trkpt lat="29.506183" lon="104.100869"><ele>401.72366</ele><time>2026-01-09T22:14:54.000Z</time></trkpt>
        <trkpt lat="29.506154" lon="104.100824"><ele>400.9358</ele><time>2026-01-09T22:15:05.000Z</time></trkpt>
        <trkpt lat="29.506139" lon="104.100779"><ele>399.86224</ele><time>2026-01-09T22:15:11.000Z</time></trkpt>
        <trkpt lat="29.506112" lon="104.100729"><ele>399.96564</ele><time>2026-01-09T22:15:17.000Z</time></trkpt>
        <trkpt lat="29.506087" lon="104.100679"><ele>399.79782</ele><time>2026-01-09T22:15:23.000Z</time></trkpt>
        <trkpt lat="29.506068" lon="104.100626"><ele>399.17673</ele><time>2026-01-09T22:15:29.000Z</time></trkpt>
        <trkpt lat="29.506057" lon="104.100565"><ele>399.6093</ele><time>2026-01-09T22:15:36.000Z</time></trkpt>
        <trkpt lat="29.506036" lon="104.100512"><ele>399.7459</ele><time>2026-01-09T22:15:45.000Z</time></trkpt>
        <trkpt lat="29.506012" lon="104.100463"><ele>400.3225</ele><time>2026-01-09T22:15:52.000Z</time></trkpt>
        <trkpt lat="29.50599" lon="104.100417"><ele>400.92252</ele><time>2026-01-09T22:15:58.000Z</time></trkpt>
        <trkpt lat="29.505949" lon="104.100379"><ele>401.73984</ele><time>2026-01-09T22:16:14.000Z</time></trkpt>
        <trkpt lat="29.50592" lon="104.100335"><ele>401.76132</ele><time>2026-01-09T22:16:27.000Z</time></trkpt>
        <trkpt lat="29.505898" lon="104.100285"><ele>402.2053</ele><time>2026-01-09T22:16:35.000Z</time></trkpt>
        <trkpt lat="29.505858" lon="104.100249"><ele>401.99466</ele><time>2026-01-09T22:16:42.000Z</time></trkpt>
        <trkpt lat="29.505833" lon="104.10021"><ele>402.5953</ele><time>2026-01-09T22:16:46.000Z</time></trkpt>
        <trkpt lat="29.505798" lon="104.100153"><ele>402.7972</ele><time>2026-01-09T22:16:56.000Z</time></trkpt>
        <trkpt lat="29.505779" lon="104.100099"><ele>403.0213</ele><time>2026-01-09T22:17:04.000Z</time></trkpt>
        <trkpt lat="29.505758" lon="104.10005"><ele>404.0001</ele><time>2026-01-09T22:17:14.000Z</time></trkpt>
        <trkpt lat="29.50572" lon="104.10002"><ele>403.8687</ele><time>2026-01-09T22:17:22.000Z</time></trkpt>
        <trkpt lat="29.505687" lon="104.099982"><ele>403.54486</ele><time>2026-01-09T22:17:29.000Z</time></trkpt>
        <trkpt lat="29.505667" lon="104.099931"><ele>404.34396</ele><time>2026-01-09T22:17:36.000Z</time></trkpt>
        <trkpt lat="29.505639" lon="104.099889"><ele>404.13297</ele><time>2026-01-09T22:17:42.000Z</time></trkpt>
        <trkpt lat="29.505627" lon="104.099841"><ele>405.12827</ele><time>2026-01-09T22:17:47.000Z</time></trkpt>
        <trkpt lat="29.505633" lon="104.09978"><ele>406.5374</ele><time>2026-01-09T22:17:55.000Z</time></trkpt>
        <trkpt lat="29.505647" lon="104.099728"><ele>407.3309</ele><time>2026-01-09T22:18:06.000Z</time></trkpt>
        <trkpt lat="29.505652" lon="104.099667"><ele>407.8704</ele><time>2026-01-09T22:18:17.000Z</time></trkpt>
        <trkpt lat="29.505676" lon="104.099621"><ele>408.93066</ele><time>2026-01-09T22:18:28.000Z</time></trkpt>
        <trkpt lat="29.505683" lon="104.099568"><ele>408.69424</ele><time>2026-01-09T22:18:34.000Z</time></trkpt>
        <trkpt lat="29.505685" lon="104.099514"><ele>408.13327</ele><time>2026-01-09T22:18:39.000Z</time></trkpt>
        <trkpt lat="29.505674" lon="104.099459"><ele>408</ele><time>2026-01-09T22:18:44.000Z</time></trkpt>
        <trkpt lat="29.505659" lon="104.099394"><ele>408.1739</ele><time>2026-01-09T22:18:50.000Z</time></trkpt>
        <trkpt lat="29.505658" lon="104.099339"><ele>407.73883</ele><time>2026-01-09T22:18:56.000Z</time></trkpt>
        <trkpt lat="29.505657" lon="104.099282"><ele>406.2026</ele><time>2026-01-09T22:19:05.000Z</time></trkpt>
        <trkpt lat="29.505649" lon="104.099229"><ele>405.94962</ele><time>2026-01-09T22:19:13.000Z</time></trkpt>
        <trkpt lat="29.505638" lon="104.099177"><ele>405.55807</ele><time>2026-01-09T22:19:18.000Z</time></trkpt>
        <trkpt lat="29.505633" lon="104.099118"><ele>405.01382</ele><time>2026-01-09T22:19:23.000Z</time></trkpt>
        <trkpt lat="29.505604" lon="104.099074"><ele>404.16373</ele><time>2026-01-09T22:19:28.000Z</time></trkpt>
        <trkpt lat="29.505575" lon="104.099025"><ele>403.71155</ele><time>2026-01-09T22:19:34.000Z</time></trkpt>
        <trkpt lat="29.505546" lon="104.098979"><ele>402.8698</ele><time>2026-01-09T22:19:42.000Z</time></trkpt>
        <trkpt lat="29.505556" lon="104.098924"><ele>402.54288</ele><time>2026-01-09T22:19:50.000Z</time></trkpt>
        <trkpt lat="29.505571" lon="104.098871"><ele>402.4013</ele><time>2026-01-09T22:19:55.000Z</time></trkpt>
        <trkpt lat="29.505566" lon="104.098813"><ele>400.9485</ele><time>2026-01-09T22:20:03.000Z</time></trkpt>
        <trkpt lat="29.505529" lon="104.098778"><ele>401.23874</ele><time>2026-01-09T22:20:14.000Z</time></trkpt>
        <trkpt lat="29.505511" lon="104.098731"><ele>402.05112</ele><time>2026-01-09T22:20:21.000Z</time></trkpt>
        <trkpt lat="29.505482" lon="104.098692"><ele>401.70804</ele><time>2026-01-09T22:20:27.000Z</time></trkpt>
        <trkpt lat="29.505472" lon="104.098641"><ele>401.63782</ele><time>2026-01-09T22:20:32.000Z</time></trkpt>
        <trkpt lat="29.505463" lon="104.098574"><ele>402.2013</ele><time>2026-01-09T22:20:39.000Z</time></trkpt>
        <trkpt lat="29.505445" lon="104.098521"><ele>402.1101</ele><time>2026-01-09T22:20:45.000Z</time></trkpt>
        <trkpt lat="29.505445" lon="104.098469"><ele>403.2787</ele><time>2026-01-09T22:20:50.000Z</time></trkpt>
        <trkpt lat="29.505468" lon="104.098419"><ele>403.27625</ele><time>2026-01-09T22:20:56.000Z</time></trkpt>
        <trkpt lat="29.505507" lon="104.098374"><ele>403.44565</ele><time>2026-01-09T22:21:03.000Z</time></trkpt>
        <trkpt lat="29.505555" lon="104.09836"><ele>404.54977</ele><time>2026-01-09T22:21:10.000Z</time></trkpt>
        <trkpt lat="29.505595" lon="104.098388"><ele>404.57806</ele><time>2026-01-09T22:21:15.000Z</time></trkpt>
        <trkpt lat="29.505635" lon="104.098433"><ele>403.8727</ele><time>2026-01-09T22:21:20.000Z</time></trkpt>
        <trkpt lat="29.505684" lon="104.098461"><ele>403.28607</ele><time>2026-01-09T22:21:24.000Z</time></trkpt>
        <trkpt lat="29.505746" lon="104.098484"><ele>402.32724</ele><time>2026-01-09T22:21:37.000Z</time></trkpt>
        <trkpt lat="29.505779" lon="104.098513"><ele>402.44098</ele><time>2026-01-09T22:21:47.000Z</time></trkpt>
        <trkpt lat="29.505816" lon="104.098549"><ele>402.53287</ele><time>2026-01-09T22:21:54.000Z</time></trkpt>
        <trkpt lat="29.505862" lon="104.098575"><ele>402.1181</ele><time>2026-01-09T22:22:10.000Z</time></trkpt>
        <trkpt lat="29.505902" lon="104.098578"><ele>402.05374</ele><time>2026-01-09T22:22:17.000Z</time></trkpt>
        <trkpt lat="29.505954" lon="104.098595"><ele>402.21432</ele><time>2026-01-09T22:22:26.000Z</time></trkpt>
        <trkpt lat="29.506005" lon="104.098601"><ele>402.5149</ele><time>2026-01-09T22:22:33.000Z</time></trkpt>
        <trkpt lat="29.506049" lon="104.098586"><ele>403.49304</ele><time>2026-01-09T22:22:39.000Z</time></trkpt>
        <trkpt lat="29.506102" lon="104.098565"><ele>403.5041</ele><time>2026-01-09T22:22:45.000Z</time></trkpt>
        <trkpt lat="29.506146" lon="104.098585"><ele>403.86234</ele><time>2026-01-09T22:22:53.000Z</time></trkpt>
        <trkpt lat="29.506191" lon="104.0986"><ele>403.75797</ele><time>2026-01-09T22:23:00.000Z</time></trkpt>
        <trkpt lat="29.506231" lon="104.098591"><ele>403.61298</ele><time>2026-01-09T22:23:04.000Z</time></trkpt>
        <trkpt lat="29.506281" lon="104.098565"><ele>404.48624</ele><time>2026-01-09T22:23:11.000Z</time></trkpt>
        <trkpt lat="29.506327" lon="104.098566"><ele>404.40222</ele><time>2026-01-09T22:23:18.000Z</time></trkpt>
        <trkpt lat="29.506378" lon="104.098579"><ele>405.3316</ele><time>2026-01-09T22:23:25.000Z</time></trkpt>
        <trkpt lat="29.506432" lon="104.098575"><ele>405.36536</ele><time>2026-01-09T22:23:31.000Z</time></trkpt>
        <trkpt lat="29.506479" lon="104.098559"><ele>404.2746</ele><time>2026-01-09T22:23:36.000Z</time></trkpt>
        <trkpt lat="29.506528" lon="104.098557"><ele>404.1214</ele><time>2026-01-09T22:23:42.000Z</time></trkpt>
        <trkpt lat="29.50657" lon="104.098584"><ele>404.81793</ele><time>2026-01-09T22:23:54.000Z</time></trkpt>
        <trkpt lat="29.506605" lon="104.098574"><ele>405.0736</ele><time>2026-01-09T22:23:58.000Z</time></trkpt>
        <trkpt lat="29.506654" lon="104.098548"><ele>405.69434</ele><time>2026-01-09T22:24:03.000Z</time></trkpt>
        <trkpt lat="29.506714" lon="104.098529"><ele>405.82642</ele><time>2026-01-09T22:24:12.000Z</time></trkpt>
        <trkpt lat="29.506756" lon="104.098522"><ele>405.0195</ele><time>2026-01-09T22:24:18.000Z</time></trkpt>
        <trkpt lat="29.506801" lon="104.098521"><ele>404.7971</ele><time>2026-01-09T22:24:24.000Z</time></trkpt>
        <trkpt lat="29.506848" lon="104.098514"><ele>404.8089</ele><time>2026-01-09T22:24:30.000Z</time></trkpt>
        <trkpt lat="29.506904" lon="104.098495"><ele>404.23096</ele><time>2026-01-09T22:24:39.000Z</time></trkpt>
        <trkpt lat="29.506942" lon="104.098488"><ele>403.4079</ele><time>2026-01-09T22:24:43.000Z</time></trkpt>
        <trkpt lat="29.506995" lon="104.098475"><ele>403.29767</ele><time>2026-01-09T22:24:50.000Z</time></trkpt>
        <trkpt lat="29.507042" lon="104.098463"><ele>403.16678</ele><time>2026-01-09T22:24:57.000Z</time></trkpt>
        <trkpt lat="29.507087" lon="104.098448"><ele>402.6684</ele><time>2026-01-09T22:25:03.000Z</time></trkpt>
        <trkpt lat="29.507133" lon="104.098444"><ele>402.13565</ele><time>2026-01-09T22:25:09.000Z</time></trkpt>
        <trkpt lat="29.50718" lon="104.098445"><ele>402.55002</ele><time>2026-01-09T22:25:15.000Z</time></trkpt>
        <trkpt lat="29.507231" lon="104.098437"><ele>401.73233</ele><time>2026-01-09T22:25:25.000Z</time></trkpt>
        <trkpt lat="29.507274" lon="104.098427"><ele>401.22675</ele><time>2026-01-09T22:25:31.000Z</time></trkpt>
        <trkpt lat="29.507324" lon="104.098414"><ele>400.88885</ele><time>2026-01-09T22:25:36.000Z</time></trkpt>
        <trkpt lat="29.507381" lon="104.098412"><ele>399.2173</ele><time>2026-01-09T22:25:44.000Z</time></trkpt>
        <trkpt lat="29.507432" lon="104.09843"><ele>399.2385</ele><time>2026-01-09T22:25:52.000Z</time></trkpt>
        <trkpt lat="29.507478" lon="104.098442"><ele>400.01642</ele><time>2026-01-09T22:25:59.000Z</time></trkpt>
        <trkpt lat="29.507524" lon="104.098432"><ele>399.5117</ele><time>2026-01-09T22:26:07.000Z</time></trkpt>
        <trkpt lat="29.507563" lon="104.0984"><ele>397.7832</ele><time>2026-01-09T22:26:19.000Z</time></trkpt>
        <trkpt lat="29.507607" lon="104.098386"><ele>397.36157</ele><time>2026-01-09T22:26:27.000Z</time></trkpt>
        <trkpt lat="29.50764" lon="104.098343"><ele>397.17392</ele><time>2026-01-09T22:26:43.000Z</time></trkpt>
        <trkpt lat="29.507665" lon="104.098316"><ele>396.6113</ele><time>2026-01-09T22:26:47.000Z</time></trkpt>
        <trkpt lat="29.507712" lon="104.098271"><ele>395.50247</ele><time>2026-01-09T22:26:58.000Z</time></trkpt>
        <trkpt lat="29.507749" lon="104.098246"><ele>394.05173</ele><time>2026-01-09T22:27:03.000Z</time></trkpt>
        <trkpt lat="29.507802" lon="104.098228"><ele>391.51965</ele><time>2026-01-09T22:27:13.000Z</time></trkpt>
        <trkpt lat="29.507831" lon="104.0982"><ele>391.24292</ele><time>2026-01-09T22:27:17.000Z</time></trkpt>
        <trkpt lat="29.507875" lon="104.098165"><ele>391.64023</ele><time>2026-01-09T22:27:24.000Z</time></trkpt>
        <trkpt lat="29.507914" lon="104.098158"><ele>392.48413</ele><time>2026-01-09T22:27:28.000Z</time></trkpt>
        <trkpt lat="29.507971" lon="104.098154"><ele>394.30838</ele><time>2026-01-09T22:27:34.000Z</time></trkpt>
        <trkpt lat="29.508016" lon="104.098126"><ele>395.66714</ele><time>2026-01-09T22:27:40.000Z</time></trkpt>
        <trkpt lat="29.508054" lon="104.098086"><ele>396.32367</ele><time>2026-01-09T22:27:46.000Z</time></trkpt>
        <trkpt lat="29.508085" lon="104.098026"><ele>396.3387</ele><time>2026-01-09T22:27:53.000Z</time></trkpt>
        <trkpt lat="29.508111" lon="104.097976"><ele>395.6383</ele><time>2026-01-09T22:27:58.000Z</time></trkpt>
        <trkpt lat="29.50815" lon="104.097935"><ele>394.90045</ele><time>2026-01-09T22:28:03.000Z</time></trkpt>
        <trkpt lat="29.508201" lon="104.097924"><ele>393.798</ele><time>2026-01-09T22:28:08.000Z</time></trkpt>
        <trkpt lat="29.50824" lon="104.097963"><ele>393.9676</ele><time>2026-01-09T22:28:15.000Z</time></trkpt>
        <trkpt lat="29.50827" lon="104.098022"><ele>394.4602</ele><time>2026-01-09T22:28:27.000Z</time></trkpt>
        <trkpt lat="29.508313" lon="104.098001"><ele>397.55008</ele><time>2026-01-09T22:28:38.000Z</time></trkpt>
        <trkpt lat="29.508354" lon="104.09797"><ele>395.05618</ele><time>2026-01-09T22:28:43.000Z</time></trkpt>
        <trkpt lat="29.508386" lon="104.097929"><ele>392.37076</ele><time>2026-01-09T22:28:48.000Z</time></trkpt>
        <trkpt lat="29.508428" lon="104.097893"><ele>391.1769</ele><time>2026-01-09T22:28:53.000Z</time></trkpt>
        <trkpt lat="29.508474" lon="104.097867"><ele>390.25198</ele><time>2026-01-09T22:28:59.000Z</time></trkpt>
        <trkpt lat="29.508517" lon="104.097857"><ele>389.88165</ele><time>2026-01-09T22:29:04.000Z</time></trkpt>
        <trkpt lat="29.508532" lon="104.09781"><ele>390.52286</ele><time>2026-01-09T22:29:10.000Z</time></trkpt>
        <trkpt lat="29.508535" lon="104.097755"><ele>391.0356</ele><time>2026-01-09T22:29:16.000Z</time></trkpt>
        <trkpt lat="29.508544" lon="104.097695"><ele>391.56677</ele><time>2026-01-09T22:29:32.000Z</time></trkpt>
        <trkpt lat="29.50858" lon="104.097666"><ele>390.67502</ele><time>2026-01-09T22:29:47.000Z</time></trkpt>
        <trkpt lat="29.50861" lon="104.097627"><ele>389.98505</ele><time>2026-01-09T22:29:56.000Z</time></trkpt>
        <trkpt lat="29.508629" lon="104.097579"><ele>389.2786</ele><time>2026-01-09T22:30:02.000Z</time></trkpt>
        <trkpt lat="29.508646" lon="104.097528"><ele>389.47888</ele><time>2026-01-09T22:30:08.000Z</time></trkpt>
        <trkpt lat="29.508681" lon="104.097485"><ele>389.68542</ele><time>2026-01-09T22:30:19.000Z</time></trkpt>
        <trkpt lat="29.508707" lon="104.097448"><ele>391.08975</ele><time>2026-01-09T22:30:26.000Z</time></trkpt>
        <trkpt lat="29.508744" lon="104.097416"><ele>391.60117</ele><time>2026-01-09T22:30:31.000Z</time></trkpt>
        <trkpt lat="29.50878" lon="104.097369"><ele>394.2416</ele><time>2026-01-09T22:30:37.000Z</time></trkpt>
        <trkpt lat="29.50881" lon="104.097325"><ele>395.5446</ele><time>2026-01-09T22:30:43.000Z</time></trkpt>
        <trkpt lat="29.508851" lon="104.097322"><ele>395.6871</ele><time>2026-01-09T22:30:48.000Z</time></trkpt>
        <trkpt lat="29.508879" lon="104.097286"><ele>397.47437</ele><time>2026-01-09T22:30:55.000Z</time></trkpt>
        <trkpt lat="29.508907" lon="104.097236"><ele>398.47614</ele><time>2026-01-09T22:31:11.000Z</time></trkpt>
        <trkpt lat="29.508952" lon="104.097263"><ele>398.5607</ele><time>2026-01-09T22:33:06.000Z</time></trkpt>
        <trkpt lat="29.508973" lon="104.097307"><ele>399.74512</ele><time>2026-01-09T22:33:15.000Z</time></trkpt>
        <trkpt lat="29.508936" lon="104.097339"><ele>401.42117</ele><time>2026-01-09T22:33:40.000Z</time></trkpt>
        <trkpt lat="29.508892" lon="104.097323"><ele>400.93015</ele><time>2026-01-09T22:33:46.000Z</time></trkpt>
        <trkpt lat="29.508842" lon="104.097299"><ele>399.8657</ele><time>2026-01-09T22:33:54.000Z</time></trkpt>
        <trkpt lat="29.508796" lon="104.097309"><ele>397.58203</ele><time>2026-01-09T22:34:03.000Z</time></trkpt>
        <trkpt lat="29.50875" lon="104.097342"><ele>396.27606</ele><time>2026-01-09T22:34:18.000Z</time></trkpt>
        <trkpt lat="29.508708" lon="104.097353"><ele>394.90436</ele><time>2026-01-09T22:34:26.000Z</time></trkpt>
        <trkpt lat="29.508657" lon="104.097351"><ele>393.2173</ele><time>2026-01-09T22:34:35.000Z</time></trkpt>
        <trkpt lat="29.50861" lon="104.097334"><ele>391.71674</ele><time>2026-01-09T22:34:43.000Z</time></trkpt>
        <trkpt lat="29.508563" lon="104.097348"><ele>389.46942</ele><time>2026-01-09T22:34:51.000Z</time></trkpt>
        <trkpt lat="29.508525" lon="104.097378"><ele>387.4873</ele><time>2026-01-09T22:34:58.000Z</time></trkpt>
        <trkpt lat="29.508483" lon="104.097412"><ele>386.17627</ele><time>2026-01-09T22:35:07.000Z</time></trkpt>
        <trkpt lat="29.508445" lon="104.097445"><ele>385.4898</ele><time>2026-01-09T22:35:13.000Z</time></trkpt>
        <trkpt lat="29.508405" lon="104.097476"><ele>384.75555</ele><time>2026-01-09T22:35:19.000Z</time></trkpt>
        <trkpt lat="29.508358" lon="104.097471"><ele>383.434</ele><time>2026-01-09T22:35:25.000Z</time></trkpt>
        <trkpt lat="29.508313" lon="104.097446"><ele>383.18536</ele><time>2026-01-09T22:35:32.000Z</time></trkpt>
        <trkpt lat="29.508274" lon="104.097409"><ele>383.87497</ele><time>2026-01-09T22:35:37.000Z</time></trkpt>
        <trkpt lat="29.508223" lon="104.09738"><ele>384.1231</ele><time>2026-01-09T22:35:44.000Z</time></trkpt>
        <trkpt lat="29.508199" lon="104.097333"><ele>383.737</ele><time>2026-01-09T22:35:53.000Z</time></trkpt>
        <trkpt lat="29.508154" lon="104.097326"><ele>384.31445</ele><time>2026-01-09T22:36:05.000Z</time></trkpt>
        <trkpt lat="29.508111" lon="104.097354"><ele>384.0438</ele><time>2026-01-09T22:36:15.000Z</time></trkpt>
        <trkpt lat="29.508067" lon="104.097374"><ele>383.5206</ele><time>2026-01-09T22:36:23.000Z</time></trkpt>
        <trkpt lat="29.508011" lon="104.097377"><ele>383.71042</ele><time>2026-01-09T22:36:35.000Z</time></trkpt>
        <trkpt lat="29.507972" lon="104.097406"><ele>384.58936</ele><time>2026-01-09T22:36:44.000Z</time></trkpt>
        <trkpt lat="29.507926" lon="104.097385"><ele>384.0677</ele><time>2026-01-09T22:36:59.000Z</time></trkpt>
        <trkpt lat="29.507897" lon="104.097344"><ele>383.96106</ele><time>2026-01-09T22:37:04.000Z</time></trkpt>
        <trkpt lat="29.507853" lon="104.097297"><ele>384.88943</ele><time>2026-01-09T22:37:09.000Z</time></trkpt>
        <trkpt lat="29.507798" lon="104.097271"><ele>386.00836</ele><time>2026-01-09T22:37:15.000Z</time></trkpt>
        <trkpt lat="29.507744" lon="104.097258"><ele>388.2543</ele><time>2026-01-09T22:37:22.000Z</time></trkpt>
        <trkpt lat="29.507696" lon="104.09725"><ele>389.29648</ele><time>2026-01-09T22:37:30.000Z</time></trkpt>
        <trkpt lat="29.507651" lon="104.09725"><ele>390.0644</ele><time>2026-01-09T22:37:37.000Z</time></trkpt>
        <trkpt lat="29.507599" lon="104.097246"><ele>389.8678</ele><time>2026-01-09T22:37:46.000Z</time></trkpt>
        <trkpt lat="29.507544" lon="104.097256"><ele>387.33752</ele><time>2026-01-09T22:37:53.000Z</time></trkpt>
        <trkpt lat="29.507497" lon="104.09724"><ele>388.9243</ele><time>2026-01-09T22:38:04.000Z</time></trkpt>
        <trkpt lat="29.507466" lon="104.097264"><ele>389.6882</ele><time>2026-01-09T22:38:10.000Z</time></trkpt>
        <trkpt lat="29.507422" lon="104.09729"><ele>389.862</ele><time>2026-01-09T22:38:18.000Z</time></trkpt>
        <trkpt lat="29.507372" lon="104.097305"><ele>390.42532</ele><time>2026-01-09T22:38:31.000Z</time></trkpt>
        <trkpt lat="29.507326" lon="104.097306"><ele>390.84256</ele><time>2026-01-09T22:38:38.000Z</time></trkpt>
        <trkpt lat="29.507273" lon="104.097319"><ele>390.81192</ele><time>2026-01-09T22:38:46.000Z</time></trkpt>
        <trkpt lat="29.507229" lon="104.097334"><ele>390.63037</ele><time>2026-01-09T22:38:52.000Z</time></trkpt>
        <trkpt lat="29.507187" lon="104.097316"><ele>390.5073</ele><time>2026-01-09T22:38:58.000Z</time></trkpt>
        <trkpt lat="29.50714" lon="104.097304"><ele>390.8998</ele><time>2026-01-09T22:39:07.000Z</time></trkpt>
        <trkpt lat="29.507093" lon="104.097308"><ele>391.85126</ele><time>2026-01-09T22:39:15.000Z</time></trkpt>
        <trkpt lat="29.507044" lon="104.097307"><ele>392.17596</ele><time>2026-01-09T22:39:23.000Z</time></trkpt>
        <trkpt lat="29.506996" lon="104.097299"><ele>392.27896</ele><time>2026-01-09T22:39:31.000Z</time></trkpt>
        <trkpt lat="29.506955" lon="104.097284"><ele>392.36105</ele><time>2026-01-09T22:39:37.000Z</time></trkpt>
        <trkpt lat="29.506905" lon="104.097262"><ele>392.65735</ele><time>2026-01-09T22:39:43.000Z</time></trkpt>
        <trkpt lat="29.506856" lon="104.097265"><ele>392.55603</ele><time>2026-01-09T22:39:49.000Z</time></trkpt>
        <trkpt lat="29.506807" lon="104.09728"><ele>391.8441</ele><time>2026-01-09T22:39:57.000Z</time></trkpt>
        <trkpt lat="29.506767" lon="104.097279"><ele>391.43277</ele><time>2026-01-09T22:40:02.000Z</time></trkpt>
        <trkpt lat="29.506732" lon="104.097241"><ele>390.76892</ele><time>2026-01-09T22:40:08.000Z</time></trkpt>
        <trkpt lat="29.506691" lon="104.097202"><ele>389.78598</ele><time>2026-01-09T22:40:17.000Z</time></trkpt>
        <trkpt lat="29.506651" lon="104.097187"><ele>389.6402</ele><time>2026-01-09T22:40:23.000Z</time></trkpt>
        <trkpt lat="29.506606" lon="104.097171"><ele>390.23096</ele><time>2026-01-09T22:40:30.000Z</time></trkpt>
        <trkpt lat="29.506562" lon="104.097156"><ele>390.6946</ele><time>2026-01-09T22:40:38.000Z</time></trkpt>
        <trkpt lat="29.506521" lon="104.09713"><ele>391.18427</ele><time>2026-01-09T22:40:46.000Z</time></trkpt>
        <trkpt lat="29.506476" lon="104.097103"><ele>391.57867</ele><time>2026-01-09T22:40:55.000Z</time></trkpt>
        <trkpt lat="29.506431" lon="104.097084"><ele>391.78357</ele><time>2026-01-09T22:41:04.000Z</time></trkpt>
        <trkpt lat="29.506395" lon="104.097062"><ele>391.89642</ele><time>2026-01-09T22:41:09.000Z</time></trkpt>
        <trkpt lat="29.50636" lon="104.09702"><ele>391.47153</ele><time>2026-01-09T22:41:14.000Z</time></trkpt>
        <trkpt lat="29.506336" lon="104.096956"><ele>391.86667</ele><time>2026-01-09T22:41:26.000Z</time></trkpt>
        <trkpt lat="29.506313" lon="104.096908"><ele>391.73267</ele><time>2026-01-09T22:41:35.000Z</time></trkpt>
        <trkpt lat="29.506286" lon="104.096864"><ele>392.53088</ele><time>2026-01-09T22:41:41.000Z</time></trkpt>
        <trkpt lat="29.506252" lon="104.096821"><ele>393.417</ele><time>2026-01-09T22:41:50.000Z</time></trkpt>
        <trkpt lat="29.506224" lon="104.096778"><ele>393.7089</ele><time>2026-01-09T22:41:58.000Z</time></trkpt>
        <trkpt lat="29.506189" lon="104.09674"><ele>393.82584</ele><time>2026-01-09T22:42:05.000Z</time></trkpt>
        <trkpt lat="29.506148" lon="104.096706"><ele>394.35077</ele><time>2026-01-09T22:42:27.000Z</time></trkpt>
        <trkpt lat="29.506124" lon="104.096677"><ele>394.22046</ele><time>2026-01-09T22:42:33.000Z</time></trkpt>
        <trkpt lat="29.506087" lon="104.09663"><ele>394.30148</ele><time>2026-01-09T22:42:41.000Z</time></trkpt>
        <trkpt lat="29.506051" lon="104.096587"><ele>394.84436</ele><time>2026-01-09T22:42:53.000Z</time></trkpt>
        <trkpt lat="29.506004" lon="104.096555"><ele>395.15744</ele><time>2026-01-09T22:43:11.000Z</time></trkpt>
        <trkpt lat="29.505965" lon="104.096529"><ele>395.9226</ele><time>2026-01-09T22:43:21.000Z</time></trkpt>
        <trkpt lat="29.505947" lon="104.09648"><ele>395.95975</ele><time>2026-01-09T22:43:31.000Z</time></trkpt>
        <trkpt lat="29.505927" lon="104.096434"><ele>395.18713</ele><time>2026-01-09T22:43:37.000Z</time></trkpt>
        <trkpt lat="29.505911" lon="104.096382"><ele>394.12387</ele><time>2026-01-09T22:43:46.000Z</time></trkpt>
        <trkpt lat="29.505894" lon="104.096324"><ele>393.96844</ele><time>2026-01-09T22:43:54.000Z</time></trkpt>
        <trkpt lat="29.505891" lon="104.096268"><ele>393.827</ele><time>2026-01-09T22:44:00.000Z</time></trkpt>
        <trkpt lat="29.505874" lon="104.096215"><ele>393.97296</ele><time>2026-01-09T22:44:08.000Z</time></trkpt>
        <trkpt lat="29.505847" lon="104.096167"><ele>393.38025</ele><time>2026-01-09T22:44:14.000Z</time></trkpt>
        <trkpt lat="29.505838" lon="104.096101"><ele>392.43707</ele><time>2026-01-09T22:44:20.000Z</time></trkpt>
        <trkpt lat="29.50583" lon="104.096042"><ele>392.03638</ele><time>2026-01-09T22:44:26.000Z</time></trkpt>
        <trkpt lat="29.505826" lon="104.095983"><ele>392.85617</ele><time>2026-01-09T22:44:32.000Z</time></trkpt>
        <trkpt lat="29.505821" lon="104.095926"><ele>392.84424</ele><time>2026-01-09T22:44:40.000Z</time></trkpt>
        <trkpt lat="29.505809" lon="104.095859"><ele>392.6224</ele><time>2026-01-09T22:44:49.000Z</time></trkpt>
        <trkpt lat="29.505797" lon="104.095808"><ele>392.29034</ele><time>2026-01-09T22:44:54.000Z</time></trkpt>
        <trkpt lat="29.505773" lon="104.095759"><ele>392.5803</ele><time>2026-01-09T22:44:59.000Z</time></trkpt>
        <trkpt lat="29.505767" lon="104.095698"><ele>392.8884</ele><time>2026-01-09T22:45:05.000Z</time></trkpt>
        <trkpt lat="29.50578" lon="104.095642"><ele>392.98663</ele><time>2026-01-09T22:45:12.000Z</time></trkpt>
        <trkpt lat="29.505782" lon="104.095584"><ele>392.72427</ele><time>2026-01-09T22:45:22.000Z</time></trkpt>
        <trkpt lat="29.50578" lon="104.095533"><ele>391.98175</ele><time>2026-01-09T22:45:28.000Z</time></trkpt>
        <trkpt lat="29.505793" lon="104.095489"><ele>391.91473</ele><time>2026-01-09T22:45:32.000Z</time></trkpt>
        <trkpt lat="29.505769" lon="104.095439"><ele>393.70538</ele><time>2026-01-09T22:46:19.000Z</time></trkpt>
        <trkpt lat="29.50576" lon="104.09541"><ele>393.3648</ele><time>2026-01-09T22:46:23.000Z</time></trkpt>
        <trkpt lat="29.505756" lon="104.095356"><ele>393.40652</ele><time>2026-01-09T22:46:27.000Z</time></trkpt>
        <trkpt lat="29.505768" lon="104.095287"><ele>394.03867</ele><time>2026-01-09T22:46:32.000Z</time></trkpt>
        <trkpt lat="29.505779" lon="104.095223"><ele>394.31647</ele><time>2026-01-09T22:46:37.000Z</time></trkpt>
        <trkpt lat="29.505801" lon="104.095167"><ele>393.15533</ele><time>2026-01-09T22:46:44.000Z</time></trkpt>
        <trkpt lat="29.505815" lon="104.095116"><ele>393.5907</ele><time>2026-01-09T22:46:50.000Z</time></trkpt>
        <trkpt lat="29.50583" lon="104.095064"><ele>393.92087</ele><time>2026-01-09T22:46:55.000Z</time></trkpt>
        <trkpt lat="29.505861" lon="104.09502"><ele>392.79767</ele><time>2026-01-09T22:47:01.000Z</time></trkpt>
        <trkpt lat="29.505888" lon="104.094966"><ele>391.69843</ele><time>2026-01-09T22:47:10.000Z</time></trkpt>
        <trkpt lat="29.505883" lon="104.094915"><ele>392.03568</ele><time>2026-01-09T22:47:17.000Z</time></trkpt>
        <trkpt lat="29.505892" lon="104.094855"><ele>392.0368</ele><time>2026-01-09T22:47:26.000Z</time></trkpt>
        <trkpt lat="29.505887" lon="104.094801"><ele>392.54196</ele><time>2026-01-09T22:47:33.000Z</time></trkpt>
        <trkpt lat="29.505878" lon="104.094742"><ele>392.89194</ele><time>2026-01-09T22:47:40.000Z</time></trkpt>
        <trkpt lat="29.505867" lon="104.094689"><ele>393.4794</ele><time>2026-01-09T22:47:47.000Z</time></trkpt>
        <trkpt lat="29.505855" lon="104.094634"><ele>394.13626</ele><time>2026-01-09T22:47:55.000Z</time></trkpt>
        <trkpt lat="29.505833" lon="104.094577"><ele>394.09158</ele><time>2026-01-09T22:48:05.000Z</time></trkpt>
        <trkpt lat="29.505833" lon="104.094523"><ele>393.16736</ele><time>2026-01-09T22:48:11.000Z</time></trkpt>
        <trkpt lat="29.505852" lon="104.094474"><ele>392.4734</ele><time>2026-01-09T22:48:16.000Z</time></trkpt>
        <trkpt lat="29.505884" lon="104.094425"><ele>391.61838</ele><time>2026-01-09T22:48:22.000Z</time></trkpt>
        <trkpt lat="29.50591" lon="104.094379"><ele>390.75253</ele><time>2026-01-09T22:48:28.000Z</time></trkpt>
        <trkpt lat="29.505926" lon="104.094326"><ele>390.58203</ele><time>2026-01-09T22:48:35.000Z</time></trkpt>
        <trkpt lat="29.505925" lon="104.09427"><ele>391.01056</ele><time>2026-01-09T22:48:42.000Z</time></trkpt>
        <trkpt lat="29.50592" lon="104.094217"><ele>391.74316</ele><time>2026-01-09T22:48:48.000Z</time></trkpt>
        <trkpt lat="29.505921" lon="104.094159"><ele>392.70148</ele><time>2026-01-09T22:48:55.000Z</time></trkpt>
        <trkpt lat="29.505913" lon="104.094097"><ele>393.86688</ele><time>2026-01-09T22:49:06.000Z</time></trkpt>
        <trkpt lat="29.505899" lon="104.094051"><ele>394.1862</ele><time>2026-01-09T22:49:14.000Z</time></trkpt>
        <trkpt lat="29.505905" lon="104.093992"><ele>393.31766</ele><time>2026-01-09T22:49:22.000Z</time></trkpt>
        <trkpt lat="29.505906" lon="104.093936"><ele>392.4973</ele><time>2026-01-09T22:49:29.000Z</time></trkpt>
        <trkpt lat="29.505915" lon="104.093883"><ele>392.70078</ele><time>2026-01-09T22:49:35.000Z</time></trkpt>
        <trkpt lat="29.505928" lon="104.093825"><ele>392.6929</ele><time>2026-01-09T22:49:44.000Z</time></trkpt>
        <trkpt lat="29.505915" lon="104.093776"><ele>393.1222</ele><time>2026-01-09T22:49:51.000Z</time></trkpt>
        <trkpt lat="29.5059" lon="104.09372"><ele>392.5816</ele><time>2026-01-09T22:50:00.000Z</time></trkpt>
        <trkpt lat="29.505894" lon="104.093666"><ele>392.14056</ele><time>2026-01-09T22:50:12.000Z</time></trkpt>
        <trkpt lat="29.505872" lon="104.093627"><ele>392.031</ele><time>2026-01-09T22:50:18.000Z</time></trkpt>
        <trkpt lat="29.505849" lon="104.09358"><ele>391.38693</ele><time>2026-01-09T22:50:24.000Z</time></trkpt>
        <trkpt lat="29.505827" lon="104.093532"><ele>390.5342</ele><time>2026-01-09T22:50:29.000Z</time></trkpt>
        <trkpt lat="29.505802" lon="104.09348"><ele>389.62613</ele><time>2026-01-09T22:50:34.000Z</time></trkpt>
        <trkpt lat="29.505778" lon="104.09343"><ele>389.40015</ele><time>2026-01-09T22:50:39.000Z</time></trkpt>
        <trkpt lat="29.505758" lon="104.093378"><ele>389.4157</ele><time>2026-01-09T22:50:45.000Z</time></trkpt>
        <trkpt lat="29.50574" lon="104.093321"><ele>389.47934</ele><time>2026-01-09T22:50:53.000Z</time></trkpt>
        <trkpt lat="29.505726" lon="104.093271"><ele>388.28177</ele><time>2026-01-09T22:51:02.000Z</time></trkpt>
        <trkpt lat="29.505746" lon="104.093219"><ele>388.07916</ele><time>2026-01-09T22:51:11.000Z</time></trkpt>
        <trkpt lat="29.505721" lon="104.093173"><ele>387.26865</ele><time>2026-01-09T22:51:27.000Z</time></trkpt>
        <trkpt lat="29.505681" lon="104.093158"><ele>386.66098</ele><time>2026-01-09T22:51:34.000Z</time></trkpt>
        <trkpt lat="29.505643" lon="104.093126"><ele>385.9902</ele><time>2026-01-09T22:51:41.000Z</time></trkpt>
        <trkpt lat="29.505607" lon="104.093093"><ele>385.4911</ele><time>2026-01-09T22:51:46.000Z</time></trkpt>
        <trkpt lat="29.505548" lon="104.093079"><ele>385.04895</ele><time>2026-01-09T22:51:53.000Z</time></trkpt>
        <trkpt lat="29.50549" lon="104.093076"><ele>385.39954</ele><time>2026-01-09T22:52:00.000Z</time></trkpt>
        <trkpt lat="29.505448" lon="104.09305"><ele>385.8593</ele><time>2026-01-09T22:52:08.000Z</time></trkpt>
        <trkpt lat="29.50541" lon="104.093027"><ele>385.10474</ele><time>2026-01-09T22:52:13.000Z</time></trkpt>
        <trkpt lat="29.505367" lon="104.093001"><ele>384.80682</ele><time>2026-01-09T22:52:17.000Z</time></trkpt>
        <trkpt lat="29.505324" lon="104.092959"><ele>384.64432</ele><time>2026-01-09T22:52:22.000Z</time></trkpt>
        <trkpt lat="29.505284" lon="104.092925"><ele>384.10767</ele><time>2026-01-09T22:52:27.000Z</time></trkpt>
        <trkpt lat="29.505235" lon="104.092898"><ele>383.83875</ele><time>2026-01-09T22:52:33.000Z</time></trkpt>
        <trkpt lat="29.505185" lon="104.092896"><ele>383.91595</ele><time>2026-01-09T22:52:38.000Z</time></trkpt>
        <trkpt lat="29.505133" lon="104.092919"><ele>383.5913</ele><time>2026-01-09T22:52:43.000Z</time></trkpt>
        <trkpt lat="29.505091" lon="104.09295"><ele>383.5171</ele><time>2026-01-09T22:52:47.000Z</time></trkpt>
        <trkpt lat="29.505039" lon="104.092974"><ele>384.32874</ele><time>2026-01-09T22:52:53.000Z</time></trkpt>
        <trkpt lat="29.504993" lon="104.093003"><ele>385.08362</ele><time>2026-01-09T22:52:59.000Z</time></trkpt>
        <trkpt lat="29.504948" lon="104.093019"><ele>386.20697</ele><time>2026-01-09T22:53:04.000Z</time></trkpt>
        <trkpt lat="29.504909" lon="104.093046"><ele>386.8954</ele><time>2026-01-09T22:53:09.000Z</time></trkpt>
        <trkpt lat="29.504873" lon="104.093089"><ele>387.69882</ele><time>2026-01-09T22:53:17.000Z</time></trkpt>
        <trkpt lat="29.504843" lon="104.09312"><ele>387.98416</ele><time>2026-01-09T22:53:22.000Z</time></trkpt>
        <trkpt lat="29.5048" lon="104.093149"><ele>389.0248</ele><time>2026-01-09T22:53:30.000Z</time></trkpt>
        <trkpt lat="29.50477" lon="104.093198"><ele>389.70837</ele><time>2026-01-09T22:53:44.000Z</time></trkpt>
        <trkpt lat="29.504744" lon="104.093235"><ele>389.26553</ele><time>2026-01-09T22:53:50.000Z</time></trkpt>
        <trkpt lat="29.504726" lon="104.093283"><ele>389.42386</ele><time>2026-01-09T22:53:55.000Z</time></trkpt>
        <trkpt lat="29.504697" lon="104.093341"><ele>390.20074</ele><time>2026-01-09T22:54:08.000Z</time></trkpt>
        <trkpt lat="29.504683" lon="104.093393"><ele>390.5297</ele><time>2026-01-09T22:54:15.000Z</time></trkpt>
        <trkpt lat="29.504661" lon="104.093447"><ele>390.1807</ele><time>2026-01-09T22:54:21.000Z</time></trkpt>
        <trkpt lat="29.504648" lon="104.093504"><ele>389.68106</ele><time>2026-01-09T22:54:26.000Z</time></trkpt>
        <trkpt lat="29.504624" lon="104.093558"><ele>388.57056</ele><time>2026-01-09T22:54:31.000Z</time></trkpt>
        <trkpt lat="29.504608" lon="104.093605"><ele>387.91046</ele><time>2026-01-09T22:54:35.000Z</time></trkpt>
        <trkpt lat="29.504601" lon="104.093662"><ele>387.67047</ele><time>2026-01-09T22:54:40.000Z</time></trkpt>
        <trkpt lat="29.504596" lon="104.093719"><ele>387.22427</ele><time>2026-01-09T22:54:45.000Z</time></trkpt>
        <trkpt lat="29.504586" lon="104.093773"><ele>386.9803</ele><time>2026-01-09T22:54:49.000Z</time></trkpt>
        <trkpt lat="29.504586" lon="104.093833"><ele>386.78397</ele><time>2026-01-09T22:54:55.000Z</time></trkpt>
        <trkpt lat="29.5046" lon="104.093891"><ele>387.25314</ele><time>2026-01-09T22:55:22.000Z</time></trkpt>
        <trkpt lat="29.504608" lon="104.09394"><ele>387.99704</ele><time>2026-01-09T22:55:29.000Z</time></trkpt>
        <trkpt lat="29.504621" lon="104.093999"><ele>388.73663</ele><time>2026-01-09T22:55:34.000Z</time></trkpt>
        <trkpt lat="29.504639" lon="104.094062"><ele>388.7922</ele><time>2026-01-09T22:55:41.000Z</time></trkpt>
        <trkpt lat="29.504667" lon="104.094104"><ele>389.37067</ele><time>2026-01-09T22:55:48.000Z</time></trkpt>
        <trkpt lat="29.504671" lon="104.094161"><ele>388.96796</ele><time>2026-01-09T22:56:03.000Z</time></trkpt>
        <trkpt lat="29.504687" lon="104.09421"><ele>389.0511</ele><time>2026-01-09T22:56:11.000Z</time></trkpt>
        <trkpt lat="29.504695" lon="104.094265"><ele>389.38306</ele><time>2026-01-09T22:56:17.000Z</time></trkpt>
        <trkpt lat="29.50466" lon="104.094314"><ele>387.67688</ele><time>2026-01-09T22:56:34.000Z</time></trkpt>
        <trkpt lat="29.504644" lon="104.094365"><ele>386.40335</ele><time>2026-01-09T22:56:42.000Z</time></trkpt>
        <trkpt lat="29.50464" lon="104.094414"><ele>385.5821</ele><time>2026-01-09T22:56:46.000Z</time></trkpt>
        <trkpt lat="29.504643" lon="104.094469"><ele>385.0876</ele><time>2026-01-09T22:56:50.000Z</time></trkpt>
        <trkpt lat="29.504641" lon="104.094535"><ele>384.8799</ele><time>2026-01-09T22:56:55.000Z</time></trkpt>
        <trkpt lat="29.504648" lon="104.094595"><ele>384.93283</ele><time>2026-01-09T22:57:00.000Z</time></trkpt>
        <trkpt lat="29.504652" lon="104.094647"><ele>384.6773</ele><time>2026-01-09T22:57:04.000Z</time></trkpt>
        <trkpt lat="29.504675" lon="104.094692"><ele>385.06625</ele><time>2026-01-09T22:57:08.000Z</time></trkpt>
        <trkpt lat="29.504699" lon="104.094743"><ele>386.56665</ele><time>2026-01-09T22:57:13.000Z</time></trkpt>
        <trkpt lat="29.50471" lon="104.094802"><ele>386.7871</ele><time>2026-01-09T22:57:24.000Z</time></trkpt>
        <trkpt lat="29.504715" lon="104.094846"><ele>386.95883</ele><time>2026-01-09T22:57:29.000Z</time></trkpt>
        <trkpt lat="29.504722" lon="104.094901"><ele>388.25443</ele><time>2026-01-09T22:57:34.000Z</time></trkpt>
        <trkpt lat="29.504739" lon="104.094964"><ele>389.954</ele><time>2026-01-09T22:57:40.000Z</time></trkpt>
        <trkpt lat="29.504752" lon="104.095018"><ele>391.401</ele><time>2026-01-09T22:57:45.000Z</time></trkpt>
        <trkpt lat="29.504759" lon="104.095067"><ele>392.1371</ele><time>2026-01-09T22:57:49.000Z</time></trkpt>
        <trkpt lat="29.504758" lon="104.095125"><ele>393.57428</ele><time>2026-01-09T22:57:54.000Z</time></trkpt>
        <trkpt lat="29.504766" lon="104.095186"><ele>395.2086</ele><time>2026-01-09T22:57:59.000Z</time></trkpt>
        <trkpt lat="29.504763" lon="104.095246"><ele>397.0211</ele><time>2026-01-09T22:58:04.000Z</time></trkpt>
        <trkpt lat="29.50475" lon="104.095296"><ele>397.69943</ele><time>2026-01-09T22:58:08.000Z</time></trkpt>
        <trkpt lat="29.504725" lon="104.095349"><ele>398.01672</ele><time>2026-01-09T22:58:14.000Z</time></trkpt>
        <trkpt lat="29.504702" lon="104.095401"><ele>398.13058</ele><time>2026-01-09T22:58:21.000Z</time></trkpt>
        <trkpt lat="29.504694" lon="104.095452"><ele>397.97192</ele><time>2026-01-09T22:58:26.000Z</time></trkpt>
        <trkpt lat="29.5047" lon="104.095502"><ele>398.42313</ele><time>2026-01-09T22:58:30.000Z</time></trkpt>
        <trkpt lat="29.504705" lon="104.095559"><ele>398.9526</ele><time>2026-01-09T22:58:34.000Z</time></trkpt>
        <trkpt lat="29.504709" lon="104.095615"><ele>399.58304</ele><time>2026-01-09T22:58:38.000Z</time></trkpt>
        <trkpt lat="29.504691" lon="104.095669"><ele>398.865</ele><time>2026-01-09T22:58:43.000Z</time></trkpt>
        <trkpt lat="29.504677" lon="104.095719"><ele>396.08264</ele><time>2026-01-09T22:58:48.000Z</time></trkpt>
        <trkpt lat="29.504659" lon="104.095769"><ele>393.4081</ele><time>2026-01-09T22:58:53.000Z</time></trkpt>
        <trkpt lat="29.504648" lon="104.095816"><ele>390.31024</ele><time>2026-01-09T22:58:57.000Z</time></trkpt>
        <trkpt lat="29.504647" lon="104.095871"><ele>386.9858</ele><time>2026-01-09T22:59:02.000Z</time></trkpt>
        <trkpt lat="29.50465" lon="104.095936"><ele>385.52783</ele><time>2026-01-09T22:59:08.000Z</time></trkpt>
        <trkpt lat="29.504655" lon="104.095993"><ele>386.0983</ele><time>2026-01-09T22:59:13.000Z</time></trkpt>
        <trkpt lat="29.504669" lon="104.096062"><ele>387.10422</ele><time>2026-01-09T22:59:20.000Z</time></trkpt>
        <trkpt lat="29.504671" lon="104.096109"><ele>387.749</ele><time>2026-01-09T22:59:24.000Z</time></trkpt>
        <trkpt lat="29.504671" lon="104.09617"><ele>388.58005</ele><time>2026-01-09T22:59:28.000Z</time></trkpt>
        <trkpt lat="29.504671" lon="104.096227"><ele>388.64233</ele><time>2026-01-09T22:59:31.000Z</time></trkpt>
        <trkpt lat="29.504673" lon="104.096295"><ele>389.29056</ele><time>2026-01-09T22:59:35.000Z</time></trkpt>
        <trkpt lat="29.504667" lon="104.096358"><ele>389.65134</ele><time>2026-01-09T22:59:39.000Z</time></trkpt>
        <trkpt lat="29.504656" lon="104.096414"><ele>390.01578</ele><time>2026-01-09T22:59:43.000Z</time></trkpt>
        <trkpt lat="29.504654" lon="104.096469"><ele>389.56824</ele><time>2026-01-09T22:59:48.000Z</time></trkpt>
        <trkpt lat="29.504656" lon="104.096522"><ele>389.28833</ele><time>2026-01-09T22:59:56.000Z</time></trkpt>
        <trkpt lat="29.504656" lon="104.096576"><ele>390.08057</ele><time>2026-01-09T23:00:03.000Z</time></trkpt>
        <trkpt lat="29.504652" lon="104.096623"><ele>390.3533</ele><time>2026-01-09T23:00:07.000Z</time></trkpt>
        <trkpt lat="29.504651" lon="104.096675"><ele>390.3777</ele><time>2026-01-09T23:00:11.000Z</time></trkpt>
        <trkpt lat="29.504644" lon="104.096747"><ele>390.71518</ele><time>2026-01-09T23:00:20.000Z</time></trkpt>
        <trkpt lat="29.504622" lon="104.096788"><ele>390.50528</ele><time>2026-01-09T23:00:25.000Z</time></trkpt>
        <trkpt lat="29.504584" lon="104.096834"><ele>388.8692</ele><time>2026-01-09T23:00:30.000Z</time></trkpt>
        <trkpt lat="29.504545" lon="104.096865"><ele>387.643</ele><time>2026-01-09T23:00:34.000Z</time></trkpt>
        <trkpt lat="29.504504" lon="104.096895"><ele>386.9237</ele><time>2026-01-09T23:00:38.000Z</time></trkpt>
        <trkpt lat="29.504471" lon="104.096945"><ele>385.92612</ele><time>2026-01-09T23:00:45.000Z</time></trkpt>
        <trkpt lat="29.504459" lon="104.096991"><ele>385.52493</ele><time>2026-01-09T23:00:50.000Z</time></trkpt>
        <trkpt lat="29.504445" lon="104.097044"><ele>385.70688</ele><time>2026-01-09T23:00:58.000Z</time></trkpt>
        <trkpt lat="29.504426" lon="104.097091"><ele>385.6194</ele><time>2026-01-09T23:01:03.000Z</time></trkpt>
        <trkpt lat="29.504389" lon="104.097138"><ele>385.488</ele><time>2026-01-09T23:01:08.000Z</time></trkpt>
        <trkpt lat="29.504359" lon="104.097181"><ele>386.12668</ele><time>2026-01-09T23:01:12.000Z</time></trkpt>
        <trkpt lat="29.504324" lon="104.097233"><ele>386.4435</ele><time>2026-01-09T23:01:17.000Z</time></trkpt>
        <trkpt lat="29.504298" lon="104.097285"><ele>387.68723</ele><time>2026-01-09T23:01:23.000Z</time></trkpt>
        <trkpt lat="29.504265" lon="104.097332"><ele>389.4621</ele><time>2026-01-09T23:01:29.000Z</time></trkpt>
        <trkpt lat="29.504236" lon="104.097376"><ele>390.98856</ele><time>2026-01-09T23:01:34.000Z</time></trkpt>
        <trkpt lat="29.504205" lon="104.097421"><ele>391.9099</ele><time>2026-01-09T23:01:39.000Z</time></trkpt>
        <trkpt lat="29.504179" lon="104.097471"><ele>393.21252</ele><time>2026-01-09T23:01:44.000Z</time></trkpt>
        <trkpt lat="29.504164" lon="104.097531"><ele>394.51752</ele><time>2026-01-09T23:01:50.000Z</time></trkpt>
        <trkpt lat="29.504138" lon="104.097582"><ele>396.4367</ele><time>2026-01-09T23:01:55.000Z</time></trkpt>
        <trkpt lat="29.504109" lon="104.097626"><ele>398.53473</ele><time>2026-01-09T23:01:58.000Z</time></trkpt>
        <trkpt lat="29.504057" lon="104.09768"><ele>401.4742</ele><time>2026-01-09T23:02:09.000Z</time></trkpt>
        <trkpt lat="29.504032" lon="104.097721"><ele>402.01822</ele><time>2026-01-09T23:02:18.000Z</time></trkpt>
        <trkpt lat="29.50399" lon="104.097747"><ele>401.50208</ele><time>2026-01-09T23:02:58.000Z</time></trkpt>
        <trkpt lat="29.503966" lon="104.09779"><ele>401.7186</ele><time>2026-01-09T23:03:06.000Z</time></trkpt>
        <trkpt lat="29.503922" lon="104.097826"><ele>402.45297</ele><time>2026-01-09T23:03:17.000Z</time></trkpt>
        <trkpt lat="29.50388" lon="104.097791"><ele>402.36823</ele><time>2026-01-09T23:04:16.000Z</time></trkpt>
        <trkpt lat="29.503845" lon="104.097804"><ele>402.23547</ele><time>2026-01-09T23:04:21.000Z</time></trkpt>
        <trkpt lat="29.503796" lon="104.097812"><ele>402.04144</ele><time>2026-01-09T23:04:25.000Z</time></trkpt>
        <trkpt lat="29.503727" lon="104.0978"><ele>401.0285</ele><time>2026-01-09T23:04:43.000Z</time></trkpt>
        <trkpt lat="29.503683" lon="104.097801"><ele>399.94897</ele><time>2026-01-09T23:04:50.000Z</time></trkpt>
        <trkpt lat="29.503638" lon="104.097803"><ele>399.38168</ele><time>2026-01-09T23:04:54.000Z</time></trkpt>
        <trkpt lat="29.503585" lon="104.097809"><ele>399.58624</ele><time>2026-01-09T23:04:59.000Z</time></trkpt>
        <trkpt lat="29.503522" lon="104.097805"><ele>399.8229</ele><time>2026-01-09T23:05:10.000Z</time></trkpt>
        <trkpt lat="29.503486" lon="104.097803"><ele>399.76312</ele><time>2026-01-09T23:05:14.000Z</time></trkpt>
        <trkpt lat="29.503429" lon="104.097788"><ele>399.4759</ele><time>2026-01-09T23:05:22.000Z</time></trkpt>
        <trkpt lat="29.503382" lon="104.097761"><ele>398.91397</ele><time>2026-01-09T23:05:28.000Z</time></trkpt>
        <trkpt lat="29.503349" lon="104.09773"><ele>398.2024</ele><time>2026-01-09T23:05:32.000Z</time></trkpt>
        <trkpt lat="29.50331" lon="104.097703"><ele>397.6225</ele><time>2026-01-09T23:05:36.000Z</time></trkpt>
        <trkpt lat="29.503255" lon="104.09768"><ele>396.2001</ele><time>2026-01-09T23:05:43.000Z</time></trkpt>
        <trkpt lat="29.503208" lon="104.097654"><ele>394.38086</ele><time>2026-01-09T23:05:49.000Z</time></trkpt>
        <trkpt lat="29.503174" lon="104.097622"><ele>393.49573</ele><time>2026-01-09T23:05:53.000Z</time></trkpt>
        <trkpt lat="29.50313" lon="104.097594"><ele>392.86646</ele><time>2026-01-09T23:05:57.000Z</time></trkpt>
        <trkpt lat="29.503092" lon="104.097561"><ele>392.43765</ele><time>2026-01-09T23:06:01.000Z</time></trkpt>
        <trkpt lat="29.503051" lon="104.097519"><ele>391.28506</ele><time>2026-01-09T23:06:06.000Z</time></trkpt>
        <trkpt lat="29.503005" lon="104.09747"><ele>389.56326</ele><time>2026-01-09T23:06:12.000Z</time></trkpt>
        <trkpt lat="29.502972" lon="104.09743"><ele>388.21725</ele><time>2026-01-09T23:06:18.000Z</time></trkpt>
        <trkpt lat="29.502932" lon="104.097399"><ele>388.0438</ele><time>2026-01-09T23:06:24.000Z</time></trkpt>
        <trkpt lat="29.502887" lon="104.097371"><ele>388.86536</ele><time>2026-01-09T23:06:30.000Z</time></trkpt>
        <trkpt lat="29.502844" lon="104.097354"><ele>389.92834</ele><time>2026-01-09T23:06:35.000Z</time></trkpt>
        <trkpt lat="29.502793" lon="104.097345"><ele>390.70224</ele><time>2026-01-09T23:06:40.000Z</time></trkpt>
        <trkpt lat="29.502742" lon="104.097347"><ele>392.3149</ele><time>2026-01-09T23:06:46.000Z</time></trkpt>
        <trkpt lat="29.502697" lon="104.097367"><ele>394.27798</ele><time>2026-01-09T23:06:52.000Z</time></trkpt>
        <trkpt lat="29.502653" lon="104.097355"><ele>395.14435</ele><time>2026-01-09T23:06:57.000Z</time></trkpt>
        <trkpt lat="29.50261" lon="104.097329"><ele>395.85245</ele><time>2026-01-09T23:07:02.000Z</time></trkpt>
        <trkpt lat="29.50256" lon="104.097319"><ele>396.6713</ele><time>2026-01-09T23:07:08.000Z</time></trkpt>
        <trkpt lat="29.502505" lon="104.097314"><ele>396.6799</ele><time>2026-01-09T23:07:15.000Z</time></trkpt>
        <trkpt lat="29.502474" lon="104.097272"><ele>396.38458</ele><time>2026-01-09T23:07:22.000Z</time></trkpt>
        <trkpt lat="29.502444" lon="104.097216"><ele>395.2445</ele><time>2026-01-09T23:07:29.000Z</time></trkpt>
        <trkpt lat="29.502409" lon="104.097171"><ele>394.93726</ele><time>2026-01-09T23:07:37.000Z</time></trkpt>
        <trkpt lat="29.502384" lon="104.097133"><ele>394.5256</ele><time>2026-01-09T23:07:42.000Z</time></trkpt>
        <trkpt lat="29.502353" lon="104.097079"><ele>393.93433</ele><time>2026-01-09T23:07:48.000Z</time></trkpt>
        <trkpt lat="29.502324" lon="104.097025"><ele>393.55563</ele><time>2026-01-09T23:07:56.000Z</time></trkpt>
        <trkpt lat="29.502305" lon="104.096981"><ele>392.97296</ele><time>2026-01-09T23:08:02.000Z</time></trkpt>
        <trkpt lat="29.502288" lon="104.096933"><ele>392.68057</ele><time>2026-01-09T23:08:08.000Z</time></trkpt>
        <trkpt lat="29.502278" lon="104.096883"><ele>391.0092</ele><time>2026-01-09T23:08:13.000Z</time></trkpt>
        <trkpt lat="29.502268" lon="104.096839"><ele>390.26486</ele><time>2026-01-09T23:08:16.000Z</time></trkpt>
        <trkpt lat="29.502256" lon="104.096778"><ele>389.1241</ele><time>2026-01-09T23:08:20.000Z</time></trkpt>
        <trkpt lat="29.502241" lon="104.096727"><ele>388.61142</ele><time>2026-01-09T23:08:23.000Z</time></trkpt>
        <trkpt lat="29.502217" lon="104.096659"><ele>388.39508</ele><time>2026-01-09T23:08:29.000Z</time></trkpt>
        <trkpt lat="29.502192" lon="104.096607"><ele>387.7634</ele><time>2026-01-09T23:08:35.000Z</time></trkpt>
        <trkpt lat="29.502178" lon="104.09655"><ele>386.66287</ele><time>2026-01-09T23:08:42.000Z</time></trkpt>
        <trkpt lat="29.502176" lon="104.096491"><ele>386.20358</ele><time>2026-01-09T23:08:48.000Z</time></trkpt>
        <trkpt lat="29.502184" lon="104.096433"><ele>385.07465</ele><time>2026-01-09T23:08:54.000Z</time></trkpt>
        <trkpt lat="29.502199" lon="104.096377"><ele>384.00613</ele><time>2026-01-09T23:09:01.000Z</time></trkpt>
        <trkpt lat="29.502209" lon="104.096327"><ele>383.1129</ele><time>2026-01-09T23:09:07.000Z</time></trkpt>
        <trkpt lat="29.502223" lon="104.096273"><ele>381.45728</ele><time>2026-01-09T23:09:12.000Z</time></trkpt>
        <trkpt lat="29.502228" lon="104.096213"><ele>379.72437</ele><time>2026-01-09T23:09:18.000Z</time></trkpt>
        <trkpt lat="29.502217" lon="104.096153"><ele>378.1152</ele><time>2026-01-09T23:09:24.000Z</time></trkpt>
        <trkpt lat="29.502189" lon="104.096106"><ele>377.52637</ele><time>2026-01-09T23:09:31.000Z</time></trkpt>
        <trkpt lat="29.502161" lon="104.096061"><ele>377.3416</ele><time>2026-01-09T23:09:37.000Z</time></trkpt>
        <trkpt lat="29.502135" lon="104.096012"><ele>376.98965</ele><time>2026-01-09T23:09:42.000Z</time></trkpt>
        <trkpt lat="29.502096" lon="104.095963"><ele>377.10413</ele><time>2026-01-09T23:09:48.000Z</time></trkpt>
        <trkpt lat="29.502066" lon="104.095922"><ele>377.7384</ele><time>2026-01-09T23:09:53.000Z</time></trkpt>
        <trkpt lat="29.502039" lon="104.095873"><ele>377.24823</ele><time>2026-01-09T23:09:58.000Z</time></trkpt>
        <trkpt lat="29.502016" lon="104.09582"><ele>376.6287</ele><time>2026-01-09T23:10:03.000Z</time></trkpt>
        <trkpt lat="29.501998" lon="104.095766"><ele>376.1032</ele><time>2026-01-09T23:10:08.000Z</time></trkpt>
        <trkpt lat="29.50198" lon="104.095713"><ele>375.4133</ele><time>2026-01-09T23:10:14.000Z</time></trkpt>
        <trkpt lat="29.501969" lon="104.09566"><ele>375.20334</ele><time>2026-01-09T23:10:28.000Z</time></trkpt>
        <trkpt lat="29.501983" lon="104.095609"><ele>373.0152</ele><time>2026-01-09T23:10:42.000Z</time></trkpt>
        <trkpt lat="29.50199" lon="104.095555"><ele>371.12146</ele><time>2026-01-09T23:10:53.000Z</time></trkpt>
        <trkpt lat="29.501986" lon="104.095496"><ele>369.96335</ele><time>2026-01-09T23:11:01.000Z</time></trkpt>
        <trkpt lat="29.501993" lon="104.09544"><ele>369.09512</ele><time>2026-01-09T23:11:14.000Z</time></trkpt>
        <trkpt lat="29.502016" lon="104.095391"><ele>368.4886</ele><time>2026-01-09T23:11:44.000Z</time></trkpt>
        <trkpt lat="29.502058" lon="104.095367"><ele>367.6578</ele><time>2026-01-09T23:12:30.000Z</time></trkpt>
        <trkpt lat="29.502102" lon="104.095383"><ele>367.4089</ele><time>2026-01-09T23:13:05.000Z</time></trkpt>
        <trkpt lat="29.50215" lon="104.095388"><ele>365.99127</ele><time>2026-01-09T23:14:07.000Z</time></trkpt>
        <trkpt lat="29.5022" lon="104.095379"><ele>364.53754</ele><time>2026-01-09T23:14:50.000Z</time></trkpt>
        <trkpt lat="29.502212" lon="104.095429"><ele>365.07874</ele><time>2026-01-09T23:15:05.000Z</time></trkpt>
        <trkpt lat="29.50225" lon="104.095395"><ele>365.05835</ele><time>2026-01-09T23:15:35.000Z</time></trkpt>
        <trkpt lat="29.502296" lon="104.095392"><ele>366.41562</ele><time>2026-01-09T23:16:02.000Z</time></trkpt>
        <trkpt lat="29.502313" lon="104.095345"><ele>368.61847</ele><time>2026-01-09T23:16:20.000Z</time></trkpt>
        <trkpt lat="29.502302" lon="104.095295"><ele>368.95734</ele><time>2026-01-09T23:16:27.000Z</time></trkpt>
        <trkpt lat="29.502328" lon="104.095259"><ele>369.5703</ele><time>2026-01-09T23:16:34.000Z</time></trkpt>
        <trkpt lat="29.502365" lon="104.095232"><ele>369.80615</ele><time>2026-01-09T23:16:39.000Z</time></trkpt>
        <trkpt lat="29.502406" lon="104.0952"><ele>370.554</ele><time>2026-01-09T23:16:44.000Z</time></trkpt>
        <trkpt lat="29.502444" lon="104.095156"><ele>372.9946</ele><time>2026-01-09T23:16:52.000Z</time></trkpt>
        <trkpt lat="29.502433" lon="104.095097"><ele>373.50302</ele><time>2026-01-09T23:16:59.000Z</time></trkpt>
        <trkpt lat="29.502415" lon="104.09505"><ele>373.55527</ele><time>2026-01-09T23:17:02.000Z</time></trkpt>
        <trkpt lat="29.502401" lon="104.094994"><ele>373.85724</ele><time>2026-01-09T23:17:06.000Z</time></trkpt>
        <trkpt lat="29.50238" lon="104.094932"><ele>374.65555</ele><time>2026-01-09T23:17:10.000Z</time></trkpt>
        <trkpt lat="29.502354" lon="104.094871"><ele>374.60754</ele><time>2026-01-09T23:17:18.000Z</time></trkpt>
        <trkpt lat="29.502336" lon="104.094825"><ele>374.98788</ele><time>2026-01-09T23:17:24.000Z</time></trkpt>
        <trkpt lat="29.502318" lon="104.094769"><ele>374.94153</ele><time>2026-01-09T23:17:32.000Z</time></trkpt>
        <trkpt lat="29.502273" lon="104.094739"><ele>373.89398</ele><time>2026-01-09T23:17:42.000Z</time></trkpt>
        <trkpt lat="29.502244" lon="104.094697"><ele>373.85815</ele><time>2026-01-09T23:17:50.000Z</time></trkpt>
        <trkpt lat="29.502212" lon="104.094652"><ele>373.20465</ele><time>2026-01-09T23:18:00.000Z</time></trkpt>
        <trkpt lat="29.502185" lon="104.094602"><ele>373.42682</ele><time>2026-01-09T23:18:07.000Z</time></trkpt>
        <trkpt lat="29.502155" lon="104.094555"><ele>373.9128</ele><time>2026-01-09T23:18:13.000Z</time></trkpt>
        <trkpt lat="29.502114" lon="104.094517"><ele>373.75638</ele><time>2026-01-09T23:18:19.000Z</time></trkpt>
        <trkpt lat="29.502086" lon="104.094481"><ele>373.4353</ele><time>2026-01-09T23:18:24.000Z</time></trkpt>
        <trkpt lat="29.502087" lon="104.094427"><ele>373.46817</ele><time>2026-01-09T23:18:29.000Z</time></trkpt>
        <trkpt lat="29.502056" lon="104.094407"><ele>374.39896</ele><time>2026-01-09T23:18:35.000Z</time></trkpt>
        <trkpt lat="29.502029" lon="104.094374"><ele>375.16348</ele><time>2026-01-09T23:18:39.000Z</time></trkpt>
        <trkpt lat="29.502009" lon="104.094317"><ele>375.6605</ele><time>2026-01-09T23:18:45.000Z</time></trkpt>
        <trkpt lat="29.501985" lon="104.094271"><ele>376.95117</ele><time>2026-01-09T23:18:50.000Z</time></trkpt>
        <trkpt lat="29.501968" lon="104.094213"><ele>377.75903</ele><time>2026-01-09T23:18:56.000Z</time></trkpt>
        <trkpt lat="29.501969" lon="104.094151"><ele>379.8005</ele><time>2026-01-09T23:19:04.000Z</time></trkpt>
        <trkpt lat="29.501987" lon="104.0941"><ele>381.2228</ele><time>2026-01-09T23:19:10.000Z</time></trkpt>
        <trkpt lat="29.502002" lon="104.094048"><ele>382.88782</ele><time>2026-01-09T23:19:15.000Z</time></trkpt>
        <trkpt lat="29.502031" lon="104.093988"><ele>387.00412</ele><time>2026-01-09T23:19:25.000Z</time></trkpt>
        <trkpt lat="29.502005" lon="104.093947"><ele>388.5945</ele><time>2026-01-09T23:19:32.000Z</time></trkpt>
        <trkpt lat="29.501985" lon="104.093886"><ele>391.11865</ele><time>2026-01-09T23:19:47.000Z</time></trkpt>
        <trkpt lat="29.50195" lon="104.093895"><ele>391.0126</ele><time>2026-01-09T23:19:52.000Z</time></trkpt>
        <trkpt lat="29.501911" lon="104.093919"><ele>390.56906</ele><time>2026-01-09T23:19:56.000Z</time></trkpt>
        <trkpt lat="29.501863" lon="104.093947"><ele>389.0322</ele><time>2026-01-09T23:20:01.000Z</time></trkpt>
        <trkpt lat="29.501814" lon="104.093958"><ele>388.18542</ele><time>2026-01-09T23:20:05.000Z</time></trkpt>
        <trkpt lat="29.501763" lon="104.093954"><ele>386.8302</ele><time>2026-01-09T23:20:10.000Z</time></trkpt>
        <trkpt lat="29.501719" lon="104.093956"><ele>386.28888</ele><time>2026-01-09T23:20:14.000Z</time></trkpt>
        <trkpt lat="29.501677" lon="104.093982"><ele>385.13876</ele><time>2026-01-09T23:20:19.000Z</time></trkpt>
        <trkpt lat="29.501631" lon="104.093995"><ele>384.35263</ele><time>2026-01-09T23:20:22.000Z</time></trkpt>
        <trkpt lat="29.501577" lon="104.093981"><ele>384.27322</ele><time>2026-01-09T23:20:27.000Z</time></trkpt>
        <trkpt lat="29.501518" lon="104.093965"><ele>384.3536</ele><time>2026-01-09T23:20:33.000Z</time></trkpt>
        <trkpt lat="29.501471" lon="104.093952"><ele>385.38504</ele><time>2026-01-09T23:20:39.000Z</time></trkpt>
        <trkpt lat="29.501414" lon="104.093939"><ele>385.70923</ele><time>2026-01-09T23:20:47.000Z</time></trkpt>
        <trkpt lat="29.501371" lon="104.093929"><ele>386.0813</ele><time>2026-01-09T23:20:53.000Z</time></trkpt>
        <trkpt lat="29.501319" lon="104.093935"><ele>386.31082</ele><time>2026-01-09T23:20:58.000Z</time></trkpt>
        <trkpt lat="29.501269" lon="104.093935"><ele>387.04465</ele><time>2026-01-09T23:21:03.000Z</time></trkpt>
        <trkpt lat="29.501222" lon="104.093948"><ele>387.175</ele><time>2026-01-09T23:21:07.000Z</time></trkpt>
        <trkpt lat="29.501172" lon="104.093966"><ele>386.76105</ele><time>2026-01-09T23:21:12.000Z</time></trkpt>
        <trkpt lat="29.501145" lon="104.094017"><ele>384.94528</ele><time>2026-01-09T23:21:29.000Z</time></trkpt>
        <trkpt lat="29.501125" lon="104.094062"><ele>383.8879</ele><time>2026-01-09T23:21:38.000Z</time></trkpt>
        <trkpt lat="29.50109" lon="104.094106"><ele>383.11346</ele><time>2026-01-09T23:21:45.000Z</time></trkpt>
        <trkpt lat="29.501049" lon="104.094125"><ele>382.65094</ele><time>2026-01-09T23:21:50.000Z</time></trkpt>
        <trkpt lat="29.500997" lon="104.094145"><ele>381.29208</ele><time>2026-01-09T23:21:55.000Z</time></trkpt>
        <trkpt lat="29.500954" lon="104.094183"><ele>380.55478</ele><time>2026-01-09T23:22:00.000Z</time></trkpt>
        <trkpt lat="29.500901" lon="104.094218"><ele>380.189</ele><time>2026-01-09T23:22:08.000Z</time></trkpt>
        <trkpt lat="29.50088" lon="104.094258"><ele>379.58228</ele><time>2026-01-09T23:22:13.000Z</time></trkpt>
        <trkpt lat="29.500865" lon="104.094311"><ele>378.77243</ele><time>2026-01-09T23:22:18.000Z</time></trkpt>
        <trkpt lat="29.500837" lon="104.094353"><ele>378.2406</ele><time>2026-01-09T23:22:22.000Z</time></trkpt>
        <trkpt lat="29.500794" lon="104.094386"><ele>377.8802</ele><time>2026-01-09T23:22:27.000Z</time></trkpt>
        <trkpt lat="29.500767" lon="104.094437"><ele>377.059</ele><time>2026-01-09T23:22:33.000Z</time></trkpt>
        <trkpt lat="29.500724" lon="104.094463"><ele>376.40543</ele><time>2026-01-09T23:22:39.000Z</time></trkpt>
        <trkpt lat="29.500681" lon="104.094474"><ele>376.11285</ele><time>2026-01-09T23:22:43.000Z</time></trkpt>
        <trkpt lat="29.500635" lon="104.094498"><ele>375.53815</ele><time>2026-01-09T23:22:49.000Z</time></trkpt>
        <trkpt lat="29.500652" lon="104.094531"><ele>375.4262</ele><time>2026-01-09T23:22:53.000Z</time></trkpt>
        <trkpt lat="29.500684" lon="104.094595"><ele>374.31567</ele><time>2026-01-09T23:23:08.000Z</time></trkpt>
        <trkpt lat="29.50066" lon="104.094633"><ele>374.04755</ele><time>2026-01-09T23:23:15.000Z</time></trkpt>
        <trkpt lat="29.50062" lon="104.09467"><ele>374.14725</ele><time>2026-01-09T23:23:22.000Z</time></trkpt>
        <trkpt lat="29.500578" lon="104.094692"><ele>374.76907</ele><time>2026-01-09T23:23:28.000Z</time></trkpt>
        <trkpt lat="29.500556" lon="104.094736"><ele>374.93274</ele><time>2026-01-09T23:23:35.000Z</time></trkpt>
        <trkpt lat="29.500533" lon="104.094794"><ele>374.73587</ele><time>2026-01-09T23:23:44.000Z</time></trkpt>
        <trkpt lat="29.500522" lon="104.094841"><ele>374.22916</ele><time>2026-01-09T23:23:49.000Z</time></trkpt>
        <trkpt lat="29.500516" lon="104.094898"><ele>374.08423</ele><time>2026-01-09T23:23:55.000Z</time></trkpt>
        <trkpt lat="29.500524" lon="104.094953"><ele>373.7035</ele><time>2026-01-09T23:24:00.000Z</time></trkpt>
        <trkpt lat="29.500532" lon="104.095006"><ele>372.90927</ele><time>2026-01-09T23:24:04.000Z</time></trkpt>
        <trkpt lat="29.500535" lon="104.095061"><ele>372.57312</ele><time>2026-01-09T23:24:08.000Z</time></trkpt>
        <trkpt lat="29.500544" lon="104.095126"><ele>372.55167</ele><time>2026-01-09T23:24:13.000Z</time></trkpt>
        <trkpt lat="29.500564" lon="104.095183"><ele>372.00232</ele><time>2026-01-09T23:24:18.000Z</time></trkpt>
        <trkpt lat="29.500561" lon="104.095235"><ele>372.70758</ele><time>2026-01-09T23:24:23.000Z</time></trkpt>
        <trkpt lat="29.500539" lon="104.095285"><ele>373.31238</ele><time>2026-01-09T23:24:28.000Z</time></trkpt>
        <trkpt lat="29.500554" lon="104.095335"><ele>372.8756</ele><time>2026-01-09T23:24:37.000Z</time></trkpt>
        <trkpt lat="29.500559" lon="104.095381"><ele>372.71518</ele><time>2026-01-09T23:24:44.000Z</time></trkpt>
        <trkpt lat="29.500531" lon="104.095423"><ele>372.25024</ele><time>2026-01-09T23:24:50.000Z</time></trkpt>
        <trkpt lat="29.500494" lon="104.095469"><ele>371.95352</ele><time>2026-01-09T23:24:58.000Z</time></trkpt>
        <trkpt lat="29.500486" lon="104.09553"><ele>371.7542</ele><time>2026-01-09T23:25:05.000Z</time></trkpt>
        <trkpt lat="29.500474" lon="104.09558"><ele>371.7491</ele><time>2026-01-09T23:25:09.000Z</time></trkpt>
        <trkpt lat="29.500471" lon="104.095638"><ele>371.42184</ele><time>2026-01-09T23:25:13.000Z</time></trkpt>
        <trkpt lat="29.500481" lon="104.095699"><ele>370.83865</ele><time>2026-01-09T23:25:17.000Z</time></trkpt>
        <trkpt lat="29.500482" lon="104.095761"><ele>370.1859</ele><time>2026-01-09T23:25:22.000Z</time></trkpt>
        <trkpt lat="29.500468" lon="104.095818"><ele>369.6036</ele><time>2026-01-09T23:25:28.000Z</time></trkpt>
        <trkpt lat="29.500456" lon="104.095872"><ele>368.95346</ele><time>2026-01-09T23:25:34.000Z</time></trkpt>
        <trkpt lat="29.500449" lon="104.095928"><ele>368.88358</ele><time>2026-01-09T23:25:40.000Z</time></trkpt>
        <trkpt lat="29.500448" lon="104.095985"><ele>368.6693</ele><time>2026-01-09T23:25:45.000Z</time></trkpt>
        <trkpt lat="29.500443" lon="104.096041"><ele>369.00208</ele><time>2026-01-09T23:25:50.000Z</time></trkpt>
        <trkpt lat="29.500438" lon="104.0961"><ele>368.5541</ele><time>2026-01-09T23:25:55.000Z</time></trkpt>
        <trkpt lat="29.500431" lon="104.096159"><ele>368.01425</ele><time>2026-01-09T23:26:00.000Z</time></trkpt>
        <trkpt lat="29.500424" lon="104.096218"><ele>367.21857</ele><time>2026-01-09T23:26:10.000Z</time></trkpt>
        <trkpt lat="29.500421" lon="104.096268"><ele>367.15897</ele><time>2026-01-09T23:26:17.000Z</time></trkpt>
        <trkpt lat="29.500419" lon="104.096316"><ele>367.05292</ele><time>2026-01-09T23:26:21.000Z</time></trkpt>
        <trkpt lat="29.500408" lon="104.09637"><ele>367.03723</ele><time>2026-01-09T23:26:25.000Z</time></trkpt>
        <trkpt lat="29.50039" lon="104.096423"><ele>366.73776</ele><time>2026-01-09T23:26:29.000Z</time></trkpt>
        <trkpt lat="29.500356" lon="104.096467"><ele>366.53293</ele><time>2026-01-09T23:26:33.000Z</time></trkpt>
        <trkpt lat="29.500339" lon="104.096522"><ele>366.60974</ele><time>2026-01-09T23:26:37.000Z</time></trkpt>
        <trkpt lat="29.500335" lon="104.096588"><ele>366.4182</ele><time>2026-01-09T23:26:42.000Z</time></trkpt>
        <trkpt lat="29.500335" lon="104.096651"><ele>366.16763</ele><time>2026-01-09T23:26:47.000Z</time></trkpt>
        <trkpt lat="29.500301" lon="104.096688"><ele>366.03</ele><time>2026-01-09T23:26:53.000Z</time></trkpt>
        <trkpt lat="29.500259" lon="104.096673"><ele>365.79102</ele><time>2026-01-09T23:26:56.000Z</time></trkpt>
        <trkpt lat="29.500205" lon="104.096649"><ele>366.256</ele><time>2026-01-09T23:27:01.000Z</time></trkpt>
        <trkpt lat="29.500155" lon="104.09663"><ele>367.1752</ele><time>2026-01-09T23:27:06.000Z</time></trkpt>
        <trkpt lat="29.500108" lon="104.09661"><ele>368.161</ele><time>2026-01-09T23:27:11.000Z</time></trkpt>
        <trkpt lat="29.500056" lon="104.096593"><ele>368.74802</ele><time>2026-01-09T23:27:20.000Z</time></trkpt>
        <trkpt lat="29.500013" lon="104.096569"><ele>369.42685</ele><time>2026-01-09T23:27:27.000Z</time></trkpt>
        <trkpt lat="29.499973" lon="104.096526"><ele>371.82693</ele><time>2026-01-09T23:27:35.000Z</time></trkpt>
        <trkpt lat="29.49995" lon="104.096472"><ele>372.36523</ele><time>2026-01-09T23:27:42.000Z</time></trkpt>
        <trkpt lat="29.499929" lon="104.096432"><ele>372.4361</ele><time>2026-01-09T23:27:46.000Z</time></trkpt>
        <trkpt lat="29.499899" lon="104.096397"><ele>372.4054</ele><time>2026-01-09T23:27:49.000Z</time></trkpt>
        <trkpt lat="29.499858" lon="104.096348"><ele>372.8545</ele><time>2026-01-09T23:27:54.000Z</time></trkpt>
        <trkpt lat="29.499828" lon="104.096304"><ele>373.30145</ele><time>2026-01-09T23:27:58.000Z</time></trkpt>
        <trkpt lat="29.499794" lon="104.09626"><ele>373.36948</ele><time>2026-01-09T23:28:02.000Z</time></trkpt>
        <trkpt lat="29.499751" lon="104.096214"><ele>372.07822</ele><time>2026-01-09T23:28:08.000Z</time></trkpt>
        <trkpt lat="29.49972" lon="104.096172"><ele>371.9974</ele><time>2026-01-09T23:28:13.000Z</time></trkpt>
        <trkpt lat="29.499688" lon="104.096122"><ele>372.1823</ele><time>2026-01-09T23:28:18.000Z</time></trkpt>
        <trkpt lat="29.499657" lon="104.096069"><ele>372.10645</ele><time>2026-01-09T23:28:23.000Z</time></trkpt>
        <trkpt lat="29.499622" lon="104.096021"><ele>372.47562</ele><time>2026-01-09T23:28:28.000Z</time></trkpt>
        <trkpt lat="29.499594" lon="104.095971"><ele>373.01617</ele><time>2026-01-09T23:28:33.000Z</time></trkpt>
        <trkpt lat="29.499566" lon="104.095926"><ele>373.2747</ele><time>2026-01-09T23:28:38.000Z</time></trkpt>
        <trkpt lat="29.499533" lon="104.095878"><ele>373.31488</ele><time>2026-01-09T23:28:43.000Z</time></trkpt>
        <trkpt lat="29.499506" lon="104.095834"><ele>373.52158</ele><time>2026-01-09T23:28:47.000Z</time></trkpt>
        <trkpt lat="29.499464" lon="104.095789"><ele>374.69986</ele><time>2026-01-09T23:28:52.000Z</time></trkpt>
        <trkpt lat="29.499432" lon="104.09575"><ele>374.67935</ele><time>2026-01-09T23:28:56.000Z</time></trkpt>
        <trkpt lat="29.499396" lon="104.095706"><ele>374.7953</ele><time>2026-01-09T23:29:01.000Z</time></trkpt>
        <trkpt lat="29.499366" lon="104.095658"><ele>374.23248</ele><time>2026-01-09T23:29:06.000Z</time></trkpt>
        <trkpt lat="29.499338" lon="104.095604"><ele>375.22928</ele><time>2026-01-09T23:29:13.000Z</time></trkpt>
        <trkpt lat="29.499312" lon="104.095568"><ele>377.68787</ele><time>2026-01-09T23:29:18.000Z</time></trkpt>
        <trkpt lat="29.499266" lon="104.095551"><ele>378.0166</ele><time>2026-01-09T23:29:25.000Z</time></trkpt>
        <trkpt lat="29.499216" lon="104.095526"><ele>378.48962</ele><time>2026-01-09T23:29:31.000Z</time></trkpt>
        <trkpt lat="29.499167" lon="104.095506"><ele>379.4198</ele><time>2026-01-09T23:29:35.000Z</time></trkpt>
        <trkpt lat="29.499112" lon="104.095476"><ele>380.74173</ele><time>2026-01-09T23:29:41.000Z</time></trkpt>
        <trkpt lat="29.499066" lon="104.095454"><ele>382.01645</ele><time>2026-01-09T23:29:45.000Z</time></trkpt>
        <trkpt lat="29.499019" lon="104.095437"><ele>383.3145</ele><time>2026-01-09T23:29:49.000Z</time></trkpt>
        <trkpt lat="29.498963" lon="104.09542"><ele>384.3452</ele><time>2026-01-09T23:29:56.000Z</time></trkpt>
        <trkpt lat="29.498922" lon="104.095402"><ele>384.77127</ele><time>2026-01-09T23:30:01.000Z</time></trkpt>
        <trkpt lat="29.49888" lon="104.095384"><ele>385.23578</ele><time>2026-01-09T23:30:05.000Z</time></trkpt>
        <trkpt lat="29.498826" lon="104.095373"><ele>386.17526</ele><time>2026-01-09T23:30:10.000Z</time></trkpt>
        <trkpt lat="29.498774" lon="104.095378"><ele>386.6853</ele><time>2026-01-09T23:30:15.000Z</time></trkpt>
        <trkpt lat="29.498725" lon="104.095392"><ele>386.97266</ele><time>2026-01-09T23:30:20.000Z</time></trkpt>
        <trkpt lat="29.498672" lon="104.095409"><ele>386.4562</ele><time>2026-01-09T23:30:25.000Z</time></trkpt>
        <trkpt lat="29.498626" lon="104.095425"><ele>385.70486</ele><time>2026-01-09T23:30:29.000Z</time></trkpt>
        <trkpt lat="29.498581" lon="104.095454"><ele>384.99176</ele><time>2026-01-09T23:30:35.000Z</time></trkpt>
        <trkpt lat="29.498543" lon="104.095486"><ele>384.8102</ele><time>2026-01-09T23:30:40.000Z</time></trkpt>
        <trkpt lat="29.498506" lon="104.095518"><ele>384.33826</ele><time>2026-01-09T23:30:44.000Z</time></trkpt>
        <trkpt lat="29.498464" lon="104.095558"><ele>383.6807</ele><time>2026-01-09T23:30:49.000Z</time></trkpt>
        <trkpt lat="29.498422" lon="104.095593"><ele>382.36356</ele><time>2026-01-09T23:30:54.000Z</time></trkpt>
        <trkpt lat="29.498385" lon="104.095628"><ele>381.77667</ele><time>2026-01-09T23:30:59.000Z</time></trkpt>
        <trkpt lat="29.498351" lon="104.09567"><ele>381.44186</ele><time>2026-01-09T23:31:05.000Z</time></trkpt>
        <trkpt lat="29.498319" lon="104.095699"><ele>381.17984</ele><time>2026-01-09T23:31:09.000Z</time></trkpt>
        <trkpt lat="29.498283" lon="104.095741"><ele>381.03284</ele><time>2026-01-09T23:31:14.000Z</time></trkpt>
        <trkpt lat="29.498242" lon="104.09578"><ele>380.52536</ele><time>2026-01-09T23:31:19.000Z</time></trkpt>
        <trkpt lat="29.498205" lon="104.09582"><ele>379.78528</ele><time>2026-01-09T23:31:25.000Z</time></trkpt>
        <trkpt lat="29.498174" lon="104.095854"><ele>379.27664</ele><time>2026-01-09T23:31:30.000Z</time></trkpt>
        <trkpt lat="29.498132" lon="104.095894"><ele>378.85257</ele><time>2026-01-09T23:31:36.000Z</time></trkpt>
        <trkpt lat="29.498088" lon="104.095924"><ele>378.9</ele><time>2026-01-09T23:31:42.000Z</time></trkpt>
        <trkpt lat="29.498037" lon="104.095949"><ele>379.04825</ele><time>2026-01-09T23:31:48.000Z</time></trkpt>
        <trkpt lat="29.497982" lon="104.095963"><ele>379.387</ele><time>2026-01-09T23:31:54.000Z</time></trkpt>
        <trkpt lat="29.497933" lon="104.095963"><ele>379.69376</ele><time>2026-01-09T23:32:00.000Z</time></trkpt>
        <trkpt lat="29.497888" lon="104.095955"><ele>379.5108</ele><time>2026-01-09T23:32:05.000Z</time></trkpt>
        <trkpt lat="29.497834" lon="104.095953"><ele>379.32175</ele><time>2026-01-09T23:32:10.000Z</time></trkpt>
        <trkpt lat="29.497779" lon="104.095946"><ele>378.88513</ele><time>2026-01-09T23:32:16.000Z</time></trkpt>
        <trkpt lat="29.497739" lon="104.095929"><ele>378.77457</ele><time>2026-01-09T23:32:20.000Z</time></trkpt>
        <trkpt lat="29.4977" lon="104.095892"><ele>378.5345</ele><time>2026-01-09T23:32:25.000Z</time></trkpt>
        <trkpt lat="29.497674" lon="104.09585"><ele>379.512</ele><time>2026-01-09T23:32:29.000Z</time></trkpt>
        <trkpt lat="29.497646" lon="104.095789"><ele>381.0495</ele><time>2026-01-09T23:32:35.000Z</time></trkpt>
        <trkpt lat="29.49761" lon="104.095753"><ele>382.78772</ele><time>2026-01-09T23:32:40.000Z</time></trkpt>
        <trkpt lat="29.497568" lon="104.095723"><ele>384.1525</ele><time>2026-01-09T23:32:45.000Z</time></trkpt>
        <trkpt lat="29.497517" lon="104.0957"><ele>385.15378</ele><time>2026-01-09T23:32:51.000Z</time></trkpt>
        <trkpt lat="29.49747" lon="104.095697"><ele>385.97076</ele><time>2026-01-09T23:32:56.000Z</time></trkpt>
        <trkpt lat="29.497415" lon="104.095695"><ele>386.8822</ele><time>2026-01-09T23:33:02.000Z</time></trkpt>
        <trkpt lat="29.497368" lon="104.095701"><ele>387.16345</ele><time>2026-01-09T23:33:06.000Z</time></trkpt>
        <trkpt lat="29.497312" lon="104.095721"><ele>387.13834</ele><time>2026-01-09T23:33:12.000Z</time></trkpt>
        <trkpt lat="29.497274" lon="104.095748"><ele>386.5167</ele><time>2026-01-09T23:33:17.000Z</time></trkpt>
        <trkpt lat="29.497238" lon="104.095787"><ele>385.51892</ele><time>2026-01-09T23:33:22.000Z</time></trkpt>
        <trkpt lat="29.497208" lon="104.095832"><ele>384.80835</ele><time>2026-01-09T23:33:27.000Z</time></trkpt>
        <trkpt lat="29.49719" lon="104.095887"><ele>383.15732</ele><time>2026-01-09T23:33:33.000Z</time></trkpt>
        <trkpt lat="29.497174" lon="104.095936"><ele>381.02573</ele><time>2026-01-09T23:33:39.000Z</time></trkpt>
        <trkpt lat="29.497154" lon="104.095982"><ele>379.3487</ele><time>2026-01-09T23:33:45.000Z</time></trkpt>
        <trkpt lat="29.497119" lon="104.096017"><ele>378.57397</ele><time>2026-01-09T23:33:50.000Z</time></trkpt>
        <trkpt lat="29.49708" lon="104.096048"><ele>378.19702</ele><time>2026-01-09T23:33:55.000Z</time></trkpt>
        <trkpt lat="29.497033" lon="104.096073"><ele>378.03967</ele><time>2026-01-09T23:34:00.000Z</time></trkpt>
        <trkpt lat="29.496987" lon="104.096093"><ele>377.88116</ele><time>2026-01-09T23:34:05.000Z</time></trkpt>
        <trkpt lat="29.49693" lon="104.096104"><ele>378.00482</ele><time>2026-01-09T23:34:13.000Z</time></trkpt>
        <trkpt lat="29.49689" lon="104.096125"><ele>378.01065</ele><time>2026-01-09T23:34:19.000Z</time></trkpt>
        <trkpt lat="29.496843" lon="104.096145"><ele>377.8179</ele><time>2026-01-09T23:34:24.000Z</time></trkpt>
        <trkpt lat="29.496797" lon="104.096153"><ele>378.74432</ele><time>2026-01-09T23:34:28.000Z</time></trkpt>
        <trkpt lat="29.496747" lon="104.096159"><ele>379.7919</ele><time>2026-01-09T23:34:33.000Z</time></trkpt>
        <trkpt lat="29.496696" lon="104.096174"><ele>380.5255</ele><time>2026-01-09T23:34:38.000Z</time></trkpt>
        <trkpt lat="29.496645" lon="104.096194"><ele>380.972</ele><time>2026-01-09T23:34:43.000Z</time></trkpt>
        <trkpt lat="29.496595" lon="104.096209"><ele>381.36935</ele><time>2026-01-09T23:34:47.000Z</time></trkpt>
        <trkpt lat="29.496546" lon="104.096224"><ele>381.42963</ele><time>2026-01-09T23:34:51.000Z</time></trkpt>
        <trkpt lat="29.496489" lon="104.096243"><ele>381.55872</ele><time>2026-01-09T23:34:56.000Z</time></trkpt>
        <trkpt lat="29.496441" lon="104.096261"><ele>381.8924</ele><time>2026-01-09T23:35:00.000Z</time></trkpt>
        <trkpt lat="29.496392" lon="104.096283"><ele>381.8189</ele><time>2026-01-09T23:35:05.000Z</time></trkpt>
        <trkpt lat="29.496352" lon="104.0963"><ele>380.94882</ele><time>2026-01-09T23:35:09.000Z</time></trkpt>
        <trkpt lat="29.496303" lon="104.096304"><ele>379.95236</ele><time>2026-01-09T23:35:15.000Z</time></trkpt>
        <trkpt lat="29.496252" lon="104.096297"><ele>380.78665</ele><time>2026-01-09T23:35:25.000Z</time></trkpt>
        <trkpt lat="29.496205" lon="104.096292"><ele>382.16495</ele><time>2026-01-09T23:35:32.000Z</time></trkpt>
        <trkpt lat="29.496156" lon="104.096283"><ele>381.89966</ele><time>2026-01-09T23:35:37.000Z</time></trkpt>
        <trkpt lat="29.496111" lon="104.096279"><ele>381.73416</ele><time>2026-01-09T23:35:41.000Z</time></trkpt>
        <trkpt lat="29.49606" lon="104.096273"><ele>381.70267</ele><time>2026-01-09T23:35:46.000Z</time></trkpt>
        <trkpt lat="29.496014" lon="104.096253"><ele>382.00943</ele><time>2026-01-09T23:35:51.000Z</time></trkpt>
        <trkpt lat="29.495963" lon="104.096237"><ele>382.8394</ele><time>2026-01-09T23:35:56.000Z</time></trkpt>
        <trkpt lat="29.495921" lon="104.096217"><ele>383.12164</ele><time>2026-01-09T23:36:00.000Z</time></trkpt>
        <trkpt lat="29.495869" lon="104.096203"><ele>383.38873</ele><time>2026-01-09T23:36:05.000Z</time></trkpt>
        <trkpt lat="29.495817" lon="104.096188"><ele>383.3951</ele><time>2026-01-09T23:36:10.000Z</time></trkpt>
        <trkpt lat="29.495763" lon="104.096174"><ele>383.1857</ele><time>2026-01-09T23:36:16.000Z</time></trkpt>
        <trkpt lat="29.495711" lon="104.096167"><ele>383.65237</ele><time>2026-01-09T23:36:47.000Z</time></trkpt>
        <trkpt lat="29.495684" lon="104.096155"><ele>384.218</ele><time>2026-01-09T23:36:51.000Z</time></trkpt>
        <trkpt lat="29.495627" lon="104.096125"><ele>384.47455</ele><time>2026-01-09T23:36:57.000Z</time></trkpt>
        <trkpt lat="29.495575" lon="104.096099"><ele>385.13144</ele><time>2026-01-09T23:37:07.000Z</time></trkpt>
        <trkpt lat="29.495533" lon="104.096081"><ele>385.81952</ele><time>2026-01-09T23:37:18.000Z</time></trkpt>
        <trkpt lat="29.495487" lon="104.096067"><ele>386.60565</ele><time>2026-01-09T23:37:24.000Z</time></trkpt>
        <trkpt lat="29.495441" lon="104.096048"><ele>387.1338</ele><time>2026-01-09T23:37:29.000Z</time></trkpt>
        <trkpt lat="29.49539" lon="104.096038"><ele>387.78662</ele><time>2026-01-09T23:37:34.000Z</time></trkpt>
        <trkpt lat="29.495334" lon="104.096029"><ele>388.1857</ele><time>2026-01-09T23:37:41.000Z</time></trkpt>
        <trkpt lat="29.495378" lon="104.096035"><ele>387.32172</ele><time>2026-01-09T23:38:07.000Z</time></trkpt>
        <trkpt lat="29.495433" lon="104.096044"><ele>386.61172</ele><time>2026-01-09T23:38:14.000Z</time></trkpt>
        <trkpt lat="29.495484" lon="104.096057"><ele>385.94934</ele><time>2026-01-09T23:38:20.000Z</time></trkpt>
        <trkpt lat="29.495529" lon="104.096073"><ele>384.9517</ele><time>2026-01-09T23:38:25.000Z</time></trkpt>
        <trkpt lat="29.495571" lon="104.096095"><ele>383.69</ele><time>2026-01-09T23:38:30.000Z</time></trkpt>
        <trkpt lat="29.495613" lon="104.096126"><ele>383.6992</ele><time>2026-01-09T23:38:37.000Z</time></trkpt>
        <trkpt lat="29.49565" lon="104.09614"><ele>383.7961</ele><time>2026-01-09T23:38:41.000Z</time></trkpt>
        <trkpt lat="29.495698" lon="104.096155"><ele>383.7188</ele><time>2026-01-09T23:38:46.000Z</time></trkpt>
        <trkpt lat="29.495748" lon="104.096182"><ele>383.02573</ele><time>2026-01-09T23:38:52.000Z</time></trkpt>
        <trkpt lat="29.495735" lon="104.096212"><ele>382.01178</ele><time>2026-01-09T23:38:56.000Z</time></trkpt>
        <trkpt lat="29.495688" lon="104.096241"><ele>380.25955</ele><time>2026-01-09T23:39:00.000Z</time></trkpt>
        <trkpt lat="29.495636" lon="104.096257"><ele>379.05017</ele><time>2026-01-09T23:39:04.000Z</time></trkpt>
        <trkpt lat="29.495577" lon="104.096276"><ele>377.6723</ele><time>2026-01-09T23:39:09.000Z</time></trkpt>
        <trkpt lat="29.495537" lon="104.096315"><ele>376.5977</ele><time>2026-01-09T23:39:15.000Z</time></trkpt>
        <trkpt lat="29.495531" lon="104.096376"><ele>373.58618</ele><time>2026-01-09T23:39:25.000Z</time></trkpt>
        <trkpt lat="29.495491" lon="104.096384"><ele>371.8097</ele><time>2026-01-09T23:39:48.000Z</time></trkpt>
        <trkpt lat="29.495453" lon="104.096409"><ele>371.68228</ele><time>2026-01-09T23:39:57.000Z</time></trkpt>
        <trkpt lat="29.495401" lon="104.096428"><ele>369.52075</ele><time>2026-01-09T23:40:13.000Z</time></trkpt>
        <trkpt lat="29.495377" lon="104.096463"><ele>368.5384</ele><time>2026-01-09T23:40:19.000Z</time></trkpt>
        <trkpt lat="29.495345" lon="104.096512"><ele>369.13263</ele><time>2026-01-09T23:40:29.000Z</time></trkpt>
        <trkpt lat="29.495299" lon="104.096536"><ele>368.2433</ele><time>2026-01-09T23:40:39.000Z</time></trkpt>
        <trkpt lat="29.495282" lon="104.096578"><ele>367.5604</ele><time>2026-01-09T23:40:46.000Z</time></trkpt>
        <trkpt lat="29.495326" lon="104.096615"><ele>366.49875</ele><time>2026-01-09T23:40:55.000Z</time></trkpt>
        <trkpt lat="29.495379" lon="104.096628"><ele>366.21292</ele><time>2026-01-09T23:41:01.000Z</time></trkpt>
        <trkpt lat="29.495425" lon="104.09664"><ele>366.17737</ele><time>2026-01-09T23:41:06.000Z</time></trkpt>
        <trkpt lat="29.495472" lon="104.09666"><ele>365.96594</ele><time>2026-01-09T23:41:11.000Z</time></trkpt>
        <trkpt lat="29.495526" lon="104.096677"><ele>365.68753</ele><time>2026-01-09T23:41:18.000Z</time></trkpt>
        <trkpt lat="29.495572" lon="104.09669"><ele>365.8823</ele><time>2026-01-09T23:41:24.000Z</time></trkpt>
        <trkpt lat="29.495625" lon="104.096703"><ele>365.6395</ele><time>2026-01-09T23:41:31.000Z</time></trkpt>
        <trkpt lat="29.495677" lon="104.096726"><ele>365.59076</ele><time>2026-01-09T23:41:37.000Z</time></trkpt>
        <trkpt lat="29.495722" lon="104.096759"><ele>365.72684</ele><time>2026-01-09T23:41:43.000Z</time></trkpt>
        <trkpt lat="29.495767" lon="104.096774"><ele>366.17105</ele><time>2026-01-09T23:41:49.000Z</time></trkpt>
        <trkpt lat="29.495809" lon="104.096767"><ele>366.20718</ele><time>2026-01-09T23:41:54.000Z</time></trkpt>
        <trkpt lat="29.49586" lon="104.096768"><ele>366.19354</ele><time>2026-01-09T23:42:01.000Z</time></trkpt>
        <trkpt lat="29.495909" lon="104.096771"><ele>366.7519</ele><time>2026-01-09T23:42:10.000Z</time></trkpt>
        <trkpt lat="29.495949" lon="104.096746"><ele>366.6127</ele><time>2026-01-09T23:42:16.000Z</time></trkpt>
        <trkpt lat="29.495997" lon="104.096735"><ele>366.55655</ele><time>2026-01-09T23:42:21.000Z</time></trkpt>
        <trkpt lat="29.496051" lon="104.096742"><ele>366.22668</ele><time>2026-01-09T23:42:27.000Z</time></trkpt>
        <trkpt lat="29.496111" lon="104.096749"><ele>365.9575</ele><time>2026-01-09T23:42:35.000Z</time></trkpt>
        <trkpt lat="29.496156" lon="104.096725"><ele>366.42163</ele><time>2026-01-09T23:42:41.000Z</time></trkpt>
        <trkpt lat="29.496204" lon="104.096713"><ele>366.74982</ele><time>2026-01-09T23:42:49.000Z</time></trkpt>
        <trkpt lat="29.496249" lon="104.096737"><ele>367.00323</ele><time>2026-01-09T23:42:58.000Z</time></trkpt>
        <trkpt lat="29.496285" lon="104.096764"><ele>366.7945</ele><time>2026-01-09T23:43:02.000Z</time></trkpt>
        <trkpt lat="29.496337" lon="104.09678"><ele>368.3215</ele><time>2026-01-09T23:43:21.000Z</time></trkpt>
        <trkpt lat="29.496351" lon="104.09682"><ele>366.7682</ele><time>2026-01-09T23:43:28.000Z</time></trkpt>
        <trkpt lat="29.496354" lon="104.096885"><ele>365.47418</ele><time>2026-01-09T23:43:34.000Z</time></trkpt>
        <trkpt lat="29.496347" lon="104.096938"><ele>365.382</ele><time>2026-01-09T23:43:38.000Z</time></trkpt>
        <trkpt lat="29.496333" lon="104.096998"><ele>365.305</ele><time>2026-01-09T23:43:43.000Z</time></trkpt>
        <trkpt lat="29.496321" lon="104.097059"><ele>365.2934</ele><time>2026-01-09T23:43:48.000Z</time></trkpt>
        <trkpt lat="29.496299" lon="104.097113"><ele>365.2633</ele><time>2026-01-09T23:43:53.000Z</time></trkpt>
        <trkpt lat="29.496258" lon="104.097146"><ele>365.1277</ele><time>2026-01-09T23:44:02.000Z</time></trkpt>
        <trkpt lat="29.496213" lon="104.097125"><ele>365.9679</ele><time>2026-01-09T23:44:15.000Z</time></trkpt>
        <trkpt lat="29.496173" lon="104.09711"><ele>366.19522</ele><time>2026-01-09T23:44:20.000Z</time></trkpt>
        <trkpt lat="29.496116" lon="104.097104"><ele>366.5208</ele><time>2026-01-09T23:44:28.000Z</time></trkpt>
        <trkpt lat="29.496063" lon="104.09711"><ele>366.98386</ele><time>2026-01-09T23:44:35.000Z</time></trkpt>
        <trkpt lat="29.496018" lon="104.097114"><ele>366.87955</ele><time>2026-01-09T23:44:40.000Z</time></trkpt>
        <trkpt lat="29.495964" lon="104.097115"><ele>366.4613</ele><time>2026-01-09T23:44:50.000Z</time></trkpt>
        <trkpt lat="29.495925" lon="104.097126"><ele>366.63562</ele><time>2026-01-09T23:44:56.000Z</time></trkpt>
        <trkpt lat="29.495874" lon="104.097119"><ele>366.6736</ele><time>2026-01-09T23:45:03.000Z</time></trkpt>
        <trkpt lat="29.495826" lon="104.097126"><ele>366.7946</ele><time>2026-01-09T23:45:10.000Z</time></trkpt>
        <trkpt lat="29.49578" lon="104.097134"><ele>367.34113</ele><time>2026-01-09T23:45:17.000Z</time></trkpt>
        <trkpt lat="29.495732" lon="104.097122"><ele>367.78488</ele><time>2026-01-09T23:45:28.000Z</time></trkpt>
        <trkpt lat="29.49568" lon="104.09711"><ele>368.5806</ele><time>2026-01-09T23:46:04.000Z</time></trkpt>
        <trkpt lat="29.495636" lon="104.097127"><ele>369.00473</ele><time>2026-01-09T23:46:40.000Z</time></trkpt>
        <trkpt lat="29.495594" lon="104.097143"><ele>369.72488</ele><time>2026-01-09T23:46:53.000Z</time></trkpt>
        <trkpt lat="29.495547" lon="104.09715"><ele>369.46918</ele><time>2026-01-09T23:47:07.000Z</time></trkpt>
        <trkpt lat="29.495499" lon="104.097135"><ele>368.797</ele><time>2026-01-09T23:47:14.000Z</time></trkpt>
        <trkpt lat="29.495449" lon="104.097119"><ele>369.3475</ele><time>2026-01-09T23:47:23.000Z</time></trkpt>
        <trkpt lat="29.495404" lon="104.097101"><ele>369.44485</ele><time>2026-01-09T23:47:29.000Z</time></trkpt>
        <trkpt lat="29.495357" lon="104.097081"><ele>369.32034</ele><time>2026-01-09T23:47:36.000Z</time></trkpt>
        <trkpt lat="29.495302" lon="104.097071"><ele>369.14676</ele><time>2026-01-09T23:47:53.000Z</time></trkpt>
        <trkpt lat="29.495262" lon="104.097057"><ele>369.5171</ele><time>2026-01-09T23:48:00.000Z</time></trkpt>
        <trkpt lat="29.495216" lon="104.097069"><ele>369.29868</ele><time>2026-01-09T23:48:08.000Z</time></trkpt>
        <trkpt lat="29.495173" lon="104.097091"><ele>370.0963</ele><time>2026-01-09T23:48:15.000Z</time></trkpt>
        <trkpt lat="29.495133" lon="104.097086"><ele>370.56464</ele><time>2026-01-09T23:48:19.000Z</time></trkpt>
        <trkpt lat="29.495076" lon="104.097097"><ele>371.58698</ele><time>2026-01-09T23:48:27.000Z</time></trkpt>
        <trkpt lat="29.495033" lon="104.097079"><ele>370.52298</ele><time>2026-01-09T23:48:35.000Z</time></trkpt>
        <trkpt lat="29.494987" lon="104.097071"><ele>369.84793</ele><time>2026-01-09T23:48:42.000Z</time></trkpt>
        <trkpt lat="29.494942" lon="104.097065"><ele>369.73788</ele><time>2026-01-09T23:48:48.000Z</time></trkpt>
        <trkpt lat="29.494889" lon="104.097053"><ele>369.56534</ele><time>2026-01-09T23:48:54.000Z</time></trkpt>
        <trkpt lat="29.49482" lon="104.097038"><ele>370.1081</ele><time>2026-01-09T23:48:59.000Z</time></trkpt>
        <trkpt lat="29.494768" lon="104.097063"><ele>371.30478</ele><time>2026-01-09T23:49:10.000Z</time></trkpt>
        <trkpt lat="29.494727" lon="104.097051"><ele>372.4822</ele><time>2026-01-09T23:49:19.000Z</time></trkpt>
        <trkpt lat="29.494694" lon="104.097028"><ele>372.69946</ele><time>2026-01-09T23:49:23.000Z</time></trkpt>
        <trkpt lat="29.494647" lon="104.097001"><ele>373.30566</ele><time>2026-01-09T23:49:28.000Z</time></trkpt>
        <trkpt lat="29.494604" lon="104.096988"><ele>373.92795</ele><time>2026-01-09T23:49:32.000Z</time></trkpt>
        <trkpt lat="29.494557" lon="104.096966"><ele>374.7623</ele><time>2026-01-09T23:49:37.000Z</time></trkpt>
        <trkpt lat="29.494521" lon="104.096938"><ele>375.575</ele><time>2026-01-09T23:49:41.000Z</time></trkpt>
        <trkpt lat="29.494483" lon="104.0969"><ele>376.01804</ele><time>2026-01-09T23:49:46.000Z</time></trkpt>
        <trkpt lat="29.494437" lon="104.096898"><ele>377.4919</ele><time>2026-01-09T23:49:51.000Z</time></trkpt>
        <trkpt lat="29.494395" lon="104.096939"><ele>379.5408</ele><time>2026-01-09T23:49:59.000Z</time></trkpt>
        <trkpt lat="29.494405" lon="104.096994"><ele>380.51382</ele><time>2026-01-09T23:50:06.000Z</time></trkpt>
        <trkpt lat="29.494436" lon="104.097051"><ele>381.87497</ele><time>2026-01-09T23:50:20.000Z</time></trkpt>
        <trkpt lat="29.494472" lon="104.097083"><ele>382.2327</ele><time>2026-01-09T23:50:30.000Z</time></trkpt>
        <trkpt lat="29.494457" lon="104.097133"><ele>383.08606</ele><time>2026-01-09T23:50:55.000Z</time></trkpt>
        <trkpt lat="29.494431" lon="104.097174"><ele>383.39993</ele><time>2026-01-09T23:51:04.000Z</time></trkpt>
        <trkpt lat="29.494398" lon="104.097205"><ele>383.71338</ele><time>2026-01-09T23:51:09.000Z</time></trkpt>
        <trkpt lat="29.494359" lon="104.097232"><ele>384.32162</ele><time>2026-01-09T23:51:13.000Z</time></trkpt>
        <trkpt lat="29.494313" lon="104.097268"><ele>384.9347</ele><time>2026-01-09T23:51:18.000Z</time></trkpt>
        <trkpt lat="29.494274" lon="104.097308"><ele>385.6459</ele><time>2026-01-09T23:51:23.000Z</time></trkpt>
        <trkpt lat="29.494253" lon="104.097361"><ele>387.2088</ele><time>2026-01-09T23:51:29.000Z</time></trkpt>
        <trkpt lat="29.494274" lon="104.097406"><ele>388.248</ele><time>2026-01-09T23:51:34.000Z</time></trkpt>
        <trkpt lat="29.494308" lon="104.09746"><ele>389.09967</ele><time>2026-01-09T23:51:40.000Z</time></trkpt>
        <trkpt lat="29.494346" lon="104.097503"><ele>389.694</ele><time>2026-01-09T23:51:47.000Z</time></trkpt>
        <trkpt lat="29.494379" lon="104.097547"><ele>390.15594</ele><time>2026-01-09T23:51:57.000Z</time></trkpt>
        <trkpt lat="29.494415" lon="104.097582"><ele>389.8236</ele><time>2026-01-09T23:52:15.000Z</time></trkpt>
        <trkpt lat="29.494449" lon="104.097615"><ele>390.0582</ele><time>2026-01-09T23:52:21.000Z</time></trkpt>
        <trkpt lat="29.494488" lon="104.097657"><ele>390.20145</ele><time>2026-01-09T23:52:27.000Z</time></trkpt>
        <trkpt lat="29.49453" lon="104.097701"><ele>390.59576</ele><time>2026-01-09T23:52:33.000Z</time></trkpt>
        <trkpt lat="29.494572" lon="104.097732"><ele>390.8427</ele><time>2026-01-09T23:52:39.000Z</time></trkpt>
        <trkpt lat="29.494616" lon="104.097755"><ele>390.9312</ele><time>2026-01-09T23:52:45.000Z</time></trkpt>
        <trkpt lat="29.494648" lon="104.097783"><ele>390.8361</ele><time>2026-01-09T23:52:49.000Z</time></trkpt>
        <trkpt lat="29.494693" lon="104.097824"><ele>390.87112</ele><time>2026-01-09T23:53:09.000Z</time></trkpt>
        <trkpt lat="29.494713" lon="104.097865"><ele>390.58405</ele><time>2026-01-09T23:53:21.000Z</time></trkpt>
        <trkpt lat="29.494701" lon="104.097917"><ele>390.45166</ele><time>2026-01-09T23:53:55.000Z</time></trkpt>
        <trkpt lat="29.494724" lon="104.097868"><ele>391.0279</ele><time>2026-01-09T23:54:16.000Z</time></trkpt>
        <trkpt lat="29.494774" lon="104.097858"><ele>390.65726</ele><time>2026-01-09T23:54:25.000Z</time></trkpt>
        <trkpt lat="29.494827" lon="104.097864"><ele>390.46216</ele><time>2026-01-09T23:54:31.000Z</time></trkpt>
        <trkpt lat="29.494884" lon="104.097868"><ele>390.97696</ele><time>2026-01-09T23:54:38.000Z</time></trkpt>
        <trkpt lat="29.49493" lon="104.097875"><ele>391.22263</ele><time>2026-01-09T23:54:43.000Z</time></trkpt>
        <trkpt lat="29.494984" lon="104.097887"><ele>391.56027</ele><time>2026-01-09T23:54:50.000Z</time></trkpt>
        <trkpt lat="29.495033" lon="104.0979"><ele>391.4704</ele><time>2026-01-09T23:54:56.000Z</time></trkpt>
        <trkpt lat="29.495084" lon="104.097916"><ele>391.32822</ele><time>2026-01-09T23:55:02.000Z</time></trkpt>
        <trkpt lat="29.495129" lon="104.097931"><ele>390.84625</ele><time>2026-01-09T23:55:07.000Z</time></trkpt>
        <trkpt lat="29.495181" lon="104.097946"><ele>390.71378</ele><time>2026-01-09T23:55:13.000Z</time></trkpt>
        <trkpt lat="29.495229" lon="104.097966"><ele>390.4872</ele><time>2026-01-09T23:55:18.000Z</time></trkpt>
        <trkpt lat="29.495273" lon="104.097979"><ele>389.83258</ele><time>2026-01-09T23:55:22.000Z</time></trkpt>
        <trkpt lat="29.495325" lon="104.097993"><ele>389.0919</ele><time>2026-01-09T23:55:27.000Z</time></trkpt>
        <trkpt lat="29.495374" lon="104.098005"><ele>388.41547</ele><time>2026-01-09T23:55:32.000Z</time></trkpt>
        <trkpt lat="29.495422" lon="104.098016"><ele>388.40512</ele><time>2026-01-09T23:55:37.000Z</time></trkpt>
        <trkpt lat="29.495469" lon="104.098027"><ele>388.3867</ele><time>2026-01-09T23:55:41.000Z</time></trkpt>
        <trkpt lat="29.495504" lon="104.098063"><ele>387.89615</ele><time>2026-01-09T23:55:46.000Z</time></trkpt>
        <trkpt lat="29.495532" lon="104.098114"><ele>387.6993</ele><time>2026-01-09T23:55:53.000Z</time></trkpt>
        <trkpt lat="29.495576" lon="104.098134"><ele>387.9303</ele><time>2026-01-09T23:55:58.000Z</time></trkpt>
        <trkpt lat="29.495621" lon="104.098143"><ele>388.31094</ele><time>2026-01-09T23:56:03.000Z</time></trkpt>
        <trkpt lat="29.495673" lon="104.09815"><ele>388.6236</ele><time>2026-01-09T23:56:07.000Z</time></trkpt>
        <trkpt lat="29.495733" lon="104.09815"><ele>388.67825</ele><time>2026-01-09T23:56:13.000Z</time></trkpt>
        <trkpt lat="29.495783" lon="104.098137"><ele>388.88153</ele><time>2026-01-09T23:56:18.000Z</time></trkpt>
        <trkpt lat="29.495832" lon="104.098149"><ele>389.15286</ele><time>2026-01-09T23:56:24.000Z</time></trkpt>
        <trkpt lat="29.495877" lon="104.09815"><ele>389.28043</ele><time>2026-01-09T23:56:28.000Z</time></trkpt>
        <trkpt lat="29.495935" lon="104.098153"><ele>391.61475</ele><time>2026-01-09T23:56:37.000Z</time></trkpt>
        <trkpt lat="29.495982" lon="104.09816"><ele>392.38187</ele><time>2026-01-09T23:56:42.000Z</time></trkpt>
        <trkpt lat="29.496033" lon="104.098158"><ele>392.5744</ele><time>2026-01-09T23:56:47.000Z</time></trkpt>
        <trkpt lat="29.496086" lon="104.09814"><ele>392.59134</ele><time>2026-01-09T23:56:52.000Z</time></trkpt>
        <trkpt lat="29.496137" lon="104.098145"><ele>393.55807</ele><time>2026-01-09T23:57:00.000Z</time></trkpt>
        <trkpt lat="29.496147" lon="104.098199"><ele>395.84097</ele><time>2026-01-09T23:57:14.000Z</time></trkpt>
        <trkpt lat="29.496171" lon="104.098242"><ele>397.32495</ele><time>2026-01-09T23:57:21.000Z</time></trkpt>
        <trkpt lat="29.496195" lon="104.098295"><ele>397.35837</ele><time>2026-01-09T23:57:30.000Z</time></trkpt>
        <trkpt lat="29.496236" lon="104.098327"><ele>397.01633</ele><time>2026-01-09T23:57:43.000Z</time></trkpt>
        <trkpt lat="29.49628" lon="104.098343"><ele>398.09753</ele><time>2026-01-09T23:57:51.000Z</time></trkpt>
        <trkpt lat="29.496306" lon="104.098388"><ele>397.88742</ele><time>2026-01-09T23:57:59.000Z</time></trkpt>
        <trkpt lat="29.496324" lon="104.098451"><ele>394.752</ele><time>2026-01-09T23:58:48.000Z</time></trkpt>
        <trkpt lat="29.496351" lon="104.098474"><ele>394.9309</ele><time>2026-01-09T23:58:53.000Z</time></trkpt>
        <trkpt lat="29.496395" lon="104.098508"><ele>395.55893</ele><time>2026-01-09T23:58:58.000Z</time></trkpt>
        <trkpt lat="29.496441" lon="104.098553"><ele>395.78088</ele><time>2026-01-09T23:59:03.000Z</time></trkpt>
        <trkpt lat="29.496473" lon="104.098598"><ele>396.08566</ele><time>2026-01-09T23:59:08.000Z</time></trkpt>
        <trkpt lat="29.496513" lon="104.098625"><ele>396.02084</ele><time>2026-01-09T23:59:14.000Z</time></trkpt>
        <trkpt lat="29.496549" lon="104.098654"><ele>396.39746</ele><time>2026-01-09T23:59:18.000Z</time></trkpt>
        <trkpt lat="29.496588" lon="104.098696"><ele>396.7402</ele><time>2026-01-09T23:59:23.000Z</time></trkpt>
        <trkpt lat="29.496614" lon="104.098752"><ele>395.86353</ele><time>2026-01-09T23:59:29.000Z</time></trkpt>
        <trkpt lat="29.49663" lon="104.098812"><ele>393.78714</ele><time>2026-01-09T23:59:37.000Z</time></trkpt>
        <trkpt lat="29.496614" lon="104.098866"><ele>391.70923</ele><time>2026-01-09T23:59:46.000Z</time></trkpt>
        <trkpt lat="29.496625" lon="104.098912"><ele>389.90372</ele><time>2026-01-09T23:59:53.000Z</time></trkpt>
        <trkpt lat="29.496599" lon="104.098873"><ele>391.17334</ele><time>2026-01-10T00:00:48.000Z</time></trkpt>
        <trkpt lat="29.496596" lon="104.098831"><ele>391.9913</ele><time>2026-01-10T00:00:52.000Z</time></trkpt>
        <trkpt lat="29.496589" lon="104.098775"><ele>393.43982</ele><time>2026-01-10T00:00:58.000Z</time></trkpt>
        <trkpt lat="29.496559" lon="104.098731"><ele>395.97015</ele><time>2026-01-10T00:01:05.000Z</time></trkpt>
        <trkpt lat="29.496542" lon="104.098682"><ele>397.20065</ele><time>2026-01-10T00:01:12.000Z</time></trkpt>
        <trkpt lat="29.49651" lon="104.098645"><ele>397.70285</ele><time>2026-01-10T00:01:19.000Z</time></trkpt>
        <trkpt lat="29.496465" lon="104.098619"><ele>397.0324</ele><time>2026-01-10T00:01:36.000Z</time></trkpt>
        <trkpt lat="29.49644" lon="104.098584"><ele>396.8505</ele><time>2026-01-10T00:01:42.000Z</time></trkpt>
        <trkpt lat="29.496409" lon="104.098535"><ele>397.2129</ele><time>2026-01-10T00:01:48.000Z</time></trkpt>
        <trkpt lat="29.496373" lon="104.098492"><ele>397.61795</ele><time>2026-01-10T00:01:55.000Z</time></trkpt>
        <trkpt lat="29.496339" lon="104.098459"><ele>397.495</ele><time>2026-01-10T00:02:01.000Z</time></trkpt>
        <trkpt lat="29.496302" lon="104.09844"><ele>397.5726</ele><time>2026-01-10T00:02:05.000Z</time></trkpt>
        <trkpt lat="29.496276" lon="104.098391"><ele>397.70355</ele><time>2026-01-10T00:02:11.000Z</time></trkpt>
        <trkpt lat="29.496261" lon="104.098331"><ele>399.74905</ele><time>2026-01-10T00:02:27.000Z</time></trkpt>
        <trkpt lat="29.496219" lon="104.098317"><ele>399.47278</ele><time>2026-01-10T00:02:35.000Z</time></trkpt>
        <trkpt lat="29.496251" lon="104.098302"><ele>399.1459</ele><time>2026-01-10T00:02:46.000Z</time></trkpt>
        <trkpt lat="29.496305" lon="104.098292"><ele>400.37772</ele><time>2026-01-10T00:02:58.000Z</time></trkpt>
        <trkpt lat="29.496353" lon="104.098319"><ele>401.85834</ele><time>2026-01-10T00:03:22.000Z</time></trkpt>
        <trkpt lat="29.496389" lon="104.09834"><ele>402.51096</ele><time>2026-01-10T00:03:29.000Z</time></trkpt>
        <trkpt lat="29.496436" lon="104.098372"><ele>403.43567</ele><time>2026-01-10T00:03:35.000Z</time></trkpt>
        <trkpt lat="29.496479" lon="104.098395"><ele>403.5086</ele><time>2026-01-10T00:03:40.000Z</time></trkpt>
        <trkpt lat="29.496533" lon="104.098408"><ele>403.95682</ele><time>2026-01-10T00:03:47.000Z</time></trkpt>
        <trkpt lat="29.496578" lon="104.098431"><ele>404.599</ele><time>2026-01-10T00:03:52.000Z</time></trkpt>
        <trkpt lat="29.496615" lon="104.09846"><ele>404.86475</ele><time>2026-01-10T00:03:56.000Z</time></trkpt>
        <trkpt lat="29.49666" lon="104.09848"><ele>405.2518</ele><time>2026-01-10T00:04:00.000Z</time></trkpt>
        <trkpt lat="29.496704" lon="104.09852"><ele>406.2601</ele><time>2026-01-10T00:04:05.000Z</time></trkpt>
        <trkpt lat="29.496737" lon="104.098569"><ele>407.7942</ele><time>2026-01-10T00:04:11.000Z</time></trkpt>
        <trkpt lat="29.496771" lon="104.09861"><ele>408.77304</ele><time>2026-01-10T00:04:17.000Z</time></trkpt>
        <trkpt lat="29.496808" lon="104.098649"><ele>409.01343</ele><time>2026-01-10T00:04:22.000Z</time></trkpt>
        <trkpt lat="29.496845" lon="104.098689"><ele>408.61386</ele><time>2026-01-10T00:04:28.000Z</time></trkpt>
        <trkpt lat="29.496883" lon="104.098732"><ele>408.82828</ele><time>2026-01-10T00:04:35.000Z</time></trkpt>
        <trkpt lat="29.496929" lon="104.098742"><ele>408.9717</ele><time>2026-01-10T00:04:41.000Z</time></trkpt>
        <trkpt lat="29.49697" lon="104.098759"><ele>409.26538</ele><time>2026-01-10T00:04:45.000Z</time></trkpt>
        <trkpt lat="29.497015" lon="104.098752"><ele>409.90463</ele><time>2026-01-10T00:04:49.000Z</time></trkpt>
        <trkpt lat="29.497058" lon="104.098763"><ele>411.24734</ele><time>2026-01-10T00:04:53.000Z</time></trkpt>
        <trkpt lat="29.497101" lon="104.09878"><ele>412.65417</ele><time>2026-01-10T00:04:57.000Z</time></trkpt>
        <trkpt lat="29.497159" lon="104.098811"><ele>414.4453</ele><time>2026-01-10T00:05:04.000Z</time></trkpt>
        <trkpt lat="29.497198" lon="104.098842"><ele>415.05338</ele><time>2026-01-10T00:05:10.000Z</time></trkpt>
        <trkpt lat="29.497235" lon="104.098881"><ele>416.00677</ele><time>2026-01-10T00:05:16.000Z</time></trkpt>
        <trkpt lat="29.497266" lon="104.098925"><ele>416.20596</ele><time>2026-01-10T00:05:23.000Z</time></trkpt>
        <trkpt lat="29.49729" lon="104.09897"><ele>416.08026</ele><time>2026-01-10T00:05:28.000Z</time></trkpt>
        <trkpt lat="29.497338" lon="104.099001"><ele>414.98346</ele><time>2026-01-10T00:05:35.000Z</time></trkpt>
        <trkpt lat="29.497385" lon="104.099022"><ele>415.0667</ele><time>2026-01-10T00:05:41.000Z</time></trkpt>
        <trkpt lat="29.497408" lon="104.099062"><ele>415.31012</ele><time>2026-01-10T00:05:45.000Z</time></trkpt>
        <trkpt lat="29.49743" lon="104.09912"><ele>415.68314</ele><time>2026-01-10T00:05:51.000Z</time></trkpt>
        <trkpt lat="29.497458" lon="104.099167"><ele>415.86465</ele><time>2026-01-10T00:05:57.000Z</time></trkpt>
        <trkpt lat="29.497474" lon="104.099223"><ele>415.38263</ele><time>2026-01-10T00:06:04.000Z</time></trkpt>
        <trkpt lat="29.497459" lon="104.09928"><ele>414.6609</ele><time>2026-01-10T00:06:10.000Z</time></trkpt>
        <trkpt lat="29.497433" lon="104.099324"><ele>413.9052</ele><time>2026-01-10T00:06:15.000Z</time></trkpt>
        <trkpt lat="29.497399" lon="104.09937"><ele>412.59857</ele><time>2026-01-10T00:06:20.000Z</time></trkpt>
        <trkpt lat="29.497373" lon="104.099418"><ele>411.60953</ele><time>2026-01-10T00:06:24.000Z</time></trkpt>
        <trkpt lat="29.497371" lon="104.099481"><ele>410.54492</ele><time>2026-01-10T00:06:33.000Z</time></trkpt>
        <trkpt lat="29.49735" lon="104.099529"><ele>412.6178</ele><time>2026-01-10T00:06:44.000Z</time></trkpt>
        <trkpt lat="29.497362" lon="104.099577"><ele>414.3564</ele><time>2026-01-10T00:07:00.000Z</time></trkpt>
        <trkpt lat="29.49735" lon="104.099631"><ele>415.95026</ele><time>2026-01-10T00:07:12.000Z</time></trkpt>
        <trkpt lat="29.497384" lon="104.099661"><ele>418.3552</ele><time>2026-01-10T00:07:19.000Z</time></trkpt>
        <trkpt lat="29.497435" lon="104.099691"><ele>420.26202</ele><time>2026-01-10T00:07:28.000Z</time></trkpt>
        <trkpt lat="29.497472" lon="104.099729"><ele>421.50613</ele><time>2026-01-10T00:07:38.000Z</time></trkpt>
        <trkpt lat="29.497495" lon="104.099779"><ele>422.88492</ele><time>2026-01-10T00:07:47.000Z</time></trkpt>
        <trkpt lat="29.497532" lon="104.099813"><ele>424.12445</ele><time>2026-01-10T00:07:54.000Z</time></trkpt>
        <trkpt lat="29.497572" lon="104.099847"><ele>424.6233</ele><time>2026-01-10T00:08:00.000Z</time></trkpt>
        <trkpt lat="29.497588" lon="104.0999"><ele>425.43195</ele><time>2026-01-10T00:08:06.000Z</time></trkpt>
        <trkpt lat="29.497582" lon="104.09996"><ele>427.42532</ele><time>2026-01-10T00:08:13.000Z</time></trkpt>
        <trkpt lat="29.497601" lon="104.10002"><ele>428.9974</ele><time>2026-01-10T00:08:54.000Z</time></trkpt>
        <trkpt lat="29.497638" lon="104.100015"><ele>429.0638</ele><time>2026-01-10T00:09:00.000Z</time></trkpt>
        <trkpt lat="29.497679" lon="104.100034"><ele>429.10007</ele><time>2026-01-10T00:09:04.000Z</time></trkpt>
        <trkpt lat="29.497725" lon="104.100083"><ele>427.90967</ele><time>2026-01-10T00:09:11.000Z</time></trkpt>
        <trkpt lat="29.497765" lon="104.10011"><ele>426.0851</ele><time>2026-01-10T00:09:16.000Z</time></trkpt>
        <trkpt lat="29.497797" lon="104.100155"><ele>424.61414</ele><time>2026-01-10T00:09:22.000Z</time></trkpt>
        <trkpt lat="29.497824" lon="104.100197"><ele>424.12894</ele><time>2026-01-10T00:09:27.000Z</time></trkpt>
        <trkpt lat="29.497859" lon="104.100234"><ele>423.48975</ele><time>2026-01-10T00:09:31.000Z</time></trkpt>
        <trkpt lat="29.497888" lon="104.100286"><ele>423.65143</ele><time>2026-01-10T00:09:44.000Z</time></trkpt>
        <trkpt lat="29.497912" lon="104.100328"><ele>425.06018</ele><time>2026-01-10T00:09:52.000Z</time></trkpt>
        <trkpt lat="29.49796" lon="104.100342"><ele>425.64224</ele><time>2026-01-10T00:10:01.000Z</time></trkpt>
        <trkpt lat="29.498004" lon="104.10035"><ele>425.90213</ele><time>2026-01-10T00:10:07.000Z</time></trkpt>
        <trkpt lat="29.498056" lon="104.100365"><ele>426.35214</ele><time>2026-01-10T00:10:13.000Z</time></trkpt>
        <trkpt lat="29.498103" lon="104.100354"><ele>426.1788</ele><time>2026-01-10T00:10:18.000Z</time></trkpt>
        <trkpt lat="29.498153" lon="104.100351"><ele>426.1106</ele><time>2026-01-10T00:10:24.000Z</time></trkpt>
        <trkpt lat="29.498202" lon="104.100362"><ele>425.80725</ele><time>2026-01-10T00:10:30.000Z</time></trkpt>
        <trkpt lat="29.498239" lon="104.100391"><ele>426.03674</ele><time>2026-01-10T00:10:35.000Z</time></trkpt>
        <trkpt lat="29.498281" lon="104.100426"><ele>426.3352</ele><time>2026-01-10T00:10:41.000Z</time></trkpt>
        <trkpt lat="29.498324" lon="104.100464"><ele>426.41858</ele><time>2026-01-10T00:10:48.000Z</time></trkpt>
        <trkpt lat="29.498351" lon="104.100501"><ele>426.72278</ele><time>2026-01-10T00:10:54.000Z</time></trkpt>
        <trkpt lat="29.498387" lon="104.100551"><ele>426.23114</ele><time>2026-01-10T00:11:02.000Z</time></trkpt>
        <trkpt lat="29.498408" lon="104.100595"><ele>426.28653</ele><time>2026-01-10T00:11:07.000Z</time></trkpt>
        <trkpt lat="29.498437" lon="104.100642"><ele>427.12582</ele><time>2026-01-10T00:11:13.000Z</time></trkpt>
        <trkpt lat="29.498463" lon="104.100685"><ele>427.70538</ele><time>2026-01-10T00:11:18.000Z</time></trkpt>
        <trkpt lat="29.49848" lon="104.100733"><ele>427.47375</ele><time>2026-01-10T00:11:23.000Z</time></trkpt>
        <trkpt lat="29.498499" lon="104.100791"><ele>427.5199</ele><time>2026-01-10T00:11:29.000Z</time></trkpt>
        <trkpt lat="29.498502" lon="104.100851"><ele>426.7307</ele><time>2026-01-10T00:11:36.000Z</time></trkpt>
        <trkpt lat="29.498499" lon="104.100908"><ele>426.77692</ele><time>2026-01-10T00:11:41.000Z</time></trkpt>
        <trkpt lat="29.498486" lon="104.100969"><ele>426.8084</ele><time>2026-01-10T00:11:47.000Z</time></trkpt>
        <trkpt lat="29.498448" lon="104.101"><ele>427.02612</ele><time>2026-01-10T00:11:51.000Z</time></trkpt>
        <trkpt lat="29.498391" lon="104.101027"><ele>427.4379</ele><time>2026-01-10T00:11:57.000Z</time></trkpt>
        <trkpt lat="29.49834" lon="104.101042"><ele>428.20444</ele><time>2026-01-10T00:12:02.000Z</time></trkpt>
        <trkpt lat="29.498299" lon="104.101074"><ele>428.84982</ele><time>2026-01-10T00:12:07.000Z</time></trkpt>
        <trkpt lat="29.498262" lon="104.101098"><ele>429.30222</ele><time>2026-01-10T00:12:11.000Z</time></trkpt>
        <trkpt lat="29.498214" lon="104.10114"><ele>429.7646</ele><time>2026-01-10T00:12:17.000Z</time></trkpt>
        <trkpt lat="29.498201" lon="104.101195"><ele>430.0737</ele><time>2026-01-10T00:12:22.000Z</time></trkpt>
        <trkpt lat="29.498214" lon="104.101243"><ele>430.22925</ele><time>2026-01-10T00:12:26.000Z</time></trkpt>
        <trkpt lat="29.498251" lon="104.101294"><ele>430.86395</ele><time>2026-01-10T00:12:31.000Z</time></trkpt>
        <trkpt lat="29.498298" lon="104.101316"><ele>431.535</ele><time>2026-01-10T00:12:36.000Z</time></trkpt>
        <trkpt lat="29.498347" lon="104.101319"><ele>431.45563</ele><time>2026-01-10T00:12:41.000Z</time></trkpt>
        <trkpt lat="29.498398" lon="104.10132"><ele>430.7634</ele><time>2026-01-10T00:12:45.000Z</time></trkpt>
        <trkpt lat="29.498461" lon="104.101322"><ele>430.09116</ele><time>2026-01-10T00:12:51.000Z</time></trkpt>
        <trkpt lat="29.498511" lon="104.101343"><ele>429.6092</ele><time>2026-01-10T00:12:56.000Z</time></trkpt>
        <trkpt lat="29.498548" lon="104.101363"><ele>429.9597</ele><time>2026-01-10T00:12:59.000Z</time></trkpt>
        <trkpt lat="29.498592" lon="104.101385"><ele>430.2879</ele><time>2026-01-10T00:13:02.000Z</time></trkpt>
        <trkpt lat="29.49864" lon="104.10142"><ele>429.9963</ele><time>2026-01-10T00:13:06.000Z</time></trkpt>
        <trkpt lat="29.498681" lon="104.101462"><ele>429.60934</ele><time>2026-01-10T00:13:10.000Z</time></trkpt>
        <trkpt lat="29.498716" lon="104.101506"><ele>428.55737</ele><time>2026-01-10T00:13:14.000Z</time></trkpt>
        <trkpt lat="29.498739" lon="104.101557"><ele>427.4375</ele><time>2026-01-10T00:13:18.000Z</time></trkpt>
        <trkpt lat="29.498752" lon="104.101605"><ele>427.25388</ele><time>2026-01-10T00:13:21.000Z</time></trkpt>
        <trkpt lat="29.49875" lon="104.101679"><ele>427.47888</ele><time>2026-01-10T00:13:26.000Z</time></trkpt>
        <trkpt lat="29.498742" lon="104.10174"><ele>429.30328</ele><time>2026-01-10T00:13:30.000Z</time></trkpt>
        <trkpt lat="29.498734" lon="104.101798"><ele>431.1604</ele><time>2026-01-10T00:13:34.000Z</time></trkpt>
        <trkpt lat="29.498734" lon="104.101856"><ele>432.63663</ele><time>2026-01-10T00:13:38.000Z</time></trkpt>
        <trkpt lat="29.498753" lon="104.101917"><ele>432.9166</ele><time>2026-01-10T00:13:42.000Z</time></trkpt>
        <trkpt lat="29.498782" lon="104.101969"><ele>432.65518</ele><time>2026-01-10T00:13:46.000Z</time></trkpt>
        <trkpt lat="29.498823" lon="104.102011"><ele>431.94562</ele><time>2026-01-10T00:13:50.000Z</time></trkpt>
        <trkpt lat="29.498854" lon="104.102054"><ele>431.885</ele><time>2026-01-10T00:13:54.000Z</time></trkpt>
        <trkpt lat="29.498885" lon="104.102103"><ele>433.047</ele><time>2026-01-10T00:13:59.000Z</time></trkpt>
        <trkpt lat="29.498901" lon="104.102153"><ele>433.79108</ele><time>2026-01-10T00:14:04.000Z</time></trkpt>
        <trkpt lat="29.498922" lon="104.102201"><ele>434.41446</ele><time>2026-01-10T00:14:08.000Z</time></trkpt>
        <trkpt lat="29.498947" lon="104.102254"><ele>435.2227</ele><time>2026-01-10T00:14:13.000Z</time></trkpt>
        <trkpt lat="29.498964" lon="104.102306"><ele>435.07816</ele><time>2026-01-10T00:14:17.000Z</time></trkpt>
        <trkpt lat="29.498982" lon="104.10237"><ele>434.63104</ele><time>2026-01-10T00:14:23.000Z</time></trkpt>
        <trkpt lat="29.498997" lon="104.10242"><ele>434.37857</ele><time>2026-01-10T00:14:28.000Z</time></trkpt>
        <trkpt lat="29.499013" lon="104.102474"><ele>433.9465</ele><time>2026-01-10T00:14:33.000Z</time></trkpt>
        <trkpt lat="29.499026" lon="104.102527"><ele>433.41602</ele><time>2026-01-10T00:14:37.000Z</time></trkpt>
        <trkpt lat="29.499028" lon="104.102598"><ele>432.97815</ele><time>2026-01-10T00:14:42.000Z</time></trkpt>
        <trkpt lat="29.499022" lon="104.102653"><ele>432.6763</ele><time>2026-01-10T00:14:46.000Z</time></trkpt>
        <trkpt lat="29.499012" lon="104.102705"><ele>432.0553</ele><time>2026-01-10T00:14:50.000Z</time></trkpt>
        <trkpt lat="29.498998" lon="104.102756"><ele>431.662</ele><time>2026-01-10T00:14:54.000Z</time></trkpt>
        <trkpt lat="29.498989" lon="104.102808"><ele>431.47116</ele><time>2026-01-10T00:14:58.000Z</time></trkpt>
        <trkpt lat="29.498973" lon="104.102861"><ele>431.36267</ele><time>2026-01-10T00:15:02.000Z</time></trkpt>
        <trkpt lat="29.498958" lon="104.102919"><ele>431.163</ele><time>2026-01-10T00:15:06.000Z</time></trkpt>
        <trkpt lat="29.498941" lon="104.102972"><ele>430.96454</ele><time>2026-01-10T00:15:10.000Z</time></trkpt>
        <trkpt lat="29.498925" lon="104.103032"><ele>430.7822</ele><time>2026-01-10T00:15:15.000Z</time></trkpt>
        <trkpt lat="29.498908" lon="104.103085"><ele>430.54758</ele><time>2026-01-10T00:15:20.000Z</time></trkpt>
        <trkpt lat="29.498901" lon="104.103145"><ele>430.77853</ele><time>2026-01-10T00:15:25.000Z</time></trkpt>
        <trkpt lat="29.498892" lon="104.103208"><ele>431.81345</ele><time>2026-01-10T00:15:32.000Z</time></trkpt>
        <trkpt lat="29.498885" lon="104.103257"><ele>433.4725</ele><time>2026-01-10T00:15:37.000Z</time></trkpt>
        <trkpt lat="29.498867" lon="104.103308"><ele>434.80502</ele><time>2026-01-10T00:15:42.000Z</time></trkpt>
        <trkpt lat="29.498847" lon="104.103358"><ele>436.0303</ele><time>2026-01-10T00:15:47.000Z</time></trkpt>
        <trkpt lat="29.49883" lon="104.103408"><ele>436.7509</ele><time>2026-01-10T00:15:52.000Z</time></trkpt>
        <trkpt lat="29.498814" lon="104.103459"><ele>436.57767</ele><time>2026-01-10T00:15:57.000Z</time></trkpt>
        <trkpt lat="29.498794" lon="104.103516"><ele>436.09027</ele><time>2026-01-10T00:16:03.000Z</time></trkpt>
        <trkpt lat="29.498766" lon="104.103565"><ele>436.0979</ele><time>2026-01-10T00:16:08.000Z</time></trkpt>
        <trkpt lat="29.498739" lon="104.103617"><ele>436.3363</ele><time>2026-01-10T00:16:13.000Z</time></trkpt>
        <trkpt lat="29.498703" lon="104.103656"><ele>436.777</ele><time>2026-01-10T00:16:18.000Z</time></trkpt>
        <trkpt lat="29.498666" lon="104.103689"><ele>437.0994</ele><time>2026-01-10T00:16:22.000Z</time></trkpt>
        <trkpt lat="29.498628" lon="104.103723"><ele>437.84613</ele><time>2026-01-10T00:16:26.000Z</time></trkpt>
        <trkpt lat="29.498585" lon="104.103767"><ele>438.30478</ele><time>2026-01-10T00:16:31.000Z</time></trkpt>
        <trkpt lat="29.498541" lon="104.103799"><ele>438.91302</ele><time>2026-01-10T00:16:36.000Z</time></trkpt>
        <trkpt lat="29.498484" lon="104.103829"><ele>438.54886</ele><time>2026-01-10T00:16:42.000Z</time></trkpt>
        <trkpt lat="29.49844" lon="104.103854"><ele>438.5032</ele><time>2026-01-10T00:16:47.000Z</time></trkpt>
        <trkpt lat="29.4984" lon="104.103881"><ele>439.03064</ele><time>2026-01-10T00:16:51.000Z</time></trkpt>
        <trkpt lat="29.498363" lon="104.103917"><ele>439.5741</ele><time>2026-01-10T00:16:55.000Z</time></trkpt>
        <trkpt lat="29.498331" lon="104.103952"><ele>440.03662</ele><time>2026-01-10T00:16:58.000Z</time></trkpt>
        <trkpt lat="29.498285" lon="104.103986"><ele>440.43298</ele><time>2026-01-10T00:17:02.000Z</time></trkpt>
        <trkpt lat="29.498237" lon="104.104008"><ele>440.14722</ele><time>2026-01-10T00:17:06.000Z</time></trkpt>
        <trkpt lat="29.498196" lon="104.104021"><ele>440.25095</ele><time>2026-01-10T00:17:09.000Z</time></trkpt>
        <trkpt lat="29.498146" lon="104.104033"><ele>439.6505</ele><time>2026-01-10T00:17:13.000Z</time></trkpt>
        <trkpt lat="29.498094" lon="104.104039"><ele>439.66226</ele><time>2026-01-10T00:17:17.000Z</time></trkpt>
        <trkpt lat="29.498054" lon="104.104073"><ele>439.6432</ele><time>2026-01-10T00:17:22.000Z</time></trkpt>
        <trkpt lat="29.498035" lon="104.104124"><ele>439.40918</ele><time>2026-01-10T00:17:26.000Z</time></trkpt>
        <trkpt lat="29.498019" lon="104.104193"><ele>438.9552</ele><time>2026-01-10T00:17:31.000Z</time></trkpt>
        <trkpt lat="29.498017" lon="104.104259"><ele>438.82693</ele><time>2026-01-10T00:17:36.000Z</time></trkpt>
        <trkpt lat="29.498025" lon="104.104318"><ele>438.6341</ele><time>2026-01-10T00:17:41.000Z</time></trkpt>
        <trkpt lat="29.498038" lon="104.104372"><ele>438.38605</ele><time>2026-01-10T00:17:46.000Z</time></trkpt>
        <trkpt lat="29.498066" lon="104.104429"><ele>437.30713</ele><time>2026-01-10T00:17:52.000Z</time></trkpt>
        <trkpt lat="29.498091" lon="104.104483"><ele>437.4181</ele><time>2026-01-10T00:17:58.000Z</time></trkpt>
        <trkpt lat="29.498116" lon="104.104534"><ele>437.4478</ele><time>2026-01-10T00:18:03.000Z</time></trkpt>
        <trkpt lat="29.498135" lon="104.104585"><ele>437.3999</ele><time>2026-01-10T00:18:08.000Z</time></trkpt>
        <trkpt lat="29.498134" lon="104.10464"><ele>437.5586</ele><time>2026-01-10T00:18:13.000Z</time></trkpt>
        <trkpt lat="29.498121" lon="104.104691"><ele>437.5303</ele><time>2026-01-10T00:18:17.000Z</time></trkpt>
        <trkpt lat="29.498107" lon="104.104751"><ele>437.82382</ele><time>2026-01-10T00:18:22.000Z</time></trkpt>
        <trkpt lat="29.498095" lon="104.104807"><ele>438.29843</ele><time>2026-01-10T00:18:27.000Z</time></trkpt>
        <trkpt lat="29.498099" lon="104.104866"><ele>438.08475</ele><time>2026-01-10T00:18:33.000Z</time></trkpt>
        <trkpt lat="29.498131" lon="104.104907"><ele>437.3909</ele><time>2026-01-10T00:18:38.000Z</time></trkpt>
        <trkpt lat="29.49818" lon="104.104927"><ele>437.34323</ele><time>2026-01-10T00:18:43.000Z</time></trkpt>
        <trkpt lat="29.498225" lon="104.104938"><ele>437.33563</ele><time>2026-01-10T00:18:47.000Z</time></trkpt>
        <trkpt lat="29.498286" lon="104.104954"><ele>437.6786</ele><time>2026-01-10T00:18:52.000Z</time></trkpt>
        <trkpt lat="29.498339" lon="104.104977"><ele>438.26764</ele><time>2026-01-10T00:18:57.000Z</time></trkpt>
        <trkpt lat="29.498385" lon="104.105002"><ele>438.70947</ele><time>2026-01-10T00:19:02.000Z</time></trkpt>
        <trkpt lat="29.498427" lon="104.105026"><ele>439.68314</ele><time>2026-01-10T00:19:06.000Z</time></trkpt>
        <trkpt lat="29.498468" lon="104.105051"><ele>440.7141</ele><time>2026-01-10T00:19:09.000Z</time></trkpt>
        <trkpt lat="29.498509" lon="104.105086"><ele>442.2465</ele><time>2026-01-10T00:19:14.000Z</time></trkpt>
        <trkpt lat="29.498533" lon="104.105133"><ele>443.60733</ele><time>2026-01-10T00:19:20.000Z</time></trkpt>
        <trkpt lat="29.498518" lon="104.105194"><ele>444.66943</ele><time>2026-01-10T00:19:26.000Z</time></trkpt>
        <trkpt lat="29.498488" lon="104.105245"><ele>445.11923</ele><time>2026-01-10T00:19:31.000Z</time></trkpt>
        <trkpt lat="29.498469" lon="104.105299"><ele>445.0055</ele><time>2026-01-10T00:19:36.000Z</time></trkpt>
        <trkpt lat="29.498451" lon="104.105353"><ele>444.6839</ele><time>2026-01-10T00:19:40.000Z</time></trkpt>
        <trkpt lat="29.498438" lon="104.105412"><ele>443.97232</ele><time>2026-01-10T00:19:45.000Z</time></trkpt>
        <trkpt lat="29.498435" lon="104.105464"><ele>443.84494</ele><time>2026-01-10T00:19:49.000Z</time></trkpt>
        <trkpt lat="29.498438" lon="104.105517"><ele>443.94354</ele><time>2026-01-10T00:19:53.000Z</time></trkpt>
        <trkpt lat="29.498452" lon="104.10558"><ele>443.77585</ele><time>2026-01-10T00:19:59.000Z</time></trkpt>
        <trkpt lat="29.498468" lon="104.105633"><ele>443.7226</ele><time>2026-01-10T00:20:04.000Z</time></trkpt>
        <trkpt lat="29.498494" lon="104.105681"><ele>443.8858</ele><time>2026-01-10T00:20:09.000Z</time></trkpt>
        <trkpt lat="29.498525" lon="104.105729"><ele>443.74374</ele><time>2026-01-10T00:20:14.000Z</time></trkpt>
        <trkpt lat="29.498558" lon="104.105778"><ele>444.1184</ele><time>2026-01-10T00:20:19.000Z</time></trkpt>
        <trkpt lat="29.49859" lon="104.105825"><ele>444.32</ele><time>2026-01-10T00:20:24.000Z</time></trkpt>
        <trkpt lat="29.498618" lon="104.105863"><ele>444.81335</ele><time>2026-01-10T00:20:28.000Z</time></trkpt>
        <trkpt lat="29.49865" lon="104.105901"><ele>444.87314</ele><time>2026-01-10T00:20:32.000Z</time></trkpt>
        <trkpt lat="29.498683" lon="104.105943"><ele>444.8705</ele><time>2026-01-10T00:20:36.000Z</time></trkpt>
        <trkpt lat="29.498723" lon="104.105974"><ele>444.4971</ele><time>2026-01-10T00:20:40.000Z</time></trkpt>
        <trkpt lat="29.498764" lon="104.106017"><ele>443.88232</ele><time>2026-01-10T00:20:45.000Z</time></trkpt>
        <trkpt lat="29.498797" lon="104.106054"><ele>443.4344</ele><time>2026-01-10T00:20:49.000Z</time></trkpt>
        <trkpt lat="29.498821" lon="104.106101"><ele>443.53162</ele><time>2026-01-10T00:20:53.000Z</time></trkpt>
        <trkpt lat="29.498851" lon="104.106153"><ele>443.31757</ele><time>2026-01-10T00:20:58.000Z</time></trkpt>
        <trkpt lat="29.498881" lon="104.106207"><ele>442.57483</ele><time>2026-01-10T00:21:03.000Z</time></trkpt>
        <trkpt lat="29.498909" lon="104.106257"><ele>442.13412</ele><time>2026-01-10T00:21:08.000Z</time></trkpt>
        <trkpt lat="29.498945" lon="104.106301"><ele>442.43604</ele><time>2026-01-10T00:21:13.000Z</time></trkpt>
        <trkpt lat="29.498976" lon="104.106343"><ele>442.59814</ele><time>2026-01-10T00:21:17.000Z</time></trkpt>
        <trkpt lat="29.499019" lon="104.106378"><ele>441.99396</ele><time>2026-01-10T00:21:23.000Z</time></trkpt>
        <trkpt lat="29.499055" lon="104.106412"><ele>441.95328</ele><time>2026-01-10T00:21:27.000Z</time></trkpt>
        <trkpt lat="29.499093" lon="104.106449"><ele>442.3196</ele><time>2026-01-10T00:21:31.000Z</time></trkpt>
        <trkpt lat="29.499133" lon="104.106486"><ele>442.04587</ele><time>2026-01-10T00:21:37.000Z</time></trkpt>
        <trkpt lat="29.499172" lon="104.106516"><ele>442.3195</ele><time>2026-01-10T00:21:42.000Z</time></trkpt>
        <trkpt lat="29.499206" lon="104.106557"><ele>442.5174</ele><time>2026-01-10T00:21:47.000Z</time></trkpt>
        <trkpt lat="29.49923" lon="104.106599"><ele>442.5946</ele><time>2026-01-10T00:21:51.000Z</time></trkpt>
        <trkpt lat="29.499269" lon="104.106642"><ele>443.4802</ele><time>2026-01-10T00:21:58.000Z</time></trkpt>
        <trkpt lat="29.499287" lon="104.106697"><ele>443.0267</ele><time>2026-01-10T00:22:05.000Z</time></trkpt>
        <trkpt lat="29.499286" lon="104.106747"><ele>442.86816</ele><time>2026-01-10T00:22:09.000Z</time></trkpt>
        <trkpt lat="29.499277" lon="104.10681"><ele>442.72064</ele><time>2026-01-10T00:22:14.000Z</time></trkpt>
        <trkpt lat="29.499265" lon="104.106863"><ele>442.85266</ele><time>2026-01-10T00:22:18.000Z</time></trkpt>
        <trkpt lat="29.499256" lon="104.106918"><ele>442.72165</ele><time>2026-01-10T00:22:22.000Z</time></trkpt>
        <trkpt lat="29.49925" lon="104.106981"><ele>442.15683</ele><time>2026-01-10T00:22:28.000Z</time></trkpt>
        <trkpt lat="29.499237" lon="104.107034"><ele>441.74323</ele><time>2026-01-10T00:22:35.000Z</time></trkpt>
        <trkpt lat="29.499256" lon="104.107082"><ele>441.42627</ele><time>2026-01-10T00:22:41.000Z</time></trkpt>
        <trkpt lat="29.499292" lon="104.107114"><ele>441.78647</ele><time>2026-01-10T00:22:45.000Z</time></trkpt>
        <trkpt lat="29.499341" lon="104.107149"><ele>442.5185</ele><time>2026-01-10T00:22:50.000Z</time></trkpt>
        <trkpt lat="29.499395" lon="104.10718"><ele>443.09952</ele><time>2026-01-10T00:22:55.000Z</time></trkpt>
        <trkpt lat="29.499441" lon="104.107216"><ele>443.38202</ele><time>2026-01-10T00:23:00.000Z</time></trkpt>
        <trkpt lat="29.499472" lon="104.107265"><ele>443.51834</ele><time>2026-01-10T00:23:05.000Z</time></trkpt>
        <trkpt lat="29.499488" lon="104.107321"><ele>443.79764</ele><time>2026-01-10T00:23:10.000Z</time></trkpt>
        <trkpt lat="29.499511" lon="104.107376"><ele>444.50418</ele><time>2026-01-10T00:23:16.000Z</time></trkpt>
        <trkpt lat="29.499543" lon="104.107419"><ele>444.71143</ele><time>2026-01-10T00:23:21.000Z</time></trkpt>
        <trkpt lat="29.499574" lon="104.107461"><ele>444.3473</ele><time>2026-01-10T00:23:27.000Z</time></trkpt>
        <trkpt lat="29.499613" lon="104.107494"><ele>444.3493</ele><time>2026-01-10T00:23:34.000Z</time></trkpt>
        <trkpt lat="29.499643" lon="104.107535"><ele>444.0973</ele><time>2026-01-10T00:23:40.000Z</time></trkpt>
        <trkpt lat="29.499661" lon="104.107585"><ele>443.80875</ele><time>2026-01-10T00:23:45.000Z</time></trkpt>
        <trkpt lat="29.499688" lon="104.10763"><ele>443.53918</ele><time>2026-01-10T00:23:50.000Z</time></trkpt>
        <trkpt lat="29.499718" lon="104.107671"><ele>443.8202</ele><time>2026-01-10T00:23:56.000Z</time></trkpt>
        <trkpt lat="29.499754" lon="104.107706"><ele>444.05347</ele><time>2026-01-10T00:24:01.000Z</time></trkpt>
        <trkpt lat="29.499782" lon="104.107747"><ele>443.89496</ele><time>2026-01-10T00:24:06.000Z</time></trkpt>
        <trkpt lat="29.499812" lon="104.107795"><ele>443.9042</ele><time>2026-01-10T00:24:11.000Z</time></trkpt>
        <trkpt lat="29.499844" lon="104.107848"><ele>444.21396</ele><time>2026-01-10T00:24:16.000Z</time></trkpt>
        <trkpt lat="29.499865" lon="104.1079"><ele>444.65363</ele><time>2026-01-10T00:24:21.000Z</time></trkpt>
        <trkpt lat="29.499897" lon="104.107946"><ele>444.8127</ele><time>2026-01-10T00:24:26.000Z</time></trkpt>
        <trkpt lat="29.499944" lon="104.107971"><ele>445.17307</ele><time>2026-01-10T00:24:31.000Z</time></trkpt>
        <trkpt lat="29.499995" lon="104.107969"><ele>445.27637</ele><time>2026-01-10T00:24:36.000Z</time></trkpt>
        <trkpt lat="29.500046" lon="104.107954"><ele>445.44913</ele><time>2026-01-10T00:24:41.000Z</time></trkpt>
        <trkpt lat="29.500084" lon="104.107934"><ele>445.53085</ele><time>2026-01-10T00:24:44.000Z</time></trkpt>
        <trkpt lat="29.500133" lon="104.1079"><ele>445.33383</ele><time>2026-01-10T00:24:49.000Z</time></trkpt>
        <trkpt lat="29.500171" lon="104.107868"><ele>445.16464</ele><time>2026-01-10T00:24:53.000Z</time></trkpt>
        <trkpt lat="29.500217" lon="104.107828"><ele>445.14932</ele><time>2026-01-10T00:24:58.000Z</time></trkpt>
        <trkpt lat="29.500269" lon="104.107805"><ele>445.0769</ele><time>2026-01-10T00:25:03.000Z</time></trkpt>
        <trkpt lat="29.500309" lon="104.107833"><ele>445.4056</ele><time>2026-01-10T00:25:08.000Z</time></trkpt>
        <trkpt lat="29.500331" lon="104.107887"><ele>445.8761</ele><time>2026-01-10T00:25:12.000Z</time></trkpt>
        <trkpt lat="29.500363" lon="104.107943"><ele>446.67877</ele><time>2026-01-10T00:25:16.000Z</time></trkpt>
        <trkpt lat="29.500412" lon="104.107967"><ele>448.68283</ele><time>2026-01-10T00:25:20.000Z</time></trkpt>
        <trkpt lat="29.500467" lon="104.107961"><ele>449.37753</ele><time>2026-01-10T00:25:24.000Z</time></trkpt>
        <trkpt lat="29.500518" lon="104.107945"><ele>449.93005</ele><time>2026-01-10T00:25:28.000Z</time></trkpt>
        <trkpt lat="29.500573" lon="104.107928"><ele>449.68658</ele><time>2026-01-10T00:25:33.000Z</time></trkpt>
        <trkpt lat="29.500615" lon="104.107907"><ele>449.3666</ele><time>2026-01-10T00:25:37.000Z</time></trkpt>
        <trkpt lat="29.500663" lon="104.107888"><ele>448.87094</ele><time>2026-01-10T00:25:42.000Z</time></trkpt>
        <trkpt lat="29.500711" lon="104.107863"><ele>448.8641</ele><time>2026-01-10T00:25:47.000Z</time></trkpt>
        <trkpt lat="29.50076" lon="104.107836"><ele>447.98093</ele><time>2026-01-10T00:25:52.000Z</time></trkpt>
        <trkpt lat="29.500811" lon="104.107814"><ele>447.75394</ele><time>2026-01-10T00:25:57.000Z</time></trkpt>
        <trkpt lat="29.500861" lon="104.107787"><ele>447.79956</ele><time>2026-01-10T00:26:02.000Z</time></trkpt>
        <trkpt lat="29.500907" lon="104.107753"><ele>447.28668</ele><time>2026-01-10T00:26:07.000Z</time></trkpt>
        <trkpt lat="29.500941" lon="104.107727"><ele>447.95862</ele><time>2026-01-10T00:26:10.000Z</time></trkpt>
        <trkpt lat="29.500986" lon="104.107701"><ele>448.90784</ele><time>2026-01-10T00:26:14.000Z</time></trkpt>
        <trkpt lat="29.501039" lon="104.107687"><ele>447.77963</ele><time>2026-01-10T00:26:20.000Z</time></trkpt>
        <trkpt lat="29.50108" lon="104.107688"><ele>446.95438</ele><time>2026-01-10T00:26:24.000Z</time></trkpt>
        <trkpt lat="29.501128" lon="104.107675"><ele>447.32462</ele><time>2026-01-10T00:26:29.000Z</time></trkpt>
        <trkpt lat="29.50116" lon="104.107633"><ele>447.91818</ele><time>2026-01-10T00:26:35.000Z</time></trkpt>
        <trkpt lat="29.501194" lon="104.107652"><ele>447.3037</ele><time>2026-01-10T00:26:44.000Z</time></trkpt>
        <trkpt lat="29.501219" lon="104.107694"><ele>446.83698</ele><time>2026-01-10T00:26:48.000Z</time></trkpt>
        <trkpt lat="29.50128" lon="104.107769"><ele>446.25775</ele><time>2026-01-10T00:26:56.000Z</time></trkpt>
        <trkpt lat="29.501294" lon="104.107693"><ele>446.11328</ele><time>2026-01-10T00:26:57.000Z</time></trkpt>
        <trkpt lat="29.501339" lon="104.107614"><ele>445.9485</ele><time>2026-01-10T00:26:59.000Z</time></trkpt>
        <trkpt lat="29.501407" lon="104.107535"><ele>445.83405</ele><time>2026-01-10T00:27:03.000Z</time></trkpt>
        <trkpt lat="29.501386" lon="104.107478"><ele>445.88278</ele><time>2026-01-10T00:27:04.000Z</time></trkpt>
        <trkpt lat="29.5013" lon="104.107392"><ele>445.6583</ele><time>2026-01-10T00:27:16.000Z</time></trkpt>
        <trkpt lat="29.501343" lon="104.107387"><ele>445.89316</ele><time>2026-01-10T00:27:19.000Z</time></trkpt>
        <trkpt lat="29.501326" lon="104.107386"><ele>445.74814</ele><time>2026-01-10T00:27:24.000Z</time></trkpt>
        <trkpt lat="29.501285" lon="104.107359"><ele>445.60724</ele><time>2026-01-10T00:27:37.000Z</time></trkpt>
        <trkpt lat="29.50125" lon="104.107388"><ele>445.53247</ele><time>2026-01-10T00:27:47.000Z</time></trkpt>
        <trkpt lat="29.501092" lon="104.107424"><ele>458.80344</ele><time>2026-01-10T00:28:24.000Z</time></trkpt>
        <trkpt lat="29.501066" lon="104.107428"><ele>459.00974</ele><time>2026-01-10T00:28:43.000Z</time></trkpt>
        <trkpt lat="29.501041" lon="104.107635"><ele>458.8199</ele><time>2026-01-10T00:29:12.000Z</time></trkpt>
        <trkpt lat="29.501112" lon="104.107567"><ele>452.47958</ele><time>2026-01-10T00:29:14.000Z</time></trkpt>
        <trkpt lat="29.501153" lon="104.107552"><ele>449.75885</ele><time>2026-01-10T00:29:15.000Z</time></trkpt>
        <trkpt lat="29.501201" lon="104.107551"><ele>448.1048</ele><time>2026-01-10T00:29:16.000Z</time></trkpt>
        <trkpt lat="29.501237" lon="104.10753"><ele>446.92374</ele><time>2026-01-10T00:29:17.000Z</time></trkpt>
        <trkpt lat="29.501227" lon="104.107506"><ele>445.79095</ele><time>2026-01-10T00:29:39.000Z</time></trkpt>
        <trkpt lat="29.501223" lon="104.107471"><ele>446.34967</ele><time>2026-01-10T00:29:42.000Z</time></trkpt>
        <trkpt lat="29.501197" lon="104.107434"><ele>446.4908</ele><time>2026-01-10T00:29:45.000Z</time></trkpt>
        <trkpt lat="29.501211" lon="104.107443"><ele>446.3332</ele><time>2026-01-10T00:29:46.000Z</time></trkpt>
        <trkpt lat="29.501247" lon="104.107475"><ele>446.3389</ele><time>2026-01-10T00:29:50.000Z</time></trkpt>
        <trkpt lat="29.501279" lon="104.107539"><ele>446.06668</ele><time>2026-01-10T00:29:54.000Z</time></trkpt>
        <trkpt lat="29.501273" lon="104.107658"><ele>446.0968</ele><time>2026-01-10T00:30:03.000Z</time></trkpt>
        <trkpt lat="29.501191" lon="104.107737"><ele>446.17816</ele><time>2026-01-10T00:30:05.000Z</time></trkpt>
        <trkpt lat="29.501167" lon="104.107741"><ele>446.2517</ele><time>2026-01-10T00:30:06.000Z</time></trkpt>
        <trkpt lat="29.501168" lon="104.107757"><ele>446.2113</ele><time>2026-01-10T00:30:08.000Z</time></trkpt>
        <trkpt lat="29.501231" lon="104.107734"><ele>446.31927</ele><time>2026-01-10T00:30:21.000Z</time></trkpt>
        <trkpt lat="29.501283" lon="104.107699"><ele>446.78482</ele><time>2026-01-10T00:30:25.000Z</time></trkpt>
        <trkpt lat="29.50133" lon="104.107669"><ele>446.7216</ele><time>2026-01-10T00:30:30.000Z</time></trkpt>
        <trkpt lat="29.501367" lon="104.107639"><ele>447.1958</ele><time>2026-01-10T00:30:35.000Z</time></trkpt>
        <trkpt lat="29.501412" lon="104.107626"><ele>447.26935</ele><time>2026-01-10T00:30:42.000Z</time></trkpt>
        <trkpt lat="29.501451" lon="104.107641"><ele>447.0186</ele><time>2026-01-10T00:30:46.000Z</time></trkpt>
        <trkpt lat="29.501493" lon="104.107673"><ele>447.10806</ele><time>2026-01-10T00:30:50.000Z</time></trkpt>
        <trkpt lat="29.501536" lon="104.107677"><ele>447.3054</ele><time>2026-01-10T00:30:53.000Z</time></trkpt>
        <trkpt lat="29.501591" lon="104.107659"><ele>447.64212</ele><time>2026-01-10T00:30:58.000Z</time></trkpt>
        <trkpt lat="29.501641" lon="104.107647"><ele>447.73868</ele><time>2026-01-10T00:31:02.000Z</time></trkpt>
        <trkpt lat="29.501691" lon="104.107657"><ele>447.46338</ele><time>2026-01-10T00:31:06.000Z</time></trkpt>
        <trkpt lat="29.501727" lon="104.107688"><ele>447.12027</ele><time>2026-01-10T00:31:09.000Z</time></trkpt>
        <trkpt lat="29.501756" lon="104.107744"><ele>446.43274</ele><time>2026-01-10T00:31:14.000Z</time></trkpt>
        <trkpt lat="29.501794" lon="104.107771"><ele>446.21005</ele><time>2026-01-10T00:31:22.000Z</time></trkpt>
        <trkpt lat="29.501837" lon="104.107775"><ele>446.83716</ele><time>2026-01-10T00:31:27.000Z</time></trkpt>
        <trkpt lat="29.501882" lon="104.107792"><ele>447.558</ele><time>2026-01-10T00:31:31.000Z</time></trkpt>
        <trkpt lat="29.50193" lon="104.107807"><ele>447.8239</ele><time>2026-01-10T00:31:35.000Z</time></trkpt>
        <trkpt lat="29.50198" lon="104.107815"><ele>447.60202</ele><time>2026-01-10T00:31:39.000Z</time></trkpt>
        <trkpt lat="29.50203" lon="104.107804"><ele>447.31342</ele><time>2026-01-10T00:31:43.000Z</time></trkpt>
        <trkpt lat="29.502078" lon="104.107789"><ele>446.81915</ele><time>2026-01-10T00:31:47.000Z</time></trkpt>
        <trkpt lat="29.502125" lon="104.107772"><ele>445.96387</ele><time>2026-01-10T00:31:51.000Z</time></trkpt>
        <trkpt lat="29.50218" lon="104.107751"><ele>445.20898</ele><time>2026-01-10T00:31:57.000Z</time></trkpt>
        <trkpt lat="29.502226" lon="104.107734"><ele>445.14743</ele><time>2026-01-10T00:32:02.000Z</time></trkpt>
        <trkpt lat="29.502269" lon="104.107722"><ele>445.11078</ele><time>2026-01-10T00:32:06.000Z</time></trkpt>
        <trkpt lat="29.502319" lon="104.107707"><ele>445.34653</ele><time>2026-01-10T00:32:10.000Z</time></trkpt>
        <trkpt lat="29.502377" lon="104.107686"><ele>445.6145</ele><time>2026-01-10T00:32:15.000Z</time></trkpt>
        <trkpt lat="29.502422" lon="104.107669"><ele>446.08188</ele><time>2026-01-10T00:32:19.000Z</time></trkpt>
        <trkpt lat="29.502469" lon="104.107659"><ele>446.7219</ele><time>2026-01-10T00:32:23.000Z</time></trkpt>
        <trkpt lat="29.502522" lon="104.107637"><ele>447.1996</ele><time>2026-01-10T00:32:31.000Z</time></trkpt>
        <trkpt lat="29.502564" lon="104.107622"><ele>448.10178</ele><time>2026-01-10T00:32:53.000Z</time></trkpt>
        <trkpt lat="29.5026" lon="104.107621"><ele>448.53955</ele><time>2026-01-10T00:32:58.000Z</time></trkpt>
        <trkpt lat="29.502654" lon="104.10761"><ele>449.05673</ele><time>2026-01-10T00:33:04.000Z</time></trkpt>
        <trkpt lat="29.502701" lon="104.1076"><ele>449.71317</ele><time>2026-01-10T00:33:08.000Z</time></trkpt>
        <trkpt lat="29.502748" lon="104.107589"><ele>450.01797</ele><time>2026-01-10T00:33:12.000Z</time></trkpt>
        <trkpt lat="29.502802" lon="104.107602"><ele>450.641</ele><time>2026-01-10T00:33:17.000Z</time></trkpt>
        <trkpt lat="29.502854" lon="104.107615"><ele>449.5793</ele><time>2026-01-10T00:33:23.000Z</time></trkpt>
        <trkpt lat="29.502907" lon="104.107627"><ele>448.73624</ele><time>2026-01-10T00:33:29.000Z</time></trkpt>
        <trkpt lat="29.502959" lon="104.107642"><ele>448.3138</ele><time>2026-01-10T00:33:35.000Z</time></trkpt>
        <trkpt lat="29.503001" lon="104.107651"><ele>447.9134</ele><time>2026-01-10T00:33:39.000Z</time></trkpt>
        <trkpt lat="29.503055" lon="104.107666"><ele>447.52887</ele><time>2026-01-10T00:33:44.000Z</time></trkpt>
        <trkpt lat="29.503104" lon="104.107681"><ele>447.76117</ele><time>2026-01-10T00:33:49.000Z</time></trkpt>
        <trkpt lat="29.503147" lon="104.107695"><ele>447.3791</ele><time>2026-01-10T00:33:53.000Z</time></trkpt>
        <trkpt lat="29.503198" lon="104.107711"><ele>446.9805</ele><time>2026-01-10T00:33:58.000Z</time></trkpt>
        <trkpt lat="29.503243" lon="104.107724"><ele>446.98645</ele><time>2026-01-10T00:34:02.000Z</time></trkpt>
        <trkpt lat="29.503283" lon="104.10774"><ele>447.5794</ele><time>2026-01-10T00:34:05.000Z</time></trkpt>
        <trkpt lat="29.503337" lon="104.107765"><ele>447.98572</ele><time>2026-01-10T00:34:10.000Z</time></trkpt>
        <trkpt lat="29.503386" lon="104.107783"><ele>448.18658</ele><time>2026-01-10T00:34:14.000Z</time></trkpt>
        <trkpt lat="29.503439" lon="104.10779"><ele>447.93137</ele><time>2026-01-10T00:34:18.000Z</time></trkpt>
        <trkpt lat="29.503489" lon="104.107795"><ele>447.82565</ele><time>2026-01-10T00:34:22.000Z</time></trkpt>
        <trkpt lat="29.503539" lon="104.107788"><ele>447.49207</ele><time>2026-01-10T00:34:26.000Z</time></trkpt>
        <trkpt lat="29.503601" lon="104.107792"><ele>446.16446</ele><time>2026-01-10T00:34:42.000Z</time></trkpt>
        <trkpt lat="29.503633" lon="104.107792"><ele>445.96677</ele><time>2026-01-10T00:34:46.000Z</time></trkpt>
        <trkpt lat="29.503687" lon="104.107801"><ele>445.65652</ele><time>2026-01-10T00:34:51.000Z</time></trkpt>
        <trkpt lat="29.503751" lon="104.107819"><ele>445.47137</ele><time>2026-01-10T00:34:57.000Z</time></trkpt>
        <trkpt lat="29.503796" lon="104.107843"><ele>444.9965</ele><time>2026-01-10T00:35:01.000Z</time></trkpt>
        <trkpt lat="29.503845" lon="104.107873"><ele>444.55115</ele><time>2026-01-10T00:35:06.000Z</time></trkpt>
        <trkpt lat="29.503897" lon="104.107875"><ele>444.87344</ele><time>2026-01-10T00:35:17.000Z</time></trkpt>
        <trkpt lat="29.503928" lon="104.107906"><ele>444.93274</ele><time>2026-01-10T00:35:31.000Z</time></trkpt>
        <trkpt lat="29.50395" lon="104.107944"><ele>444.94867</ele><time>2026-01-10T00:35:35.000Z</time></trkpt>
        <trkpt lat="29.503982" lon="104.107987"><ele>445.00052</ele><time>2026-01-10T00:35:39.000Z</time></trkpt>
        <trkpt lat="29.504022" lon="104.108035"><ele>446.0235</ele><time>2026-01-10T00:35:45.000Z</time></trkpt>
        <trkpt lat="29.504061" lon="104.108067"><ele>446.26923</ele><time>2026-01-10T00:35:50.000Z</time></trkpt>
        <trkpt lat="29.504105" lon="104.108104"><ele>446.18704</ele><time>2026-01-10T00:35:55.000Z</time></trkpt>
        <trkpt lat="29.504146" lon="104.108143"><ele>446.41864</ele><time>2026-01-10T00:35:59.000Z</time></trkpt>
        <trkpt lat="29.504186" lon="104.108184"><ele>446.7419</ele><time>2026-01-10T00:36:04.000Z</time></trkpt>
        <trkpt lat="29.504221" lon="104.108223"><ele>446.99902</ele><time>2026-01-10T00:36:09.000Z</time></trkpt>
        <trkpt lat="29.50426" lon="104.108262"><ele>446.8484</ele><time>2026-01-10T00:36:14.000Z</time></trkpt>
        <trkpt lat="29.504299" lon="104.1083"><ele>446.811</ele><time>2026-01-10T00:36:20.000Z</time></trkpt>
        <trkpt lat="29.504334" lon="104.108346"><ele>446.87418</ele><time>2026-01-10T00:36:25.000Z</time></trkpt>
        <trkpt lat="29.50436" lon="104.108398"><ele>446.87543</ele><time>2026-01-10T00:36:30.000Z</time></trkpt>
        <trkpt lat="29.504369" lon="104.108455"><ele>446.7582</ele><time>2026-01-10T00:36:35.000Z</time></trkpt>
        <trkpt lat="29.504373" lon="104.108514"><ele>446.12122</ele><time>2026-01-10T00:36:40.000Z</time></trkpt>
        <trkpt lat="29.504373" lon="104.108569"><ele>445.5107</ele><time>2026-01-10T00:36:45.000Z</time></trkpt>
        <trkpt lat="29.504373" lon="104.108622"><ele>445.566</ele><time>2026-01-10T00:36:50.000Z</time></trkpt>
        <trkpt lat="29.504351" lon="104.108676"><ele>444.7557</ele><time>2026-01-10T00:37:18.000Z</time></trkpt>
        <trkpt lat="29.50435" lon="104.108718"><ele>445.0777</ele><time>2026-01-10T00:37:27.000Z</time></trkpt>
        <trkpt lat="29.504345" lon="104.108778"><ele>445.77597</ele><time>2026-01-10T00:37:35.000Z</time></trkpt>
        <trkpt lat="29.504324" lon="104.10883"><ele>446.52216</ele><time>2026-01-10T00:37:41.000Z</time></trkpt>
        <trkpt lat="29.504294" lon="104.108876"><ele>446.8474</ele><time>2026-01-10T00:37:47.000Z</time></trkpt>
        <trkpt lat="29.504286" lon="104.108928"><ele>447.2389</ele><time>2026-01-10T00:37:52.000Z</time></trkpt>
        <trkpt lat="29.504277" lon="104.108982"><ele>447.83698</ele><time>2026-01-10T00:37:57.000Z</time></trkpt>
        <trkpt lat="29.504271" lon="104.109036"><ele>448.8904</ele><time>2026-01-10T00:38:02.000Z</time></trkpt>
        <trkpt lat="29.504266" lon="104.10909"><ele>449.38562</ele><time>2026-01-10T00:38:06.000Z</time></trkpt>
        <trkpt lat="29.504253" lon="104.109148"><ele>449.87158</ele><time>2026-01-10T00:38:12.000Z</time></trkpt>
        <trkpt lat="29.504244" lon="104.109206"><ele>450.32523</ele><time>2026-01-10T00:38:17.000Z</time></trkpt>
        <trkpt lat="29.504256" lon="104.109265"><ele>450.45444</ele><time>2026-01-10T00:38:22.000Z</time></trkpt>
        <trkpt lat="29.504273" lon="104.109312"><ele>450.39</ele><time>2026-01-10T00:38:26.000Z</time></trkpt>
        <trkpt lat="29.504293" lon="104.109361"><ele>450.44055</ele><time>2026-01-10T00:38:30.000Z</time></trkpt>
        <trkpt lat="29.504328" lon="104.109411"><ele>450.08496</ele><time>2026-01-10T00:38:35.000Z</time></trkpt>
        <trkpt lat="29.504365" lon="104.109441"><ele>449.68753</ele><time>2026-01-10T00:38:39.000Z</time></trkpt>
        <trkpt lat="29.504417" lon="104.10946"><ele>449.2997</ele><time>2026-01-10T00:38:44.000Z</time></trkpt>
        <trkpt lat="29.504465" lon="104.109461"><ele>449.0287</ele><time>2026-01-10T00:38:48.000Z</time></trkpt>
        <trkpt lat="29.504515" lon="104.109461"><ele>448.5051</ele><time>2026-01-10T00:38:52.000Z</time></trkpt>
        <trkpt lat="29.504575" lon="104.109465"><ele>448.1135</ele><time>2026-01-10T00:38:57.000Z</time></trkpt>
        <trkpt lat="29.504625" lon="104.109465"><ele>447.29355</ele><time>2026-01-10T00:39:01.000Z</time></trkpt>
        <trkpt lat="29.504672" lon="104.109461"><ele>447.2041</ele><time>2026-01-10T00:39:05.000Z</time></trkpt>
        <trkpt lat="29.504729" lon="104.109461"><ele>446.40744</ele><time>2026-01-10T00:39:10.000Z</time></trkpt>
        <trkpt lat="29.504783" lon="104.109461"><ele>445.5994</ele><time>2026-01-10T00:39:15.000Z</time></trkpt>
        <trkpt lat="29.504835" lon="104.109451"><ele>444.97958</ele><time>2026-01-10T00:39:20.000Z</time></trkpt>
        <trkpt lat="29.50488" lon="104.109443"><ele>444.3888</ele><time>2026-01-10T00:39:24.000Z</time></trkpt>
        <trkpt lat="29.504932" lon="104.109443"><ele>443.89816</ele><time>2026-01-10T00:39:28.000Z</time></trkpt>
        <trkpt lat="29.50498" lon="104.109454"><ele>443.3846</ele><time>2026-01-10T00:39:32.000Z</time></trkpt>
        <trkpt lat="29.505032" lon="104.109466"><ele>443.0342</ele><time>2026-01-10T00:39:36.000Z</time></trkpt>
        <trkpt lat="29.505082" lon="104.109477"><ele>443.1811</ele><time>2026-01-10T00:39:40.000Z</time></trkpt>
        <trkpt lat="29.505131" lon="104.109489"><ele>443.40704</ele><time>2026-01-10T00:39:44.000Z</time></trkpt>
        <trkpt lat="29.505182" lon="104.109496"><ele>443.21265</ele><time>2026-01-10T00:39:48.000Z</time></trkpt>
        <trkpt lat="29.505231" lon="104.109509"><ele>443.31744</ele><time>2026-01-10T00:39:52.000Z</time></trkpt>
        <trkpt lat="29.505278" lon="104.10952"><ele>443.11905</ele><time>2026-01-10T00:39:56.000Z</time></trkpt>
        <trkpt lat="29.505322" lon="104.109531"><ele>442.6324</ele><time>2026-01-10T00:40:00.000Z</time></trkpt>
        <trkpt lat="29.505367" lon="104.109538"><ele>442.4617</ele><time>2026-01-10T00:40:04.000Z</time></trkpt>
        <trkpt lat="29.505412" lon="104.109553"><ele>441.99332</ele><time>2026-01-10T00:40:08.000Z</time></trkpt>
        <trkpt lat="29.50546" lon="104.109561"><ele>441.21976</ele><time>2026-01-10T00:40:12.000Z</time></trkpt>
        <trkpt lat="29.505508" lon="104.109564"><ele>441.08713</ele><time>2026-01-10T00:40:16.000Z</time></trkpt>
        <trkpt lat="29.505557" lon="104.109569"><ele>441.3752</ele><time>2026-01-10T00:40:20.000Z</time></trkpt>
        <trkpt lat="29.505608" lon="104.109572"><ele>441.4961</ele><time>2026-01-10T00:40:24.000Z</time></trkpt>
        <trkpt lat="29.505657" lon="104.109578"><ele>442.23947</ele><time>2026-01-10T00:40:28.000Z</time></trkpt>
        <trkpt lat="29.505707" lon="104.109591"><ele>442.32816</ele><time>2026-01-10T00:40:32.000Z</time></trkpt>
        <trkpt lat="29.505764" lon="104.109608"><ele>442.72385</ele><time>2026-01-10T00:40:37.000Z</time></trkpt>
        <trkpt lat="29.505808" lon="104.109618"><ele>443.17007</ele><time>2026-01-10T00:40:41.000Z</time></trkpt>
        <trkpt lat="29.505861" lon="104.109639"><ele>443.36798</ele><time>2026-01-10T00:40:46.000Z</time></trkpt>
        <trkpt lat="29.505908" lon="104.109662"><ele>443.35928</ele><time>2026-01-10T00:40:50.000Z</time></trkpt>
        <trkpt lat="29.505956" lon="104.109688"><ele>443.62387</ele><time>2026-01-10T00:40:54.000Z</time></trkpt>
        <trkpt lat="29.506008" lon="104.109724"><ele>443.57706</ele><time>2026-01-10T00:40:59.000Z</time></trkpt>
        <trkpt lat="29.506044" lon="104.109763"><ele>443.67563</ele><time>2026-01-10T00:41:04.000Z</time></trkpt>
        <trkpt lat="29.506077" lon="104.109809"><ele>443.8278</ele><time>2026-01-10T00:41:09.000Z</time></trkpt>
        <trkpt lat="29.506107" lon="104.109847"><ele>444.02322</ele><time>2026-01-10T00:41:13.000Z</time></trkpt>
        <trkpt lat="29.506136" lon="104.109889"><ele>444.55347</ele><time>2026-01-10T00:41:17.000Z</time></trkpt>
        <trkpt lat="29.506175" lon="104.109931"><ele>444.8744</ele><time>2026-01-10T00:41:22.000Z</time></trkpt>
        <trkpt lat="29.506212" lon="104.109972"><ele>444.90628</ele><time>2026-01-10T00:41:27.000Z</time></trkpt>
        <trkpt lat="29.506248" lon="104.110012"><ele>445.41617</ele><time>2026-01-10T00:41:33.000Z</time></trkpt>
        <trkpt lat="29.506287" lon="104.110042"><ele>445.49988</ele><time>2026-01-10T00:41:38.000Z</time></trkpt>
        <trkpt lat="29.506324" lon="104.11007"><ele>445.0403</ele><time>2026-01-10T00:41:42.000Z</time></trkpt>
        <trkpt lat="29.506368" lon="104.110085"><ele>444.78705</ele><time>2026-01-10T00:41:46.000Z</time></trkpt>
        <trkpt lat="29.506426" lon="104.110095"><ele>444.80676</ele><time>2026-01-10T00:41:51.000Z</time></trkpt>
        <trkpt lat="29.506473" lon="104.110088"><ele>444.66827</ele><time>2026-01-10T00:41:55.000Z</time></trkpt>
        <trkpt lat="29.506527" lon="104.110084"><ele>444.7738</ele><time>2026-01-10T00:42:00.000Z</time></trkpt>
        <trkpt lat="29.506576" lon="104.110071"><ele>444.84192</ele><time>2026-01-10T00:42:05.000Z</time></trkpt>
        <trkpt lat="29.506624" lon="104.110055"><ele>444.65964</ele><time>2026-01-10T00:42:10.000Z</time></trkpt>
        <trkpt lat="29.506668" lon="104.110047"><ele>444.17102</ele><time>2026-01-10T00:42:14.000Z</time></trkpt>
        <trkpt lat="29.506714" lon="104.110043"><ele>443.3446</ele><time>2026-01-10T00:42:18.000Z</time></trkpt>
        <trkpt lat="29.50676" lon="104.110035"><ele>442.94144</ele><time>2026-01-10T00:42:22.000Z</time></trkpt>
        <trkpt lat="29.506805" lon="104.110021"><ele>442.89163</ele><time>2026-01-10T00:42:26.000Z</time></trkpt>
        <trkpt lat="29.50686" lon="104.110001"><ele>442.5558</ele><time>2026-01-10T00:42:31.000Z</time></trkpt>
        <trkpt lat="29.506914" lon="104.109982"><ele>442.46295</ele><time>2026-01-10T00:42:36.000Z</time></trkpt>
        <trkpt lat="29.506959" lon="104.109965"><ele>442.42865</ele><time>2026-01-10T00:42:40.000Z</time></trkpt>
        <trkpt lat="29.507004" lon="104.109949"><ele>442.83646</ele><time>2026-01-10T00:42:44.000Z</time></trkpt>
        <trkpt lat="29.507054" lon="104.109936"><ele>442.83862</ele><time>2026-01-10T00:42:48.000Z</time></trkpt>
        <trkpt lat="29.507106" lon="104.10992"><ele>442.7639</ele><time>2026-01-10T00:42:53.000Z</time></trkpt>
        <trkpt lat="29.507153" lon="104.109913"><ele>442.889</ele><time>2026-01-10T00:42:57.000Z</time></trkpt>
        <trkpt lat="29.507209" lon="104.109913"><ele>442.95587</ele><time>2026-01-10T00:43:02.000Z</time></trkpt>
        <trkpt lat="29.507255" lon="104.109919"><ele>442.79385</ele><time>2026-01-10T00:43:06.000Z</time></trkpt>
        <trkpt lat="29.507298" lon="104.109936"><ele>442.7969</ele><time>2026-01-10T00:43:10.000Z</time></trkpt>
        <trkpt lat="29.507343" lon="104.109963"><ele>442.59982</ele><time>2026-01-10T00:43:14.000Z</time></trkpt>
        <trkpt lat="29.507385" lon="104.109993"><ele>442.23508</ele><time>2026-01-10T00:43:18.000Z</time></trkpt>
        <trkpt lat="29.507421" lon="104.110034"><ele>441.99716</ele><time>2026-01-10T00:43:22.000Z</time></trkpt>
        <trkpt lat="29.507461" lon="104.110083"><ele>441.69336</ele><time>2026-01-10T00:43:27.000Z</time></trkpt>
        <trkpt lat="29.507487" lon="104.110127"><ele>441.66046</ele><time>2026-01-10T00:43:31.000Z</time></trkpt>
        <trkpt lat="29.507515" lon="104.110172"><ele>441.79333</ele><time>2026-01-10T00:43:35.000Z</time></trkpt>
        <trkpt lat="29.507538" lon="104.110227"><ele>441.6171</ele><time>2026-01-10T00:43:40.000Z</time></trkpt>
        <trkpt lat="29.507562" lon="104.110277"><ele>441.46637</ele><time>2026-01-10T00:43:44.000Z</time></trkpt>
        <trkpt lat="29.507576" lon="104.110339"><ele>440.7501</ele><time>2026-01-10T00:43:58.000Z</time></trkpt>
        <trkpt lat="29.507588" lon="104.110372"><ele>441.05728</ele><time>2026-01-10T00:44:02.000Z</time></trkpt>
        <trkpt lat="29.507612" lon="104.110423"><ele>440.93747</ele><time>2026-01-10T00:44:06.000Z</time></trkpt>
        <trkpt lat="29.507635" lon="104.110471"><ele>440.9945</ele><time>2026-01-10T00:44:09.000Z</time></trkpt>
        <trkpt lat="29.507652" lon="104.110522"><ele>441.2569</ele><time>2026-01-10T00:44:12.000Z</time></trkpt>
        <trkpt lat="29.507676" lon="104.110589"><ele>441.43988</ele><time>2026-01-10T00:44:24.000Z</time></trkpt>
        <trkpt lat="29.507692" lon="104.110638"><ele>440.43195</ele><time>2026-01-10T00:44:33.000Z</time></trkpt>
        <trkpt lat="29.507714" lon="104.110684"><ele>439.97128</ele><time>2026-01-10T00:44:38.000Z</time></trkpt>
        <trkpt lat="29.507742" lon="104.110734"><ele>439.59433</ele><time>2026-01-10T00:44:43.000Z</time></trkpt>
        <trkpt lat="29.507774" lon="104.110782"><ele>439.6326</ele><time>2026-01-10T00:44:48.000Z</time></trkpt>
        <trkpt lat="29.507802" lon="104.110823"><ele>439.69275</ele><time>2026-01-10T00:44:52.000Z</time></trkpt>
        <trkpt lat="29.507832" lon="104.110864"><ele>439.50476</ele><time>2026-01-10T00:44:56.000Z</time></trkpt>
        <trkpt lat="29.507867" lon="104.110903"><ele>438.74185</ele><time>2026-01-10T00:45:00.000Z</time></trkpt>
        <trkpt lat="29.507904" lon="104.110943"><ele>438.4138</ele><time>2026-01-10T00:45:05.000Z</time></trkpt>
        <trkpt lat="29.507939" lon="104.110975"><ele>438.5048</ele><time>2026-01-10T00:45:09.000Z</time></trkpt>
        <trkpt lat="29.507975" lon="104.111008"><ele>438.8098</ele><time>2026-01-10T00:45:13.000Z</time></trkpt>
        <trkpt lat="29.508017" lon="104.11104"><ele>439.0508</ele><time>2026-01-10T00:45:18.000Z</time></trkpt>
        <trkpt lat="29.508061" lon="104.111073"><ele>438.92355</ele><time>2026-01-10T00:45:24.000Z</time></trkpt>
        <trkpt lat="29.508107" lon="104.111099"><ele>438.7017</ele><time>2026-01-10T00:45:29.000Z</time></trkpt>
        <trkpt lat="29.508144" lon="104.111128"><ele>438.43338</ele><time>2026-01-10T00:45:33.000Z</time></trkpt>
        <trkpt lat="29.508191" lon="104.111147"><ele>438.10367</ele><time>2026-01-10T00:45:37.000Z</time></trkpt>
        <trkpt lat="29.508249" lon="104.111157"><ele>437.8031</ele><time>2026-01-10T00:45:42.000Z</time></trkpt>
        <trkpt lat="29.508301" lon="104.111155"><ele>437.2677</ele><time>2026-01-10T00:45:46.000Z</time></trkpt>
        <trkpt lat="29.508351" lon="104.111142"><ele>436.9056</ele><time>2026-01-10T00:45:50.000Z</time></trkpt>
        <trkpt lat="29.508397" lon="104.111121"><ele>436.5735</ele><time>2026-01-10T00:45:54.000Z</time></trkpt>
        <trkpt lat="29.508448" lon="104.1111"><ele>436.08023</ele><time>2026-01-10T00:45:58.000Z</time></trkpt>
        <trkpt lat="29.508495" lon="104.111082"><ele>435.99307</ele><time>2026-01-10T00:46:02.000Z</time></trkpt>
        <trkpt lat="29.50854" lon="104.111063"><ele>436.0784</ele><time>2026-01-10T00:46:06.000Z</time></trkpt>
        <trkpt lat="29.508593" lon="104.11104"><ele>436.04187</ele><time>2026-01-10T00:46:11.000Z</time></trkpt>
        <trkpt lat="29.508641" lon="104.111025"><ele>435.17123</ele><time>2026-01-10T00:46:15.000Z</time></trkpt>
        <trkpt lat="29.508687" lon="104.111004"><ele>434.80328</ele><time>2026-01-10T00:46:19.000Z</time></trkpt>
        <trkpt lat="29.508734" lon="104.110985"><ele>434.04004</ele><time>2026-01-10T00:46:23.000Z</time></trkpt>
        <trkpt lat="29.508781" lon="104.110967"><ele>433.3437</ele><time>2026-01-10T00:46:27.000Z</time></trkpt>
        <trkpt lat="29.508826" lon="104.11095"><ele>432.65594</ele><time>2026-01-10T00:46:31.000Z</time></trkpt>
        <trkpt lat="29.508869" lon="104.110923"><ele>432.1072</ele><time>2026-01-10T00:46:36.000Z</time></trkpt>
        <trkpt lat="29.508917" lon="104.110904"><ele>431.92218</ele><time>2026-01-10T00:46:41.000Z</time></trkpt>
        <trkpt lat="29.508965" lon="104.110891"><ele>431.5338</ele><time>2026-01-10T00:46:46.000Z</time></trkpt>
        <trkpt lat="29.509012" lon="104.110868"><ele>431.3214</ele><time>2026-01-10T00:46:51.000Z</time></trkpt>
        <trkpt lat="29.509054" lon="104.110853"><ele>430.97656</ele><time>2026-01-10T00:46:55.000Z</time></trkpt>
        <trkpt lat="29.509107" lon="104.110837"><ele>430.4202</ele><time>2026-01-10T00:47:00.000Z</time></trkpt>
        <trkpt lat="29.509161" lon="104.110815"><ele>429.6251</ele><time>2026-01-10T00:47:05.000Z</time></trkpt>
        <trkpt lat="29.509214" lon="104.1108"><ele>429.29355</ele><time>2026-01-10T00:47:10.000Z</time></trkpt>
        <trkpt lat="29.509267" lon="104.110779"><ele>428.78775</ele><time>2026-01-10T00:47:15.000Z</time></trkpt>
        <trkpt lat="29.509309" lon="104.110761"><ele>428.12473</ele><time>2026-01-10T00:47:19.000Z</time></trkpt>
        <trkpt lat="29.50936" lon="104.110746"><ele>427.42422</ele><time>2026-01-10T00:47:24.000Z</time></trkpt>
        <trkpt lat="29.509409" lon="104.110737"><ele>426.7228</ele><time>2026-01-10T00:47:29.000Z</time></trkpt>
        <trkpt lat="29.509455" lon="104.110736"><ele>426.12714</ele><time>2026-01-10T00:47:33.000Z</time></trkpt>
        <trkpt lat="29.509504" lon="104.110717"><ele>426.05984</ele><time>2026-01-10T00:47:38.000Z</time></trkpt>
        <trkpt lat="29.509546" lon="104.110685"><ele>425.92465</ele><time>2026-01-10T00:47:43.000Z</time></trkpt>
        <trkpt lat="29.509587" lon="104.110659"><ele>425.95026</ele><time>2026-01-10T00:47:47.000Z</time></trkpt>
        <trkpt lat="29.509627" lon="104.110629"><ele>425.8531</ele><time>2026-01-10T00:47:51.000Z</time></trkpt>
        <trkpt lat="29.509673" lon="104.110603"><ele>425.8404</ele><time>2026-01-10T00:47:55.000Z</time></trkpt>
        <trkpt lat="29.509725" lon="104.110571"><ele>425.19598</ele><time>2026-01-10T00:48:01.000Z</time></trkpt>
        <trkpt lat="29.509768" lon="104.110552"><ele>424.7826</ele><time>2026-01-10T00:48:05.000Z</time></trkpt>
        <trkpt lat="29.509815" lon="104.110527"><ele>424.50986</ele><time>2026-01-10T00:48:10.000Z</time></trkpt>
        <trkpt lat="29.509857" lon="104.110503"><ele>425.10495</ele><time>2026-01-10T00:48:15.000Z</time></trkpt>
        <trkpt lat="29.5099" lon="104.1105"><ele>425.53146</ele><time>2026-01-10T00:48:19.000Z</time></trkpt>
        <trkpt lat="29.509955" lon="104.110519"><ele>425.56375</ele><time>2026-01-10T00:48:24.000Z</time></trkpt>
        <trkpt lat="29.509998" lon="104.110552"><ele>425.63022</ele><time>2026-01-10T00:48:29.000Z</time></trkpt>
        <trkpt lat="29.510031" lon="104.110594"><ele>425.9414</ele><time>2026-01-10T00:48:34.000Z</time></trkpt>
        <trkpt lat="29.510058" lon="104.110642"><ele>426.29303</ele><time>2026-01-10T00:48:39.000Z</time></trkpt>
        <trkpt lat="29.510085" lon="104.110696"><ele>426.32632</ele><time>2026-01-10T00:48:45.000Z</time></trkpt>
        <trkpt lat="29.510103" lon="104.110752"><ele>426.5168</ele><time>2026-01-10T00:48:58.000Z</time></trkpt>
        <trkpt lat="29.510141" lon="104.11078"><ele>426.77335</ele><time>2026-01-10T00:49:04.000Z</time></trkpt>
        <trkpt lat="29.510185" lon="104.110809"><ele>427.14783</ele><time>2026-01-10T00:49:10.000Z</time></trkpt>
        <trkpt lat="29.510222" lon="104.110855"><ele>428.30692</ele><time>2026-01-10T00:49:15.000Z</time></trkpt>
        <trkpt lat="29.510252" lon="104.1109"><ele>430.05804</ele><time>2026-01-10T00:49:19.000Z</time></trkpt>
        <trkpt lat="29.510281" lon="104.110941"><ele>430.6986</ele><time>2026-01-10T00:49:22.000Z</time></trkpt>
        <trkpt lat="29.510316" lon="104.110986"><ele>430.89926</ele><time>2026-01-10T00:49:25.000Z</time></trkpt>
        <trkpt lat="29.510359" lon="104.111041"><ele>431.20804</ele><time>2026-01-10T00:49:29.000Z</time></trkpt>
        <trkpt lat="29.510392" lon="104.111091"><ele>431.65506</ele><time>2026-01-10T00:49:33.000Z</time></trkpt>
        <trkpt lat="29.510424" lon="104.111135"><ele>431.6609</ele><time>2026-01-10T00:49:38.000Z</time></trkpt>
        <trkpt lat="29.510457" lon="104.111178"><ele>431.9312</ele><time>2026-01-10T00:49:43.000Z</time></trkpt>
        <trkpt lat="29.510487" lon="104.111221"><ele>432.31354</ele><time>2026-01-10T00:49:48.000Z</time></trkpt>
        <trkpt lat="29.510522" lon="104.111259"><ele>433.05603</ele><time>2026-01-10T00:49:53.000Z</time></trkpt>
        <trkpt lat="29.510553" lon="104.111297"><ele>433.6742</ele><time>2026-01-10T00:49:57.000Z</time></trkpt>
        <trkpt lat="29.510587" lon="104.11134"><ele>433.6603</ele><time>2026-01-10T00:50:01.000Z</time></trkpt>
        <trkpt lat="29.51062" lon="104.111382"><ele>433.9258</ele><time>2026-01-10T00:50:05.000Z</time></trkpt>
        <trkpt lat="29.510649" lon="104.111425"><ele>434.86136</ele><time>2026-01-10T00:50:09.000Z</time></trkpt>
        <trkpt lat="29.510681" lon="104.111482"><ele>435.06525</ele><time>2026-01-10T00:50:36.000Z</time></trkpt>
        <trkpt lat="29.5107" lon="104.111505"><ele>434.90714</ele><time>2026-01-10T00:50:40.000Z</time></trkpt>
        <trkpt lat="29.510732" lon="104.111542"><ele>435.13947</ele><time>2026-01-10T00:50:44.000Z</time></trkpt>
        <trkpt lat="29.510772" lon="104.111582"><ele>435.6309</ele><time>2026-01-10T00:50:48.000Z</time></trkpt>
        <trkpt lat="29.510821" lon="104.111629"><ele>435.81592</ele><time>2026-01-10T00:50:53.000Z</time></trkpt>
        <trkpt lat="29.510868" lon="104.111676"><ele>435.83258</ele><time>2026-01-10T00:50:58.000Z</time></trkpt>
        <trkpt lat="29.510905" lon="104.111717"><ele>435.7116</ele><time>2026-01-10T00:51:02.000Z</time></trkpt>
        <trkpt lat="29.510945" lon="104.111759"><ele>435.06732</ele><time>2026-01-10T00:51:06.000Z</time></trkpt>
        <trkpt lat="29.510979" lon="104.111805"><ele>434.85565</ele><time>2026-01-10T00:51:10.000Z</time></trkpt>
        <trkpt lat="29.511025" lon="104.111854"><ele>434.77176</ele><time>2026-01-10T00:51:15.000Z</time></trkpt>
        <trkpt lat="29.511066" lon="104.111889"><ele>435.1821</ele><time>2026-01-10T00:51:19.000Z</time></trkpt>
        <trkpt lat="29.511109" lon="104.111919"><ele>435.13904</ele><time>2026-01-10T00:51:23.000Z</time></trkpt>
        <trkpt lat="29.511151" lon="104.111949"><ele>434.86057</ele><time>2026-01-10T00:51:27.000Z</time></trkpt>
        <trkpt lat="29.511193" lon="104.111974"><ele>434.554</ele><time>2026-01-10T00:51:31.000Z</time></trkpt>
        <trkpt lat="29.511237" lon="104.112004"><ele>434.61288</ele><time>2026-01-10T00:51:38.000Z</time></trkpt>
        <trkpt lat="29.511271" lon="104.112033"><ele>434.98834</ele><time>2026-01-10T00:51:43.000Z</time></trkpt>
        <trkpt lat="29.511307" lon="104.112074"><ele>435.18323</ele><time>2026-01-10T00:51:48.000Z</time></trkpt>
        <trkpt lat="29.511333" lon="104.112116"><ele>434.99734</ele><time>2026-01-10T00:51:52.000Z</time></trkpt>
        <trkpt lat="29.511355" lon="104.11217"><ele>434.83926</ele><time>2026-01-10T00:51:57.000Z</time></trkpt>
        <trkpt lat="29.511367" lon="104.112222"><ele>434.11072</ele><time>2026-01-10T00:52:02.000Z</time></trkpt>
        <trkpt lat="29.511406" lon="104.112278"><ele>434.03674</ele><time>2026-01-10T00:52:15.000Z</time></trkpt>
        <trkpt lat="29.511431" lon="104.112309"><ele>434.22433</ele><time>2026-01-10T00:52:20.000Z</time></trkpt>
        <trkpt lat="29.511479" lon="104.112303"><ele>433.10825</ele><time>2026-01-10T00:52:44.000Z</time></trkpt>
        <trkpt lat="29.511508" lon="104.112265"><ele>432.94727</ele><time>2026-01-10T00:52:52.000Z</time></trkpt>
        <trkpt lat="29.511552" lon="104.112239"><ele>432.60788</ele><time>2026-01-10T00:53:00.000Z</time></trkpt>
        <trkpt lat="29.511593" lon="104.112201"><ele>432.2129</ele><time>2026-01-10T00:53:09.000Z</time></trkpt>
        <trkpt lat="29.511622" lon="104.112233"><ele>432.37067</ele><time>2026-01-10T00:53:17.000Z</time></trkpt>
        <trkpt lat="29.511656" lon="104.112282"><ele>433.1296</ele><time>2026-01-10T00:53:24.000Z</time></trkpt>
        <trkpt lat="29.511694" lon="104.112307"><ele>433.85602</ele><time>2026-01-10T00:53:28.000Z</time></trkpt>
        <trkpt lat="29.511745" lon="104.112326"><ele>434.6364</ele><time>2026-01-10T00:53:33.000Z</time></trkpt>
        <trkpt lat="29.511796" lon="104.112322"><ele>434.59238</ele><time>2026-01-10T00:53:38.000Z</time></trkpt>
        <trkpt lat="29.511852" lon="104.112309"><ele>434.5397</ele><time>2026-01-10T00:53:44.000Z</time></trkpt>
        <trkpt lat="29.511895" lon="104.11228"><ele>434.38943</ele><time>2026-01-10T00:53:50.000Z</time></trkpt>
        <trkpt lat="29.51193" lon="104.112243"><ele>435.07645</ele><time>2026-01-10T00:53:56.000Z</time></trkpt>
        <trkpt lat="29.511947" lon="104.112195"><ele>435.11545</ele><time>2026-01-10T00:54:01.000Z</time></trkpt>
        <trkpt lat="29.511949" lon="104.112139"><ele>434.90854</ele><time>2026-01-10T00:54:06.000Z</time></trkpt>
        <trkpt lat="29.51195" lon="104.112078"><ele>434.19907</ele><time>2026-01-10T00:54:12.000Z</time></trkpt>
        <trkpt lat="29.511972" lon="104.112031"><ele>434.47247</ele><time>2026-01-10T00:54:18.000Z</time></trkpt>
        <trkpt lat="29.511996" lon="104.111981"><ele>433.61838</ele><time>2026-01-10T00:54:23.000Z</time></trkpt>
        <trkpt lat="29.512012" lon="104.111927"><ele>432.55026</ele><time>2026-01-10T00:54:27.000Z</time></trkpt>
        <trkpt lat="29.51203" lon="104.111873"><ele>431.0627</ele><time>2026-01-10T00:54:31.000Z</time></trkpt>
        <trkpt lat="29.512055" lon="104.111819"><ele>429.6907</ele><time>2026-01-10T00:54:35.000Z</time></trkpt>
        <trkpt lat="29.512085" lon="104.111772"><ele>428.58035</ele><time>2026-01-10T00:54:39.000Z</time></trkpt>
        <trkpt lat="29.512119" lon="104.111734"><ele>426.99377</ele><time>2026-01-10T00:54:43.000Z</time></trkpt>
        <trkpt lat="29.512152" lon="104.111696"><ele>425.7694</ele><time>2026-01-10T00:54:47.000Z</time></trkpt>
        <trkpt lat="29.51218" lon="104.111655"><ele>425.3715</ele><time>2026-01-10T00:54:51.000Z</time></trkpt>
        <trkpt lat="29.512215" lon="104.111609"><ele>424.82397</ele><time>2026-01-10T00:54:56.000Z</time></trkpt>
        <trkpt lat="29.512249" lon="104.111562"><ele>424.2923</ele><time>2026-01-10T00:55:01.000Z</time></trkpt>
        <trkpt lat="29.512283" lon="104.111517"><ele>423.8702</ele><time>2026-01-10T00:55:06.000Z</time></trkpt>
        <trkpt lat="29.512325" lon="104.111477"><ele>423.5567</ele><time>2026-01-10T00:55:11.000Z</time></trkpt>
        <trkpt lat="29.512357" lon="104.111442"><ele>424.0387</ele><time>2026-01-10T00:55:15.000Z</time></trkpt>
        <trkpt lat="29.5124" lon="104.111402"><ele>424.7826</ele><time>2026-01-10T00:55:20.000Z</time></trkpt>
        <trkpt lat="29.512441" lon="104.11136"><ele>425.34473</ele><time>2026-01-10T00:55:25.000Z</time></trkpt>
        <trkpt lat="29.512475" lon="104.111316"><ele>425.88977</ele><time>2026-01-10T00:55:30.000Z</time></trkpt>
        <trkpt lat="29.51249" lon="104.111249"><ele>427.07465</ele><time>2026-01-10T00:55:41.000Z</time></trkpt>
        <trkpt lat="29.512482" lon="104.111208"><ele>427.1552</ele><time>2026-01-10T00:55:45.000Z</time></trkpt>
        <trkpt lat="29.512469" lon="104.111152"><ele>427.3671</ele><time>2026-01-10T00:55:49.000Z</time></trkpt>
        <trkpt lat="29.51246" lon="104.111088"><ele>427.66595</ele><time>2026-01-10T00:55:53.000Z</time></trkpt>
        <trkpt lat="29.512451" lon="104.111023"><ele>427.18024</ele><time>2026-01-10T00:55:57.000Z</time></trkpt>
        <trkpt lat="29.512456" lon="104.110965"><ele>426.53845</ele><time>2026-01-10T00:56:01.000Z</time></trkpt>
        <trkpt lat="29.512456" lon="104.110912"><ele>426.12473</ele><time>2026-01-10T00:56:05.000Z</time></trkpt>
        <trkpt lat="29.512466" lon="104.110844"><ele>425.22363</ele><time>2026-01-10T00:56:13.000Z</time></trkpt>
        <trkpt lat="29.51248" lon="104.110802"><ele>424.7017</ele><time>2026-01-10T00:56:17.000Z</time></trkpt>
        <trkpt lat="29.512504" lon="104.110753"><ele>424.161</ele><time>2026-01-10T00:56:22.000Z</time></trkpt>
      </trkseg>
  </trk>
</gpx>